Darstellungsparameter: Aktuell verwendete Einstellungen:
Skalierung der Graphiken ... ?
xyx+y,   Skalierungsfaktor:      Skalierung: Modus: x, Faktor: 1
Darstellungszeitraum ... ?
Vom - - bis: - -   Zeitraum: 07.09.2013 - 06.03.2014
Min/Max/Avg-Anzeige ... ?
Zeige MMA aktuell
Zeige MMA Monat
Zeige MMA alles
Zeige --A aktuell
Zeige --A Monat
Zeige --A alles
Keine MMA-Anzeige
MMA:
Keine MMA-Graphiken
MMA-Basis: 07.09.2013 - 06.03.2014
Quicknavigation für Darstellung... ?
Tage:      1T, 2T, 3T, 5T -1T -2T -3T -5T +1T +2T +3T +5T
Wochen: 1W, 2W, 3W -1W -2W -3W +1W +2W +3W
Monate: 1M, 3M, 6M -1M -3M -6M +1M +3M +6M
Jahre:    1J, 3J, 5J, 10J -1J -3J -5J -10J +1J +3J +5J +10J
Nutze für die Darstellung ... ?
Originaldaten oder ...
Mittelwerte Minima Maxima auf...
Stundenbasis Tagesbasis Wochenbasis
Monatsbasis Jahresbasis      Datenbasis: Mittelwerte auf Stundenbasis
Darstellen als:
Statistik (Auto) Statistik J:M      Darstellung:
Zur Graphik,    zurück zur Übersicht aller Sensoren.
 
Tabellarische Datenbersicht: ?
 
Sensor: Nr:Datum:Temp:Abs-Feuchte:Windchill:Wind:
Aussen-T/F 1 07-09-2013 00:00:00 18.825 C 13.7 g/m*3 18.83 C 0.53333 km/h
2 07-09-2013 01:00:00 17.91667 C 13.48 g/m*3 17.92 C 0 km/h
3 07-09-2013 02:00:00 17.39167 C 13.18 g/m*3 17.39 C 1.35 km/h
4 07-09-2013 03:00:00 17.36667 C 12.99 g/m*3 17.37 C 5.50833 km/h
5 07-09-2013 04:00:00 17.10833 C 12.93 g/m*3 17.11 C 0.8 km/h
6 07-09-2013 05:00:00 17.16667 C 12.89 g/m*3 17.17 C 2.54167 km/h
7 07-09-2013 06:00:00 16.75833 C 12.85 g/m*3 16.76 C 1.86667 km/h
8 07-09-2013 07:00:00 17.125 C 13.44 g/m*3 17.13 C 1.46667 km/h
9 07-09-2013 08:00:00 16.88333 C 13.59 g/m*3 16.88 C 0.26667 km/h
10 07-09-2013 09:00:00 16.93333 C 13.84 g/m*3 16.93 C 0 km/h
11 07-09-2013 10:00:00 17.625 C 14.52 g/m*3 17.63 C 0 km/h
12 07-09-2013 11:00:00 18.80833 C 15.2 g/m*3 18.81 C 1.73333 km/h
13 07-09-2013 12:00:00 20.15 C 15.65 g/m*3 20.15 C 1.2 km/h
14 07-09-2013 13:00:00 21.18333 C 16.23 g/m*3 21.18 C 0.93333 km/h
15 07-09-2013 14:00:00 22.11667 C 16.67 g/m*3 22.12 C 2 km/h
16 07-09-2013 15:00:00 20.90833 C 16.82 g/m*3 20.91 C 0 km/h
17 07-09-2013 16:00:00 21.09167 C 16.82 g/m*3 21.09 C 0.93333 km/h
18 07-09-2013 17:00:00 20.01667 C 16.15 g/m*3 20.02 C 2.54167 km/h
19 07-09-2013 18:00:00 18.84167 C 15.04 g/m*3 18.84 C 4.55833 km/h
20 07-09-2013 19:00:00 18.11667 C 14.72 g/m*3 18.12 C 0.26667 km/h
21 07-09-2013 20:00:00 17.68333 C 14.36 g/m*3 17.68 C 2.95 km/h
22 07-09-2013 21:00:00 17.46667 C 13.84 g/m*3 17.47 C 2.13333 km/h
23 07-09-2013 22:00:00 16.94167 C 13.57 g/m*3 16.94 C 1.06667 km/h
24 07-09-2013 23:00:00 16.3 C 13.24 g/m*3 16.3 C 0.13333 km/h
25 08-09-2013 00:00:00 16.075 C 13.1 g/m*3 16.08 C 0.13333 km/h
Sensor: Nr:Datum:Temp:Abs-Feuchte:Windchill:Wind:
Aussen-T/F 26 08-09-2013 01:00:00 15.89167 C 12.99 g/m*3 15.89 C 0.13333 km/h
27 08-09-2013 02:00:00 15.93333 C 12.85 g/m*3 15.93 C 4.275 km/h
28 08-09-2013 03:00:00 16.03333 C 12.8 g/m*3 16.03 C 1.475 km/h
29 08-09-2013 04:00:00 15.825 C 12.82 g/m*3 15.83 C 3.475 km/h
30 08-09-2013 05:00:00 15.55 C 12.75 g/m*3 15.55 C 6.70833 km/h
31 08-09-2013 06:00:00 14.7 C 11.99 g/m*3 14.7 C 5.1 km/h
32 08-09-2013 07:00:00 13.78333 C 11.34 g/m*3 13.78 C 3.075 km/h
33 08-09-2013 08:00:00 13.53333 C 11.18 g/m*3 13.53 C 2.66667 km/h
34 08-09-2013 09:00:00 13.64167 C 11.36 g/m*3 13.64 C 0.4 km/h
35 08-09-2013 10:00:00 14.33333 C 11.77 g/m*3 14.33 C 4.00833 km/h
36 08-09-2013 11:00:00 14.76667 C 11.64 g/m*3 14.77 C 7.38333 km/h
37 08-09-2013 12:00:00 15.075 C 11.59 g/m*3 15.08 C 9.7 km/h
38 08-09-2013 13:00:00 14.9 C 11.5 g/m*3 14.9 C 6.425 km/h
39 08-09-2013 14:00:00 14.96667 C 11.84 g/m*3 14.97 C 4.01667 km/h
40 08-09-2013 15:00:00 15.375 C 11.89 g/m*3 15.38 C 4.26667 km/h
41 08-09-2013 16:00:00 15.5 C 11.9 g/m*3 15.5 C 5.36667 km/h
42 08-09-2013 17:00:00 15.11667 C 11.6 g/m*3 15.12 C 5.35833 km/h
43 08-09-2013 18:00:00 14.8 C 11.42 g/m*3 14.8 C 3.08333 km/h
44 08-09-2013 19:00:00 14.49167 C 11.67 g/m*3 14.49 C 0 km/h
45 08-09-2013 20:00:00 13.875 C 11.4 g/m*3 13.88 C 0 km/h
46 08-09-2013 21:00:00 13.625 C 11.32 g/m*3 13.63 C 0 km/h
47 08-09-2013 22:00:00 13.5 C 11.35 g/m*3 13.5 C 0 km/h
48 08-09-2013 23:00:00 13.55833 C 11.39 g/m*3 13.56 C 0.66667 km/h
49 09-09-2013 00:00:00 13.6 C 11.42 g/m*3 13.6 C 0 km/h
50 09-09-2013 01:00:00 13.325 C 11.21 g/m*3 13.33 C 0 km/h
Sensor: Nr:Datum:Temp:Abs-Feuchte:Windchill:Wind:
Aussen-T/F 51 09-09-2013 02:00:00 13.15833 C 11.11 g/m*3 13.16 C 0 km/h
52 09-09-2013 03:00:00 13.14167 C 11.1 g/m*3 13.14 C 0 km/h
53 09-09-2013 04:00:00 13.28333 C 11.19 g/m*3 13.28 C 0.4 km/h
54 09-09-2013 05:00:00 13.10833 C 11.04 g/m*3 13.11 C 1.2 km/h
55 09-09-2013 06:00:00 12.45 C 10.35 g/m*3 12.45 C 4.81667 km/h
56 09-09-2013 07:00:00 11.41667 C 9.83 g/m*3 11.42 C 0.8 km/h
57 09-09-2013 08:00:00 11.65833 C 9.97 g/m*3 11.66 C 1.6 km/h
58 09-09-2013 09:00:00 11.91667 C 9.97 g/m*3 11.92 C 3.075 km/h
59 09-09-2013 10:00:00 12.95833 C 10.28 g/m*3 12.96 C 8.2 km/h
60 09-09-2013 11:00:00 14.35 C 10.49 g/m*3 14.35 C 10.1 km/h
61 09-09-2013 12:00:00 16.20833 C 10.5 g/m*3 16.21 C 11.28333 km/h
62 09-09-2013 13:00:00 17.6 C 10.12 g/m*3 17.6 C 12.48333 km/h
63 09-09-2013 14:00:00 16.94167 C 10.06 g/m*3 16.94 C 6.025 km/h
64 09-09-2013 15:00:00 16.99167 C 9.93 g/m*3 16.99 C 5.76667 km/h
65 09-09-2013 16:00:00 18.49167 C 9.49 g/m*3 18.49 C 11.15833 km/h
66 09-09-2013 17:00:00 16.99167 C 10.5 g/m*3 16.99 C 3.75 km/h
67 09-09-2013 18:00:00 15.325 C 11.24 g/m*3 15.33 C 0.26667 km/h
68 09-09-2013 19:00:00 14.59167 C 10.43 g/m*3 14.59 C 1.6 km/h
69 09-09-2013 20:00:00 13.84167 C 10.53 g/m*3 13.84 C 0.13333 km/h
70 09-09-2013 21:00:00 13.21667 C 10.32 g/m*3 13.22 C 0 km/h
71 09-09-2013 22:00:00 12.86667 C 10.46 g/m*3 12.87 C 0.26667 km/h
72 09-09-2013 23:00:00 12.63333 C 10.61 g/m*3 12.63 C 0.93333 km/h
73 10-09-2013 00:00:00 12.59167 C 10.61 g/m*3 12.59 C 0.66667 km/h
74 10-09-2013 01:00:00 12.6875 C 10.76 g/m*3 12.69 C 1.4 km/h
75 10-09-2013 02:00:00 12.95714 C 10.97 g/m*3 12.96 C 0.45714 km/h
Sensor: Nr:Datum:Temp:Abs-Feuchte:Windchill:Wind:
Aussen-T/F 76 10-09-2013 03:00:00 13.22857 C 11.16 g/m*3 13.23 C 1.37143 km/h
77 10-09-2013 04:00:00 12.46667 C 10.17 g/m*3 12.47 C 6.43333 km/h
78 10-09-2013 05:00:00 11.16667 C 9.19 g/m*3 11.17 C 4.29167 km/h
79 10-09-2013 06:00:00 10.49167 C 9.04 g/m*3 10.49 C 0.8 km/h
80 10-09-2013 07:00:00 9.70833 C 8.84 g/m*3 9.71 C 0 km/h
81 10-09-2013 08:00:00 9.99167 C 8.79 g/m*3 9.56 C 5.63333 km/h
82 10-09-2013 09:00:00 11.525 C 8.97 g/m*3 11.53 C 11.56667 km/h
83 10-09-2013 10:00:00 12.59167 C 9.39 g/m*3 12.59 C 10.08333 km/h
84 10-09-2013 11:00:00 13.45833 C 9.64 g/m*3 13.46 C 9.275 km/h
85 10-09-2013 12:00:00 14.26667 C 9.48 g/m*3 14.27 C 10.625 km/h
86 10-09-2013 13:00:00 15.64167 C 9.25 g/m*3 15.64 C 14.23333 km/h
87 10-09-2013 14:00:00 15.89167 C 9.25 g/m*3 15.89 C 15.29167 km/h
88 10-09-2013 15:00:00 15.84167 C 9.36 g/m*3 15.84 C 15.15833 km/h
89 10-09-2013 16:00:00 15.86667 C 9.42 g/m*3 15.87 C 13.55833 km/h
90 10-09-2013 17:00:00 15.76667 C 9.65 g/m*3 15.77 C 11.025 km/h
91 10-09-2013 18:00:00 15.3 C 9.75 g/m*3 15.3 C 9.15 km/h
92 10-09-2013 19:00:00 14.84167 C 9.44 g/m*3 14.84 C 8.2 km/h
93 10-09-2013 20:00:00 14.06667 C 9.3 g/m*3 14.07 C 4.825 km/h
94 10-09-2013 21:00:00 13.56667 C 9.3 g/m*3 13.57 C 8.88333 km/h
95 10-09-2013 22:00:00 13.26667 C 9.04 g/m*3 13.27 C 8.325 km/h
96 10-09-2013 23:00:00 12.8 C 8.98 g/m*3 12.8 C 6.3 km/h
97 11-09-2013 00:00:00 12.78333 C 8.8 g/m*3 12.78 C 11.95833 km/h
98 11-09-2013 01:00:00 12.6 C 8.7 g/m*3 12.6 C 12.5 km/h
99 11-09-2013 02:00:00 12.25833 C 8.87 g/m*3 12.26 C 11.96667 km/h
100 11-09-2013 03:00:00 12.175 C 8.97 g/m*3 12.18 C 15.84167 km/h
Sensor: Nr:Datum:Temp:Abs-Feuchte:Windchill:Wind:
Aussen-T/F 101 11-09-2013 04:00:00 11.89167 C 9.1 g/m*3 11.89 C 12.36667 km/h
102 11-09-2013 05:00:00 12.18333 C 9.11 g/m*3 12.18 C 15.025 km/h
103 11-09-2013 06:00:00 11.575 C 9.4 g/m*3 11.58 C 11.3 km/h
104 11-09-2013 07:00:00 11.45833 C 9.52 g/m*3 11.46 C 9.79167 km/h
105 11-09-2013 08:00:00 11.45833 C 9.75 g/m*3 11.46 C 5.23333 km/h
106 11-09-2013 09:00:00 11.78333 C 9.98 g/m*3 11.78 C 5.225 km/h
107 11-09-2013 10:00:00 12.475 C 10.14 g/m*3 12.48 C 6.45 km/h
108 11-09-2013 11:00:00 13.69167 C 10.41 g/m*3 13.69 C 8.33333 km/h
109 11-09-2013 12:00:00 14.86667 C 10.29 g/m*3 14.87 C 8.75 km/h
110 11-09-2013 13:00:00 15.31 C 10.7 g/m*3 15.31 C 5.63 km/h
111 11-09-2013 14:00:00 16.17143 C 11.35 g/m*3 16.17 C 5.52857 km/h
112 11-09-2013 15:00:00 17.41667 C 10.76 g/m*3 17.42 C 8.875 km/h
113 11-09-2013 16:00:00 17.18 C 11.03 g/m*3 17.18 C 5.16 km/h
114 11-09-2013 17:00:00 15.98333 C 11.49 g/m*3 15.98 C 9.675 km/h
115 11-09-2013 18:00:00 13.00833 C 10.55 g/m*3 13.01 C 2.81667 km/h
116 11-09-2013 19:00:00 12.50833 C 10.51 g/m*3 12.51 C 1.6 km/h
117 11-09-2013 20:00:00 12.075 C 10.18 g/m*3 12.08 C 2.275 km/h
118 11-09-2013 21:00:00 11.8 C 10.1 g/m*3 11.8 C 0.26667 km/h
119 11-09-2013 22:00:00 11.8 C 10.19 g/m*3 11.8 C 0.66667 km/h
120 11-09-2013 23:00:00 11.9 C 10.26 g/m*3 11.9 C 2 km/h
121 12-09-2013 00:00:00 12.26667 C 10.4 g/m*3 12.27 C 2.26667 km/h
122 12-09-2013 01:00:00 12.4 C 10.38 g/m*3 12.4 C 1.33333 km/h
123 12-09-2013 02:00:00 12.39167 C 10.38 g/m*3 12.39 C 2.26667 km/h
124 12-09-2013 03:00:00 12.325 C 10.37 g/m*3 12.33 C 1.2 km/h
125 12-09-2013 04:00:00 12.275 C 10.41 g/m*3 12.28 C 1.06667 km/h
Sensor: Nr:Datum:Temp:Abs-Feuchte:Windchill:Wind:
Aussen-T/F 126 12-09-2013 05:00:00 12.34167 C 10.4 g/m*3 12.34 C 0.8 km/h
127 12-09-2013 06:00:00 12.25 C 10.4 g/m*3 12.25 C 0 km/h
128 12-09-2013 07:00:00 12.05 C 10.37 g/m*3 12.05 C 0.13333 km/h
129 12-09-2013 08:00:00 12.21667 C 10.48 g/m*3 12.22 C 0.26667 km/h
130 12-09-2013 09:00:00 13.05 C 10.83 g/m*3 13.05 C 5.08333 km/h
131 12-09-2013 10:00:00 14.175 C 10.83 g/m*3 14.18 C 5.48333 km/h
132 12-09-2013 11:00:00 13.83333 C 11.08 g/m*3 13.83 C 3.33333 km/h
133 12-09-2013 12:00:00 14.84167 C 11.36 g/m*3 14.84 C 3.33333 km/h
134 12-09-2013 13:00:00 14.8 C 11.68 g/m*3 14.8 C 0.93333 km/h
135 12-09-2013 14:00:00 15.125 C 11.49 g/m*3 15.13 C 5.89167 km/h
136 12-09-2013 15:00:00 16.45 C 12.14 g/m*3 16.45 C 3.475 km/h
137 12-09-2013 16:00:00 17.00833 C 11.15 g/m*3 17.01 C 9.80833 km/h
138 12-09-2013 17:00:00 15.91667 C 11.09 g/m*3 15.92 C 9.125 km/h
139 12-09-2013 18:00:00 14.23333 C 11.2 g/m*3 14.23 C 1.6 km/h
140 12-09-2013 19:00:00 13.68333 C 11.23 g/m*3 13.68 C 0 km/h
141 12-09-2013 20:00:00 12.99167 C 10.82 g/m*3 12.99 C 0 km/h
142 12-09-2013 21:00:00 12.68333 C 10.68 g/m*3 12.68 C 0.26667 km/h
143 12-09-2013 22:00:00 12.75833 C 10.75 g/m*3 12.76 C 0.4 km/h
144 12-09-2013 23:00:00 12.76667 C 10.73 g/m*3 12.77 C 0 km/h
145 13-09-2013 00:00:00 12.58333 C 10.69 g/m*3 12.58 C 0.13333 km/h
146 13-09-2013 01:00:00 12.86667 C 10.81 g/m*3 12.87 C 0 km/h
147 13-09-2013 02:00:00 12.58333 C 10.61 g/m*3 12.58 C 0 km/h
148 13-09-2013 03:00:00 12.41667 C 10.52 g/m*3 12.42 C 1.46667 km/h
149 13-09-2013 04:00:00 12.875 C 10.54 g/m*3 12.88 C 3.475 km/h
150 13-09-2013 05:00:00 12.44167 C 10.24 g/m*3 12.44 C 0.8 km/h
Sensor: Nr:Datum:Temp:Abs-Feuchte:Windchill:Wind:
Aussen-T/F 151 13-09-2013 06:00:00 12.03333 C 10.09 g/m*3 12.03 C 2.93333 km/h
152 13-09-2013 07:00:00 12.15833 C 10.16 g/m*3 12.16 C 4.14167 km/h
153 13-09-2013 08:00:00 12.43333 C 10.29 g/m*3 12.43 C 3.34167 km/h
154 13-09-2013 09:00:00 13.325 C 10.69 g/m*3 13.33 C 4.55 km/h
155 13-09-2013 10:00:00 14.50833 C 11.02 g/m*3 14.51 C 6.55 km/h
156 13-09-2013 11:00:00 15.43333 C 11.4 g/m*3 15.43 C 7.38333 km/h
157 13-09-2013 12:00:00 16.16667 C 11.69 g/m*3 16.17 C 6.43333 km/h
158 13-09-2013 13:00:00 17.06667 C 11.71 g/m*3 17.07 C 6.84167 km/h
159 13-09-2013 14:00:00 17.85 C 11.56 g/m*3 17.85 C 7.25 km/h
160 13-09-2013 15:00:00 18.25 C 11.57 g/m*3 18.25 C 6.43333 km/h
161 13-09-2013 16:00:00 18.36667 C 11.63 g/m*3 18.37 C 6.18333 km/h
162 13-09-2013 17:00:00 18.60833 C 11.74 g/m*3 18.61 C 4.41667 km/h
163 13-09-2013 18:00:00 17.725 C 11.91 g/m*3 17.73 C 3.225 km/h
164 13-09-2013 19:00:00 15.40833 C 11.62 g/m*3 15.41 C 1.06667 km/h
165 13-09-2013 20:00:00 14.1375 C 11.12 g/m*3 14.14 C 0.8 km/h
166 13-09-2013 21:00:00 13.74 C 11.3 g/m*3 13.74 C 0.32 km/h
167 13-09-2013 22:00:00 14.3125 C 11.36 g/m*3 14.31 C 1 km/h
168 13-09-2013 23:00:00 14.03333 C 11.42 g/m*3 14.03 C 0 km/h
169 14-09-2013 00:00:00 14.01667 C 11.44 g/m*3 14.02 C 0.13333 km/h
170 14-09-2013 01:00:00 14.29167 C 11.54 g/m*3 14.29 C 0.53333 km/h
171 14-09-2013 02:00:00 14.525 C 11.65 g/m*3 14.53 C 2.4 km/h
172 14-09-2013 03:00:00 14.81667 C 11.76 g/m*3 14.82 C 2 km/h
173 14-09-2013 04:00:00 14.575 C 11.84 g/m*3 14.58 C 0.8 km/h
174 14-09-2013 05:00:00 14.425 C 11.87 g/m*3 14.43 C 0.13333 km/h
175 14-09-2013 06:00:00 14.55 C 12.09 g/m*3 14.55 C 0.13333 km/h
Sensor: Nr:Datum:Temp:Abs-Feuchte:Windchill:Wind:
Aussen-T/F 176 14-09-2013 07:00:00 14.63333 C 12.16 g/m*3 14.63 C 0 km/h
177 14-09-2013 08:00:00 15.14167 C 12.57 g/m*3 15.14 C 0 km/h
178 14-09-2013 09:00:00 15.825 C 13.09 g/m*3 15.83 C 0.13333 km/h
179 14-09-2013 10:00:00 16.45 C 13.58 g/m*3 16.45 C 0.13333 km/h
180 14-09-2013 11:00:00 17.125 C 13.89 g/m*3 17.13 C 2.15 km/h
181 14-09-2013 12:00:00 17.78333 C 14.44 g/m*3 17.78 C 1.2 km/h
182 14-09-2013 13:00:00 18.85 C 14.81 g/m*3 18.85 C 2.8 km/h
183 14-09-2013 14:00:00 19.05 C 13.87 g/m*3 19.05 C 13.13333 km/h
184 14-09-2013 15:00:00 18.025 C 12.72 g/m*3 18.02 C 13.03333 km/h
185 14-09-2013 16:00:00 17.79167 C 12.62 g/m*3 17.79 C 6.30833 km/h
186 14-09-2013 17:00:00 17.33333 C 12.58 g/m*3 17.33 C 3.61667 km/h
187 14-09-2013 18:00:00 16.51667 C 12.64 g/m*3 16.52 C 3.74167 km/h
188 14-09-2013 19:00:00 15.69167 C 12.57 g/m*3 15.69 C 1.73333 km/h
189 14-09-2013 20:00:00 15.21667 C 12.29 g/m*3 15.22 C 2.275 km/h
190 14-09-2013 21:00:00 14.60833 C 11.76 g/m*3 14.61 C 2.01667 km/h
191 14-09-2013 22:00:00 14.24167 C 11.76 g/m*3 14.24 C 0 km/h
192 14-09-2013 23:00:00 14.175 C 11.83 g/m*3 14.18 C 0 km/h
193 15-09-2013 00:00:00 13.94167 C 11.66 g/m*3 13.94 C 0 km/h
194 15-09-2013 01:00:00 13.975 C 11.68 g/m*3 13.98 C 0 km/h
195 15-09-2013 02:00:00 13.9 C 11.62 g/m*3 13.9 C 0.94167 km/h
196 15-09-2013 03:00:00 13.625 C 11.31 g/m*3 13.63 C 0 km/h
197 15-09-2013 04:00:00 13.43333 C 10.94 g/m*3 13.43 C 2.54167 km/h
198 15-09-2013 05:00:00 13.48333 C 10.81 g/m*3 13.48 C 0.93333 km/h
199 15-09-2013 06:00:00 13.025 C 10.81 g/m*3 13.03 C 0.13333 km/h
200 15-09-2013 07:00:00 12.7 C 10.68 g/m*3 12.7 C 0.93333 km/h
Sensor: Nr:Datum:Temp:Abs-Feuchte:Windchill:Wind:
Aussen-T/F 201 15-09-2013 08:00:00 12.8 C 10.66 g/m*3 12.8 C 0.66667 km/h
202 15-09-2013 09:00:00 13.2 C 10.51 g/m*3 13.2 C 4.80833 km/h
203 15-09-2013 10:00:00 13.89167 C 10.43 g/m*3 13.89 C 5.35 km/h
204 15-09-2013 11:00:00 14.48333 C 10.15 g/m*3 14.48 C 2.13333 km/h
205 15-09-2013 12:00:00 15.475 C 10.46 g/m*3 15.48 C 4.95833 km/h
206 15-09-2013 13:00:00 16.41667 C 10.25 g/m*3 16.42 C 3.73333 km/h
207 15-09-2013 14:00:00 16.95833 C 10.32 g/m*3 16.96 C 3.33333 km/h
208 15-09-2013 15:00:00 17.40833 C 10.03 g/m*3 17.41 C 3.75 km/h
209 15-09-2013 16:00:00 16.975 C 10.64 g/m*3 16.98 C 1.2 km/h
210 15-09-2013 17:00:00 16.275 C 11.54 g/m*3 16.27 C 0.4 km/h
211 15-09-2013 18:00:00 14.98333 C 11.45 g/m*3 14.98 C 0 km/h
212 15-09-2013 19:00:00 14.00833 C 11.06 g/m*3 14.01 C 0.13333 km/h
213 15-09-2013 20:00:00 13.53333 C 10.84 g/m*3 13.53 C 0 km/h
214 15-09-2013 21:00:00 13.25833 C 10.66 g/m*3 13.26 C 0 km/h
215 15-09-2013 22:00:00 13.925 C 10.12 g/m*3 13.93 C 5.23333 km/h
216 15-09-2013 23:00:00 14.325 C 9.25 g/m*3 14.33 C 7.925 km/h
217 16-09-2013 00:00:00 13.625 C 9.51 g/m*3 13.63 C 6.44167 km/h
218 16-09-2013 01:00:00 12.33333 C 9.87 g/m*3 12.33 C 2.93333 km/h
219 16-09-2013 02:00:00 12.35833 C 10.05 g/m*3 12.36 C 5.36667 km/h
220 16-09-2013 03:00:00 12.725 C 10.17 g/m*3 12.73 C 9.4 km/h
221 16-09-2013 04:00:00 12.91667 C 10.04 g/m*3 12.92 C 18.64167 km/h
222 16-09-2013 05:00:00 13.05 C 9.96 g/m*3 13.05 C 18.76667 km/h
223 16-09-2013 06:00:00 12.625 C 10.06 g/m*3 12.63 C 16.36667 km/h
224 16-09-2013 07:00:00 12.7 C 9.99 g/m*3 12.7 C 15.16667 km/h
225 16-09-2013 08:00:00 13.15 C 10.2 g/m*3 13.15 C 11.41667 km/h
Sensor: Nr:Datum:Temp:Abs-Feuchte:Windchill:Wind:
Aussen-T/F 226 16-09-2013 09:00:00 13.73333 C 10.43 g/m*3 13.73 C 11.025 km/h
227 16-09-2013 10:00:00 12.54167 C 9.83 g/m*3 12.54 C 6.84167 km/h
228 16-09-2013 11:00:00 13.23333 C 9.91 g/m*3 13.23 C 3.475 km/h
229 16-09-2013 12:00:00 14.73333 C 9.91 g/m*3 14.73 C 7.1 km/h
230 16-09-2013 13:00:00 14.36667 C 9.46 g/m*3 14.37 C 7.65833 km/h
231 16-09-2013 14:00:00 14.85 C 9.02 g/m*3 14.85 C 10.49167 km/h
232 16-09-2013 15:00:00 15.7 C 9.28 g/m*3 15.7 C 6.98333 km/h
233 16-09-2013 16:00:00 15.95833 C 8.97 g/m*3 15.96 C 6.56667 km/h
234 16-09-2013 17:00:00 15.73333 C 8.9 g/m*3 15.73 C 5.9 km/h
235 16-09-2013 18:00:00 13.84167 C 9.22 g/m*3 13.84 C 2.94167 km/h
236 16-09-2013 19:00:00 12.2 C 8.41 g/m*3 12.2 C 2.66667 km/h
237 16-09-2013 20:00:00 11.75833 C 8.48 g/m*3 11.76 C 2.8 km/h
238 16-09-2013 21:00:00 11.59167 C 8.06 g/m*3 11.59 C 4.95 km/h
239 16-09-2013 22:00:00 11.15833 C 7.33 g/m*3 11.16 C 5.35 km/h
240 16-09-2013 23:00:00 10.71667 C 7.24 g/m*3 10.29 C 6.025 km/h
241 17-09-2013 00:00:00 10.275 C 7.29 g/m*3 9.78 C 6.025 km/h
242 17-09-2013 01:00:00 9.49167 C 7.6 g/m*3 8.95 C 5.75833 km/h
243 17-09-2013 02:00:00 9.48333 C 7.79 g/m*3 8.76 C 6.44167 km/h
244 17-09-2013 03:00:00 8.86667 C 7.59 g/m*3 8.87 C 4.81667 km/h
245 17-09-2013 04:00:00 8.75833 C 7.52 g/m*3 8 C 6.15833 km/h
246 17-09-2013 05:00:00 8.43333 C 7.34 g/m*3 6.87 C 9.4 km/h
247 17-09-2013 06:00:00 8.14167 C 7.27 g/m*3 8.14 C 4.81667 km/h
248 17-09-2013 07:00:00 8.225 C 7.27 g/m*3 7.35 C 6.3 km/h
249 17-09-2013 08:00:00 8.58333 C 7.42 g/m*3 7.91 C 5.75 km/h
250 17-09-2013 09:00:00 9.46667 C 7.61 g/m*3 7.56 C 12.74167 km/h
Sensor: Nr:Datum:Temp:Abs-Feuchte:Windchill:Wind:
Aussen-T/F 251 17-09-2013 10:00:00 10.00833 C 7.62 g/m*3 8.05 C 13.96667 km/h
252 17-09-2013 11:00:00 11.15 C 7.76 g/m*3 11.15 C 17.96667 km/h
253 17-09-2013 12:00:00 12.30833 C 7.99 g/m*3 12.31 C 17.16667 km/h
254 17-09-2013 13:00:00 12.69167 C 8.16 g/m*3 12.69 C 13.43333 km/h
255 17-09-2013 14:00:00 13.575 C 8.25 g/m*3 13.58 C 18.23333 km/h
256 17-09-2013 15:00:00 12.76667 C 8.45 g/m*3 12.77 C 17.16667 km/h
257 17-09-2013 16:00:00 13.06667 C 8.46 g/m*3 13.07 C 15.16667 km/h
258 17-09-2013 17:00:00 12.65 C 8.26 g/m*3 12.65 C 9.675 km/h
259 17-09-2013 18:00:00 12.24167 C 8.63 g/m*3 12.24 C 4.15833 km/h
260 17-09-2013 19:00:00 11.7 C 8.77 g/m*3 11.7 C 4.41667 km/h
261 17-09-2013 20:00:00 10.94167 C 8.95 g/m*3 10.94 C 2.66667 km/h
262 17-09-2013 21:00:00 10.41667 C 8.94 g/m*3 10.42 C 1.6 km/h
263 17-09-2013 22:00:00 10.325 C 8.97 g/m*3 10.33 C 2.26667 km/h
264 17-09-2013 23:00:00 10.58333 C 9.16 g/m*3 10.58 C 3.46667 km/h
265 18-09-2013 00:00:00 11.08333 C 9.42 g/m*3 11.08 C 1.86667 km/h
266 18-09-2013 01:00:00 11.1 C 9.61 g/m*3 11.1 C 0.13333 km/h
267 18-09-2013 02:00:00 11.51667 C 9.93 g/m*3 11.52 C 3.35 km/h
268 18-09-2013 03:00:00 12.59167 C 10.41 g/m*3 12.59 C 3.88333 km/h
269 18-09-2013 04:00:00 13.18333 C 10.72 g/m*3 13.18 C 3.6 km/h
270 18-09-2013 05:00:00 13.95833 C 11.06 g/m*3 13.96 C 8.325 km/h
271 18-09-2013 06:00:00 13.825 C 11.19 g/m*3 13.83 C 2 km/h
272 18-09-2013 07:00:00 13.725 C 11.32 g/m*3 13.73 C 0.13333 km/h
273 18-09-2013 08:00:00 13.39167 C 11.05 g/m*3 13.39 C 5.625 km/h
274 18-09-2013 09:00:00 12.89167 C 10.6 g/m*3 12.89 C 5.75833 km/h
275 18-09-2013 10:00:00 12.40833 C 10.34 g/m*3 12.41 C 1.86667 km/h
Sensor: Nr:Datum:Temp:Abs-Feuchte:Windchill:Wind:
Aussen-T/F 276 18-09-2013 11:00:00 12.33333 C 10.27 g/m*3 12.33 C 4.00833 km/h
277 18-09-2013 12:00:00 12.51667 C 10.36 g/m*3 12.52 C 2.93333 km/h
278 18-09-2013 13:00:00 13.35833 C 10.55 g/m*3 13.36 C 5.63333 km/h
279 18-09-2013 14:00:00 13.7 C 10.54 g/m*3 13.7 C 5.89167 km/h
280 18-09-2013 15:00:00 13.6 C 10.37 g/m*3 13.6 C 6.29167 km/h
281 18-09-2013 16:00:00 13.74167 C 10.24 g/m*3 13.74 C 5.625 km/h
282 18-09-2013 17:00:00 13.86667 C 10.17 g/m*3 13.87 C 5.75833 km/h
283 18-09-2013 18:00:00 12.675 C 9.94 g/m*3 12.68 C 4.4 km/h
284 18-09-2013 19:00:00 11.81667 C 9.96 g/m*3 11.82 C 0 km/h
285 18-09-2013 20:00:00 11.36667 C 9.83 g/m*3 11.37 C 0.8 km/h
286 18-09-2013 21:00:00 11.20833 C 9.74 g/m*3 11.21 C 0.66667 km/h
287 18-09-2013 22:00:00 11 C 9.57 g/m*3 11 C 2.675 km/h
288 18-09-2013 23:00:00 11.05 C 9.25 g/m*3 11.05 C 5.23333 km/h
289 19-09-2013 00:00:00 10.2 C 8.88 g/m*3 10.2 C 2.66667 km/h
290 19-09-2013 01:00:00 9.74167 C 8.74 g/m*3 9.74 C 1.73333 km/h
291 19-09-2013 02:00:00 9.35833 C 8.57 g/m*3 9.36 C 1.33333 km/h
292 19-09-2013 03:00:00 9.55 C 8.67 g/m*3 9.55 C 0.4 km/h
293 19-09-2013 04:00:00 9.56667 C 8.71 g/m*3 9.57 C 0.66667 km/h
294 19-09-2013 05:00:00 10.025 C 8.85 g/m*3 10.03 C 0.53333 km/h
295 19-09-2013 06:00:00 9.56667 C 8.66 g/m*3 9.57 C 0 km/h
296 19-09-2013 07:00:00 9.44167 C 8.68 g/m*3 9.44 C 2.13333 km/h
297 19-09-2013 08:00:00 10.65 C 8.84 g/m*3 10.11 C 6.425 km/h
298 19-09-2013 09:00:00 11.21667 C 8.98 g/m*3 11.22 C 8.2 km/h
299 19-09-2013 10:00:00 11.95 C 9.34 g/m*3 11.95 C 9.14167 km/h
300 19-09-2013 11:00:00 12.85 C 9.51 g/m*3 12.85 C 9.81667 km/h
Sensor: Nr:Datum:Temp:Abs-Feuchte:Windchill:Wind:
Aussen-T/F 301 19-09-2013 12:00:00 14.01667 C 9.65 g/m*3 14.02 C 8.325 km/h
302 19-09-2013 13:00:00 15.03333 C 9.2 g/m*3 15.03 C 11.00833 km/h
303 19-09-2013 14:00:00 14.54167 C 9.22 g/m*3 14.54 C 9.54167 km/h
304 19-09-2013 15:00:00 13.99167 C 9.19 g/m*3 13.99 C 5.36667 km/h
305 19-09-2013 16:00:00 14.93333 C 9.1 g/m*3 14.93 C 7.8 km/h
306 19-09-2013 17:00:00 14.6 C 9.44 g/m*3 14.6 C 3.34167 km/h
307 19-09-2013 18:00:00 13.30833 C 9.66 g/m*3 13.31 C 1.6 km/h
308 19-09-2013 19:00:00 12.50833 C 9.51 g/m*3 12.51 C 2.13333 km/h
309 19-09-2013 20:00:00 12.2 C 9.33 g/m*3 12.2 C 1.2 km/h
310 19-09-2013 21:00:00 11.74167 C 9.54 g/m*3 11.74 C 0.13333 km/h
311 19-09-2013 22:00:00 11.76667 C 9.57 g/m*3 11.77 C 1.20833 km/h
312 19-09-2013 23:00:00 12.70833 C 9.22 g/m*3 12.71 C 5.625 km/h
313 20-09-2013 00:00:00 11.78333 C 9.46 g/m*3 11.78 C 4.14167 km/h
314 20-09-2013 01:00:00 11.625 C 9.53 g/m*3 11.63 C 8.58333 km/h
315 20-09-2013 02:00:00 11.74167 C 9.55 g/m*3 11.74 C 11.40833 km/h
316 20-09-2013 03:00:00 11.76667 C 9.55 g/m*3 11.77 C 10.88333 km/h
317 20-09-2013 04:00:00 11.88333 C 9.58 g/m*3 11.88 C 11.025 km/h
318 20-09-2013 05:00:00 12.15833 C 9.67 g/m*3 12.16 C 9.55 km/h
319 20-09-2013 06:00:00 12.26667 C 9.77 g/m*3 12.27 C 9.13333 km/h
320 20-09-2013 07:00:00 12.5 C 9.98 g/m*3 12.5 C 9.55 km/h
321 20-09-2013 08:00:00 12.76667 C 10.21 g/m*3 12.77 C 6.96667 km/h
322 20-09-2013 09:00:00 13.64167 C 10.61 g/m*3 13.64 C 9.025 km/h
323 20-09-2013 10:00:00 14.78333 C 10.97 g/m*3 14.78 C 6.05 km/h
324 20-09-2013 11:00:00 15.46667 C 10.95 g/m*3 15.47 C 6.99167 km/h
325 20-09-2013 12:00:00 15.625 C 10.7 g/m*3 15.63 C 8.325 km/h
Sensor: Nr:Datum:Temp:Abs-Feuchte:Windchill:Wind:
Aussen-T/F 326 20-09-2013 13:00:00 15.51667 C 10.79 g/m*3 15.52 C 5.625 km/h
327 20-09-2013 14:00:00 16.04167 C 10.8 g/m*3 16.04 C 5.48333 km/h
328 20-09-2013 15:00:00 16.275 C 10.81 g/m*3 16.27 C 5.225 km/h
329 20-09-2013 16:00:00 17.29167 C 9.91 g/m*3 17.29 C 10.88333 km/h
330 20-09-2013 17:00:00 16.925 C 10.24 g/m*3 16.93 C 6.05 km/h
331 20-09-2013 18:00:00 15.35833 C 10.9 g/m*3 15.36 C 0.66667 km/h
332 20-09-2013 19:00:00 14.5 C 10.67 g/m*3 14.5 C 2.26667 km/h
333 20-09-2013 20:00:00 13.90833 C 10.62 g/m*3 13.91 C 0.26667 km/h
334 20-09-2013 21:00:00 13.69167 C 10.46 g/m*3 13.69 C 1.06667 km/h
335 20-09-2013 22:00:00 13.65833 C 10.5 g/m*3 13.66 C 0.4 km/h
336 20-09-2013 23:00:00 12.85833 C 10.19 g/m*3 12.86 C 0.13333 km/h
337 21-09-2013 00:00:00 11.93333 C 9.85 g/m*3 11.93 C 0.13333 km/h
338 21-09-2013 01:00:00 11.24167 C 9.58 g/m*3 11.24 C 0 km/h
339 21-09-2013 02:00:00 10.65 C 9.3 g/m*3 10.65 C 0 km/h
340 21-09-2013 03:00:00 10.20833 C 9.12 g/m*3 10.21 C 0.26667 km/h
341 21-09-2013 04:00:00 9.86667 C 8.94 g/m*3 9.87 C 0.66667 km/h
342 21-09-2013 05:00:00 9.025 C 8.48 g/m*3 9.03 C 1.33333 km/h
343 21-09-2013 06:00:00 8.81667 C 8.43 g/m*3 8.82 C 2.53333 km/h
344 21-09-2013 07:00:00 8.65 C 8.36 g/m*3 7.87 C 6.16667 km/h
345 21-09-2013 08:00:00 8.63333 C 8.35 g/m*3 7.25 C 8.73333 km/h
346 21-09-2013 09:00:00 9.16667 C 8.73 g/m*3 8.1 C 7.65833 km/h
347 21-09-2013 10:00:00 10.08333 C 9.26 g/m*3 9.33 C 6.975 km/h
348 21-09-2013 11:00:00 11.49167 C 10.02 g/m*3 11.49 C 1.2 km/h
349 21-09-2013 12:00:00 13.475 C 10.74 g/m*3 13.48 C 0.4 km/h
350 21-09-2013 13:00:00 15.55 C 11.05 g/m*3 15.55 C 1.73333 km/h
Sensor: Nr:Datum:Temp:Abs-Feuchte:Windchill:Wind:
Aussen-T/F 351 21-09-2013 14:00:00 16.925 C 10.76 g/m*3 16.93 C 3.2 km/h
352 21-09-2013 15:00:00 17.48333 C 10.69 g/m*3 17.48 C 2.675 km/h
353 21-09-2013 16:00:00 17.90833 C 10.95 g/m*3 17.91 C 4.55833 km/h
354 21-09-2013 17:00:00 16.60833 C 11.61 g/m*3 16.61 C 0.66667 km/h
355 21-09-2013 18:00:00 15.14167 C 11.39 g/m*3 15.14 C 0.53333 km/h
356 21-09-2013 19:00:00 13.7 C 10.76 g/m*3 13.7 C 0.53333 km/h
357 21-09-2013 20:00:00 12.68333 C 10.29 g/m*3 12.68 C 0 km/h
358 21-09-2013 21:00:00 11.85 C 9.9 g/m*3 11.85 C 0 km/h
359 21-09-2013 22:00:00 11.2 C 9.58 g/m*3 11.2 C 0 km/h
360 21-09-2013 23:00:00 10.71667 C 9.34 g/m*3 10.72 C 0.53333 km/h
361 22-09-2013 00:00:00 10.29167 C 9.19 g/m*3 10.29 C 0 km/h
362 22-09-2013 01:00:00 9.99167 C 9.02 g/m*3 9.99 C 0 km/h
363 22-09-2013 02:00:00 9.63333 C 8.85 g/m*3 9.63 C 0 km/h
364 22-09-2013 03:00:00 9.375 C 8.76 g/m*3 9.38 C 0 km/h
365 22-09-2013 04:00:00 9.06667 C 8.59 g/m*3 9.07 C 0 km/h
366 22-09-2013 05:00:00 9.25833 C 8.69 g/m*3 9.26 C 0.13333 km/h
367 22-09-2013 06:00:00 9.325 C 8.74 g/m*3 9.32 C 0 km/h
368 22-09-2013 07:00:00 9.70833 C 9 g/m*3 9.71 C 0 km/h
369 22-09-2013 08:00:00 10.43704 C 9.45 g/m*3 10.44 C 0 km/h
370 22-09-2013 09:00:00 10.78148 C 9.62 g/m*3 10.78 C 0.05926 km/h
371 22-09-2013 10:00:00 12.5 C 10.22 g/m*3 12.5 C 1.2 km/h
372 22-09-2013 11:00:00 14.45833 C 10.82 g/m*3 14.46 C 1.86667 km/h
373 22-09-2013 12:00:00 15.95 C 11.34 g/m*3 15.95 C 2.93333 km/h
374 22-09-2013 13:00:00 17.18333 C 11.61 g/m*3 17.18 C 2.66667 km/h
375 22-09-2013 14:00:00 18.58571 C 12.11 g/m*3 18.59 C 3.88571 km/h
Sensor: Nr:Datum:Temp:Abs-Feuchte:Windchill:Wind:
Aussen-T/F 376 22-09-2013 15:00:00 18.35 C 12.56 g/m*3 18.35 C 1.06667 km/h
377 22-09-2013 16:00:00 17.91667 C 12.69 g/m*3 17.92 C 2.28333 km/h
378 22-09-2013 17:00:00 19.48333 C 12.09 g/m*3 19.48 C 6.40833 km/h
379 22-09-2013 18:00:00 18.45833 C 12.11 g/m*3 18.46 C 4.275 km/h
380 22-09-2013 19:00:00 16.14167 C 12.22 g/m*3 16.14 C 0.13333 km/h
381 22-09-2013 20:00:00 15.39167 C 12.16 g/m*3 15.39 C 0 km/h
382 22-09-2013 21:00:00 15.08333 C 12.04 g/m*3 15.08 C 0 km/h
383 22-09-2013 22:00:00 14.89167 C 11.97 g/m*3 14.89 C 0 km/h
384 22-09-2013 23:00:00 14.26667 C 11.59 g/m*3 14.27 C 0 km/h
385 23-09-2013 00:00:00 14.41667 C 11.79 g/m*3 14.42 C 0 km/h
386 23-09-2013 01:00:00 14.55833 C 11.85 g/m*3 14.56 C 0.4 km/h
387 23-09-2013 02:00:00 14.64167 C 11.9 g/m*3 14.64 C 0.26667 km/h
388 23-09-2013 03:00:00 14.68333 C 11.94 g/m*3 14.68 C 0.13333 km/h
389 23-09-2013 04:00:00 14.7 C 11.96 g/m*3 14.7 C 0.26667 km/h
390 23-09-2013 05:00:00 14.68333 C 11.98 g/m*3 14.68 C 1.33333 km/h
391 23-09-2013 06:00:00 14.725 C 12.09 g/m*3 14.73 C 0.26667 km/h
392 23-09-2013 07:00:00 14.73333 C 12.11 g/m*3 14.73 C 0.13333 km/h
393 23-09-2013 08:00:00 14.83333 C 12.13 g/m*3 14.83 C 0.66667 km/h
394 23-09-2013 09:00:00 15.36667 C 12.3 g/m*3 15.37 C 0.53333 km/h
395 23-09-2013 10:00:00 16.15 C 12.52 g/m*3 16.15 C 2.66667 km/h
396 23-09-2013 11:00:00 17.26667 C 12.33 g/m*3 17.27 C 3.73333 km/h
397 23-09-2013 12:00:00 17.83333 C 12.03 g/m*3 17.83 C 4.4 km/h
398 23-09-2013 13:00:00 18.25 C 11.91 g/m*3 18.25 C 5.74167 km/h
399 23-09-2013 14:00:00 18.29167 C 11.84 g/m*3 18.29 C 4.80833 km/h
400 23-09-2013 15:00:00 18.75 C 11.72 g/m*3 18.75 C 5.34167 km/h
Sensor: Nr:Datum:Temp:Abs-Feuchte:Windchill:Wind:
Aussen-T/F 401 23-09-2013 16:00:00 18.8 C 11.64 g/m*3 18.8 C 3.73333 km/h
402 23-09-2013 17:00:00 17.61667 C 12.27 g/m*3 17.62 C 0.26667 km/h
403 23-09-2013 18:00:00 16.50833 C 12.32 g/m*3 16.51 C 0 km/h
404 23-09-2013 19:00:00 14.83333 C 11.47 g/m*3 14.83 C 0 km/h
405 23-09-2013 20:00:00 13.63333 C 10.87 g/m*3 13.63 C 0.13333 km/h
406 23-09-2013 21:00:00 12.74167 C 10.43 g/m*3 12.74 C 0 km/h
407 23-09-2013 22:00:00 11.90833 C 10.06 g/m*3 11.91 C 0 km/h
408 23-09-2013 23:00:00 11.23333 C 9.69 g/m*3 11.23 C 0 km/h
409 24-09-2013 00:00:00 10.69167 C 9.42 g/m*3 10.69 C 0 km/h
410 24-09-2013 01:00:00 10.15 C 9.11 g/m*3 10.15 C 0 km/h
411 24-09-2013 02:00:00 9.85833 C 9.02 g/m*3 9.86 C 0 km/h
412 24-09-2013 03:00:00 9.88333 C 9.05 g/m*3 9.88 C 0.53333 km/h
413 24-09-2013 04:00:00 9.63333 C 8.9 g/m*3 9.63 C 1.2 km/h
414 24-09-2013 05:00:00 9.225 C 8.68 g/m*3 9.23 C 0.8 km/h
415 24-09-2013 06:00:00 9.15 C 8.7 g/m*3 9.15 C 0 km/h
416 24-09-2013 07:00:00 9.05833 C 8.67 g/m*3 9.06 C 0 km/h
417 24-09-2013 08:00:00 9.11667 C 8.7 g/m*3 9.12 C 2.53333 km/h
418 24-09-2013 09:00:00 9.2 C 8.75 g/m*3 9.2 C 3.06667 km/h
419 24-09-2013 10:00:00 9.86667 C 9.13 g/m*3 9.87 C 1.86667 km/h
420 24-09-2013 11:00:00 10.90833 C 9.75 g/m*3 10.91 C 1.46667 km/h
421 24-09-2013 12:00:00 12.36667 C 10.69 g/m*3 12.37 C 2 km/h
422 24-09-2013 13:00:00 15.1 C 12.04 g/m*3 15.1 C 0.66667 km/h
423 24-09-2013 14:00:00 16.79167 C 12.63 g/m*3 16.79 C 1.2 km/h
424 24-09-2013 15:00:00 17.54167 C 12.8 g/m*3 17.54 C 2.26667 km/h
425 24-09-2013 16:00:00 17.53333 C 12.88 g/m*3 17.53 C 0.13333 km/h
Sensor: Nr:Datum:Temp:Abs-Feuchte:Windchill:Wind:
Aussen-T/F 426 24-09-2013 17:00:00 16.66667 C 12.76 g/m*3 16.67 C 0.13333 km/h
427 24-09-2013 18:00:00 16.30833 C 12.63 g/m*3 16.31 C 0.13333 km/h
428 24-09-2013 19:00:00 15.225 C 12.01 g/m*3 15.23 C 0 km/h
429 24-09-2013 20:00:00 14.125 C 11.38 g/m*3 14.13 C 0 km/h
430 24-09-2013 21:00:00 13.43333 C 11.06 g/m*3 13.43 C 0 km/h
431 24-09-2013 22:00:00 12.55 C 10.53 g/m*3 12.55 C 0 km/h
432 24-09-2013 23:00:00 11.96667 C 10.21 g/m*3 11.97 C 0 km/h
433 25-09-2013 00:00:00 11.55 C 10.03 g/m*3 11.55 C 0 km/h
434 25-09-2013 01:00:00 11.05 C 9.73 g/m*3 11.05 C 0 km/h
435 25-09-2013 02:00:00 10.7 C 9.53 g/m*3 10.7 C 0 km/h
436 25-09-2013 03:00:00 10.65833 C 9.54 g/m*3 10.66 C 0 km/h
437 25-09-2013 04:00:00 10.7 C 9.61 g/m*3 10.7 C 0.13333 km/h
438 25-09-2013 05:00:00 10.35 C 9.42 g/m*3 10.35 C 0 km/h
439 25-09-2013 06:00:00 10.2 C 9.33 g/m*3 10.2 C 1.6 km/h
440 25-09-2013 07:00:00 10.09167 C 9.26 g/m*3 10.09 C 0.26667 km/h
441 25-09-2013 08:00:00 10.21667 C 9.34 g/m*3 10.22 C 1.6 km/h
442 25-09-2013 09:00:00 10.6 C 9.57 g/m*3 10.6 C 0.66667 km/h
443 25-09-2013 10:00:00 11.35833 C 10.03 g/m*3 11.36 C 0.26667 km/h
444 25-09-2013 11:00:00 12.74167 C 10.96 g/m*3 12.74 C 0 km/h
445 25-09-2013 12:00:00 14.99167 C 12.36 g/m*3 14.99 C 0.66667 km/h
446 25-09-2013 13:00:00 16.95833 C 13.3 g/m*3 16.96 C 0 km/h
447 25-09-2013 14:00:00 17.74167 C 13.85 g/m*3 17.74 C 0 km/h
448 25-09-2013 15:00:00 18.21667 C 14.17 g/m*3 18.22 C 0.13333 km/h
449 25-09-2013 16:00:00 18.84167 C 14.69 g/m*3 18.84 C 0 km/h
450 25-09-2013 17:00:00 19.66667 C 14.72 g/m*3 19.67 C 0.66667 km/h
Sensor: Nr:Datum:Temp:Abs-Feuchte:Windchill:Wind:
Aussen-T/F 451 25-09-2013 18:00:00 18.875 C 14.05 g/m*3 18.88 C 1.60833 km/h
452 25-09-2013 19:00:00 17.21667 C 13.42 g/m*3 17.22 C 1.46667 km/h
453 25-09-2013 20:00:00 17.375 C 13.21 g/m*3 17.38 C 2.80833 km/h
454 25-09-2013 21:00:00 16.775 C 13 g/m*3 16.77 C 0.66667 km/h
455 25-09-2013 22:00:00 16.05833 C 12.85 g/m*3 16.06 C 0 km/h
456 25-09-2013 23:00:00 15.14167 C 12.28 g/m*3 15.14 C 0.13333 km/h
457 26-09-2013 00:00:00 14.75 C 12.12 g/m*3 14.75 C 0 km/h
458 26-09-2013 01:00:00 14.65 C 12.05 g/m*3 14.65 C 0 km/h
459 26-09-2013 02:00:00 14.06667 C 11.65 g/m*3 14.07 C 0 km/h
460 26-09-2013 03:00:00 13.78333 C 11.54 g/m*3 13.78 C 0.4 km/h
461 26-09-2013 04:00:00 13.9 C 11.63 g/m*3 13.9 C 2.66667 km/h
462 26-09-2013 05:00:00 14.14167 C 11.8 g/m*3 14.14 C 2.93333 km/h
463 26-09-2013 06:00:00 14.2 C 11.77 g/m*3 14.2 C 1.2 km/h
464 26-09-2013 07:00:00 14.26667 C 11.79 g/m*3 14.27 C 1.46667 km/h
465 26-09-2013 08:00:00 14.6 C 12.04 g/m*3 14.6 C 1.06667 km/h
466 26-09-2013 09:00:00 15.10833 C 12.23 g/m*3 15.11 C 4.55 km/h
467 26-09-2013 10:00:00 15.875 C 11.9 g/m*3 15.88 C 6.025 km/h
468 26-09-2013 11:00:00 16.475 C 11.75 g/m*3 16.48 C 7.64167 km/h
469 26-09-2013 12:00:00 16.64167 C 11.51 g/m*3 16.64 C 7.8 km/h
470 26-09-2013 13:00:00 16.025 C 11.43 g/m*3 16.02 C 5.89167 km/h
471 26-09-2013 14:00:00 15.79167 C 11.6 g/m*3 15.79 C 6.45 km/h
472 26-09-2013 15:00:00 16.11667 C 11.62 g/m*3 16.12 C 3.06667 km/h
473 26-09-2013 16:00:00 16.68333 C 11.61 g/m*3 16.68 C 3.46667 km/h
474 26-09-2013 17:00:00 16.425 C 11.7 g/m*3 16.43 C 2.26667 km/h
475 26-09-2013 18:00:00 15.38333 C 11.39 g/m*3 15.38 C 2.26667 km/h
Sensor: Nr:Datum:Temp:Abs-Feuchte:Windchill:Wind:
Aussen-T/F 476 26-09-2013 19:00:00 13.825 C 10.8 g/m*3 13.83 C 0.93333 km/h
477 26-09-2013 20:00:00 12.55 C 10.26 g/m*3 12.55 C 0.13333 km/h
478 26-09-2013 21:00:00 11.91667 C 9.87 g/m*3 11.92 C 0 km/h
479 26-09-2013 22:00:00 11.53333 C 9.73 g/m*3 11.53 C 0.13333 km/h
480 26-09-2013 23:00:00 11.43333 C 9.69 g/m*3 11.43 C 0.53333 km/h
481 27-09-2013 00:00:00 10.7 C 9.25 g/m*3 10.7 C 0.93333 km/h
482 27-09-2013 01:00:00 9.95833 C 8.88 g/m*3 9.96 C 0.13333 km/h
483 27-09-2013 02:00:00 9.30833 C 8.54 g/m*3 9.31 C 0 km/h
484 27-09-2013 03:00:00 8.85833 C 8.33 g/m*3 8.86 C 0 km/h
485 27-09-2013 04:00:00 8.56667 C 8.23 g/m*3 8.57 C 0 km/h
486 27-09-2013 05:00:00 8.26667 C 8.07 g/m*3 8.27 C 0 km/h
487 27-09-2013 06:00:00 7.825 C 7.85 g/m*3 7.83 C 0 km/h
488 27-09-2013 07:00:00 7.39167 C 7.68 g/m*3 7.39 C 0 km/h
489 27-09-2013 08:00:00 7.94167 C 7.99 g/m*3 7.94 C 0 km/h
490 27-09-2013 09:00:00 9.11667 C 8.59 g/m*3 9.12 C 1.73333 km/h
491 27-09-2013 10:00:00 10.26667 C 8.79 g/m*3 10.27 C 2.4 km/h
492 27-09-2013 11:00:00 11.36667 C 9.03 g/m*3 11.37 C 3.33333 km/h
493 27-09-2013 12:00:00 12.84167 C 9.38 g/m*3 12.84 C 6.15833 km/h
494 27-09-2013 13:00:00 15.45 C 10.14 g/m*3 15.45 C 6.29167 km/h
495 27-09-2013 14:00:00 16.44167 C 10.52 g/m*3 16.44 C 4 km/h
496 27-09-2013 15:00:00 17.14167 C 10.36 g/m*3 17.14 C 4.13333 km/h
497 27-09-2013 16:00:00 16.8 C 10.7 g/m*3 16.8 C 1.6 km/h
498 27-09-2013 17:00:00 15.09167 C 10.66 g/m*3 15.09 C 1.6 km/h
499 27-09-2013 18:00:00 13.69167 C 10.34 g/m*3 13.69 C 0.26667 km/h
500 27-09-2013 19:00:00 12.21667 C 9.54 g/m*3 12.22 C 0.26667 km/h
Sensor: Nr:Datum:Temp:Abs-Feuchte:Windchill:Wind:
Aussen-T/F 501 27-09-2013 20:00:00 11.16667 C 9.06 g/m*3 11.17 C 0.66667 km/h
502 27-09-2013 21:00:00 10.45 C 8.69 g/m*3 10.45 C 0.26667 km/h
503 27-09-2013 22:00:00 9.85 C 8.41 g/m*3 9.85 C 0.13333 km/h
504 27-09-2013 23:00:00 9.36667 C 8.15 g/m*3 9.37 C 0.13333 km/h
505 28-09-2013 00:00:00 8.7 C 7.86 g/m*3 8.7 C 0 km/h
506 28-09-2013 01:00:00 8.16667 C 7.74 g/m*3 8.17 C 0 km/h
507 28-09-2013 02:00:00 7.55833 C 7.45 g/m*3 7.56 C 0 km/h
508 28-09-2013 03:00:00 6.96667 C 7.25 g/m*3 6.97 C 0 km/h
509 28-09-2013 04:00:00 6.45 C 7.07 g/m*3 6.45 C 0 km/h
510 28-09-2013 05:00:00 6.11667 C 6.95 g/m*3 6.12 C 0 km/h
511 28-09-2013 06:00:00 5.93333 C 6.94 g/m*3 5.93 C 0 km/h
512 28-09-2013 07:00:00 5.7 C 6.83 g/m*3 5.7 C 0 km/h
513 28-09-2013 08:00:00 5.825 C 6.89 g/m*3 5.83 C 0 km/h
514 28-09-2013 09:00:00 6.55833 C 7.23 g/m*3 6.56 C 0 km/h
515 28-09-2013 10:00:00 7.81667 C 7.82 g/m*3 7.82 C 0.26667 km/h
516 28-09-2013 11:00:00 9.74167 C 8.57 g/m*3 9.74 C 1.33333 km/h
517 28-09-2013 12:00:00 12.48333 C 9.38 g/m*3 12.48 C 4 km/h
518 28-09-2013 13:00:00 15.56667 C 10.23 g/m*3 15.57 C 5.35 km/h
519 28-09-2013 14:00:00 16.86667 C 10.78 g/m*3 16.87 C 5.75833 km/h
520 28-09-2013 15:00:00 17.4 C 11.02 g/m*3 17.4 C 5.225 km/h
521 28-09-2013 16:00:00 16.275 C 11.23 g/m*3 16.27 C 1.86667 km/h
522 28-09-2013 17:00:00 16.2 C 10.58 g/m*3 16.2 C 3.6 km/h
523 28-09-2013 18:00:00 13.92 C 10.49 g/m*3 13.92 C 0.32 km/h
524 28-09-2013 19:00:00 12.85 C 9.96 g/m*3 12.85 C 0 km/h
525 28-09-2013 20:00:00 12.16667 C 9.67 g/m*3 12.17 C 0.26667 km/h
Sensor: Nr:Datum:Temp:Abs-Feuchte:Windchill:Wind:
Aussen-T/F 526 28-09-2013 21:00:00 12.16667 C 9.32 g/m*3 12.17 C 1.06667 km/h
527 28-09-2013 22:00:00 12.21818 C 9.1 g/m*3 12.22 C 2.61818 km/h
528 28-09-2013 23:00:00 12.24167 C 8.97 g/m*3 12.24 C 1.6 km/h
529 29-09-2013 00:00:00 12.03333 C 8.85 g/m*3 12.03 C 0.93333 km/h
530 29-09-2013 01:00:00 11.60833 C 8.78 g/m*3 11.61 C 0.93333 km/h
531 29-09-2013 02:00:00 10.81667 C 8.97 g/m*3 10.82 C 1.2 km/h
532 29-09-2013 03:00:00 10.08333 C 8.94 g/m*3 10.08 C 0 km/h
533 29-09-2013 04:00:00 9.71667 C 8.78 g/m*3 9.72 C 1.86667 km/h
534 29-09-2013 05:00:00 9.425 C 8.68 g/m*3 9.43 C 0 km/h
535 29-09-2013 06:00:00 8.93333 C 8.43 g/m*3 8.93 C 1.2 km/h
536 29-09-2013 07:00:00 8.95 C 8.44 g/m*3 8.95 C 1.06667 km/h
537 29-09-2013 08:00:00 9.15 C 8.53 g/m*3 9.15 C 1.06667 km/h
538 29-09-2013 09:00:00 9.74167 C 8.74 g/m*3 9.74 C 0.8 km/h
539 29-09-2013 10:00:00 10.76667 C 8.98 g/m*3 10.77 C 2.54167 km/h
540 29-09-2013 11:00:00 11.95833 C 8.88 g/m*3 11.96 C 4.28333 km/h
541 29-09-2013 12:00:00 13.86667 C 9.16 g/m*3 13.87 C 6.85 km/h
542 29-09-2013 13:00:00 14.23333 C 9.97 g/m*3 14.23 C 4.29167 km/h
543 29-09-2013 14:00:00 16.3 C 9.9 g/m*3 16.3 C 6.96667 km/h
544 29-09-2013 15:00:00 16.48333 C 9.87 g/m*3 16.48 C 5.75833 km/h
545 29-09-2013 16:00:00 17.56667 C 9.27 g/m*3 17.57 C 6.43333 km/h
546 29-09-2013 17:00:00 16.74167 C 9.45 g/m*3 16.74 C 6.43333 km/h
547 29-09-2013 18:00:00 13.88333 C 9.85 g/m*3 13.88 C 1.46667 km/h
548 29-09-2013 19:00:00 12.03333 C 9.07 g/m*3 12.03 C 0.53333 km/h
549 29-09-2013 20:00:00 11.33333 C 8.89 g/m*3 11.33 C 0.13333 km/h
550 29-09-2013 21:00:00 10.66667 C 8.54 g/m*3 10.67 C 0.13333 km/h
Sensor: Nr:Datum:Temp:Abs-Feuchte:Windchill:Wind:
Aussen-T/F 551 29-09-2013 22:00:00 9.93333 C 8.13 g/m*3 9.93 C 0 km/h
552 29-09-2013 23:00:00 9.14167 C 7.77 g/m*3 9.14 C 0 km/h
553 30-09-2013 00:00:00 8.60833 C 7.49 g/m*3 8.61 C 0.26667 km/h
554 30-09-2013 01:00:00 8.01667 C 7.25 g/m*3 8.02 C 0 km/h
555 30-09-2013 02:00:00 7.525 C 7.16 g/m*3 7.53 C 0.26667 km/h
556 30-09-2013 03:00:00 7.03333 C 7.11 g/m*3 7.03 C 0 km/h
557 30-09-2013 04:00:00 6.74167 C 7.05 g/m*3 6.74 C 0 km/h
558 30-09-2013 05:00:00 6.33333 C 6.96 g/m*3 6.33 C 0 km/h
559 30-09-2013 06:00:00 6.125 C 6.88 g/m*3 6.13 C 0 km/h
560 30-09-2013 07:00:00 5.76667 C 6.78 g/m*3 5.77 C 0 km/h
561 30-09-2013 08:00:00 5.90833 C 6.85 g/m*3 5.91 C 0 km/h
562 30-09-2013 09:00:00 6.425 C 7.09 g/m*3 6.43 C 0 km/h
563 30-09-2013 10:00:00 7.64167 C 7.53 g/m*3 7.64 C 2.26667 km/h
564 30-09-2013 11:00:00 9.68333 C 7.93 g/m*3 9.29 C 5.35 km/h
565 30-09-2013 12:00:00 11.5 C 8.38 g/m*3 11.5 C 4.41667 km/h
566 30-09-2013 13:00:00 13.70833 C 8.73 g/m*3 13.71 C 6.3 km/h
567 30-09-2013 14:00:00 14.725 C 8.74 g/m*3 14.73 C 7.51667 km/h
568 30-09-2013 15:00:00 15.10833 C 8.84 g/m*3 15.11 C 5.1 km/h
569 30-09-2013 16:00:00 14.225 C 9.33 g/m*3 14.23 C 1.6 km/h
570 30-09-2013 17:00:00 13.08333 C 9.78 g/m*3 13.08 C 0 km/h
571 30-09-2013 18:00:00 12.15 C 9.5 g/m*3 12.15 C 0 km/h
572 30-09-2013 19:00:00 11.59167 C 9.3 g/m*3 11.59 C 0 km/h
573 30-09-2013 20:00:00 11.325 C 9.15 g/m*3 11.33 C 0 km/h
574 30-09-2013 21:00:00 11.175 C 9.14 g/m*3 11.18 C 0 km/h
575 30-09-2013 22:00:00 10.80833 C 8.98 g/m*3 10.81 C 0 km/h
Sensor: Nr:Datum:Temp:Abs-Feuchte:Windchill:Wind:
Aussen-T/F 576 30-09-2013 23:00:00 10.19167 C 8.49 g/m*3 10.19 C 0 km/h
577 01-10-2013 00:00:00 9.36667 C 8.2 g/m*3 9.37 C 0 km/h
578 01-10-2013 01:00:00 9.49167 C 8.35 g/m*3 9.49 C 0 km/h
579 01-10-2013 02:00:00 9.70833 C 8.43 g/m*3 9.71 C 0.13333 km/h
580 01-10-2013 03:00:00 9.8 C 8.33 g/m*3 9.8 C 0 km/h
581 01-10-2013 04:00:00 9.83333 C 8.17 g/m*3 9.83 C 0.26667 km/h
582 01-10-2013 05:00:00 10.19167 C 8.01 g/m*3 10.19 C 1.2 km/h
583 01-10-2013 06:00:00 9.875 C 8.09 g/m*3 9.88 C 0 km/h
584 01-10-2013 07:00:00 9.7 C 8.13 g/m*3 9.7 C 0 km/h
585 01-10-2013 08:00:00 10.1 C 7.86 g/m*3 10.1 C 2.93333 km/h
586 01-10-2013 09:00:00 10.71667 C 7.74 g/m*3 10.72 C 4.275 km/h
587 01-10-2013 10:00:00 11.30833 C 7.78 g/m*3 11.31 C 8.34167 km/h
588 01-10-2013 11:00:00 12.34167 C 8.07 g/m*3 12.34 C 9.69167 km/h
589 01-10-2013 12:00:00 13.05 C 8.29 g/m*3 13.05 C 9.825 km/h
590 01-10-2013 13:00:00 14.65833 C 8.78 g/m*3 14.66 C 8.45833 km/h
591 01-10-2013 14:00:00 15.5 C 8.97 g/m*3 15.5 C 6.15833 km/h
592 01-10-2013 15:00:00 15.975 C 9 g/m*3 15.98 C 8.19167 km/h
593 01-10-2013 16:00:00 16.525 C 9.09 g/m*3 16.52 C 6.98333 km/h
594 01-10-2013 17:00:00 14.91667 C 9.73 g/m*3 14.92 C 1.2 km/h
595 01-10-2013 18:00:00 13.01667 C 9.51 g/m*3 13.02 C 0.53333 km/h
596 01-10-2013 19:00:00 11.08333 C 8.53 g/m*3 11.08 C 1.33333 km/h
597 01-10-2013 20:00:00 10.46667 C 7.63 g/m*3 10.47 C 2 km/h
598 01-10-2013 21:00:00 9.7 C 7.19 g/m*3 9.7 C 1.06667 km/h
599 01-10-2013 22:00:00 8.31667 C 7.01 g/m*3 8.32 C 0.4 km/h
600 01-10-2013 23:00:00 7.54167 C 6.8 g/m*3 7.54 C 0.8 km/h
Sensor: Nr:Datum:Temp:Abs-Feuchte:Windchill:Wind:
Aussen-T/F 601 02-10-2013 00:00:00 8.35833 C 6.76 g/m*3 8.36 C 4.7 km/h
602 02-10-2013 01:00:00 6.85 C 6.62 g/m*3 6.85 C 0 km/h
603 02-10-2013 02:00:00 6.09167 C 6.46 g/m*3 6.09 C 0 km/h
604 02-10-2013 03:00:00 5.41667 C 6.32 g/m*3 5.42 C 0 km/h
605 02-10-2013 04:00:00 5.08333 C 6.25 g/m*3 5.08 C 0 km/h
606 02-10-2013 05:00:00 4.73333 C 6.15 g/m*3 4.73 C 0 km/h
607 02-10-2013 06:00:00 4.35833 C 6.07 g/m*3 4.36 C 0 km/h
608 02-10-2013 07:00:00 4.26667 C 6.08 g/m*3 4.27 C 0 km/h
609 02-10-2013 08:00:00 4.68333 C 6.27 g/m*3 4.68 C 0 km/h
610 02-10-2013 09:00:00 5.96667 C 6.8 g/m*3 5.97 C 0 km/h
611 02-10-2013 10:00:00 7.45833 C 7.3 g/m*3 7.46 C 1.33333 km/h
612 02-10-2013 11:00:00 9.475 C 7.69 g/m*3 9.48 C 2.93333 km/h
613 02-10-2013 12:00:00 11.60833 C 8.19 g/m*3 11.61 C 3.60833 km/h
614 02-10-2013 13:00:00 15.10833 C 8.34 g/m*3 15.11 C 7.24167 km/h
615 02-10-2013 14:00:00 16.20833 C 7.94 g/m*3 16.21 C 7.50833 km/h
616 02-10-2013 15:00:00 16.175 C 7.89 g/m*3 16.18 C 7.625 km/h
617 02-10-2013 16:00:00 16.21667 C 8.21 g/m*3 16.22 C 6.425 km/h
618 02-10-2013 17:00:00 14.01667 C 8.39 g/m*3 14.02 C 2.26667 km/h
619 02-10-2013 18:00:00 11.85833 C 8.47 g/m*3 11.86 C 1.46667 km/h
620 02-10-2013 19:00:00 10 C 7.78 g/m*3 10 C 0.93333 km/h
621 02-10-2013 20:00:00 8.99167 C 7.45 g/m*3 8.99 C 0.93333 km/h
622 02-10-2013 21:00:00 8.375 C 7.16 g/m*3 8.38 C 0 km/h
623 02-10-2013 22:00:00 7.79167 C 6.96 g/m*3 7.79 C 0.13333 km/h
624 02-10-2013 23:00:00 7.26667 C 6.77 g/m*3 7.27 C 0 km/h
625 03-10-2013 00:00:00 6.69167 C 6.57 g/m*3 6.69 C 0.13333 km/h
Sensor: Nr:Datum:Temp:Abs-Feuchte:Windchill:Wind:
Aussen-T/F 626 03-10-2013 01:00:00 6.24167 C 6.39 g/m*3 6.24 C 0 km/h
627 03-10-2013 02:00:00 5.74167 C 6.27 g/m*3 5.74 C 0 km/h
628 03-10-2013 03:00:00 5.05833 C 6.11 g/m*3 5.06 C 0 km/h
629 03-10-2013 04:00:00 4.50833 C 5.97 g/m*3 4.51 C 0 km/h
630 03-10-2013 05:00:00 4.19167 C 5.92 g/m*3 4.19 C 0 km/h
631 03-10-2013 06:00:00 4.01667 C 5.8 g/m*3 4.02 C 0 km/h
632 03-10-2013 07:00:00 3.675 C 5.7 g/m*3 3.68 C 0 km/h
633 03-10-2013 08:00:00 4.10833 C 5.85 g/m*3 4.11 C 0 km/h
634 03-10-2013 09:00:00 5.175 C 6.21 g/m*3 5.18 C 0 km/h
635 03-10-2013 10:00:00 6.54167 C 6.64 g/m*3 6.54 C 0.4 km/h
636 03-10-2013 11:00:00 8.91667 C 6.89 g/m*3 8.92 C 4.14167 km/h
637 03-10-2013 12:00:00 11.31667 C 7.07 g/m*3 11.32 C 5.625 km/h
638 03-10-2013 13:00:00 13.99167 C 7.44 g/m*3 13.99 C 6.70833 km/h
639 03-10-2013 14:00:00 15.13333 C 7.5 g/m*3 15.13 C 6.575 km/h
640 03-10-2013 15:00:00 15.50833 C 7.91 g/m*3 15.51 C 6.575 km/h
641 03-10-2013 16:00:00 15.35833 C 8.22 g/m*3 15.36 C 4.675 km/h
642 03-10-2013 17:00:00 13.075 C 8.92 g/m*3 13.08 C 1.2 km/h
643 03-10-2013 18:00:00 12.23333 C 8.62 g/m*3 12.23 C 1.06667 km/h
644 03-10-2013 19:00:00 10.95833 C 8.11 g/m*3 10.96 C 0.4 km/h
645 03-10-2013 20:00:00 10.6 C 7.95 g/m*3 10.6 C 0.26667 km/h
646 03-10-2013 21:00:00 10.1 C 7.75 g/m*3 10.1 C 0.26667 km/h
647 03-10-2013 22:00:00 9.61667 C 7.53 g/m*3 9.62 C 0 km/h
648 03-10-2013 23:00:00 9.51667 C 7.46 g/m*3 9.52 C 0.13333 km/h
649 04-10-2013 00:00:00 9.26667 C 7.38 g/m*3 9.27 C 0.26667 km/h
650 04-10-2013 01:00:00 9.29167 C 7.34 g/m*3 9.29 C 0 km/h
Sensor: Nr:Datum:Temp:Abs-Feuchte:Windchill:Wind:
Aussen-T/F 651 04-10-2013 02:00:00 9.46667 C 7.49 g/m*3 9.47 C 0 km/h
652 04-10-2013 03:00:00 9.68333 C 7.59 g/m*3 9.68 C 0 km/h
653 04-10-2013 04:00:00 9.875 C 7.73 g/m*3 9.88 C 0 km/h
654 04-10-2013 05:00:00 9.31667 C 8.29 g/m*3 9.32 C 0 km/h
655 04-10-2013 06:00:00 8.85 C 8.29 g/m*3 8.85 C 0 km/h
656 04-10-2013 07:00:00 8.4 C 8.1 g/m*3 8.4 C 0 km/h
657 04-10-2013 08:00:00 8.49167 C 8.2 g/m*3 8.49 C 0 km/h
658 04-10-2013 09:00:00 9.33333 C 8.74 g/m*3 9.33 C 0 km/h
659 04-10-2013 10:00:00 10.39167 C 9.19 g/m*3 10.39 C 0 km/h
660 04-10-2013 11:00:00 10.49167 C 9.21 g/m*3 10.49 C 0 km/h
661 04-10-2013 12:00:00 11.775 C 9.79 g/m*3 11.78 C 0 km/h
662 04-10-2013 13:00:00 12.975 C 10.32 g/m*3 12.98 C 0 km/h
663 04-10-2013 14:00:00 13.475 C 10.72 g/m*3 13.48 C 0 km/h
664 04-10-2013 15:00:00 14 C 11.08 g/m*3 14 C 0 km/h
665 04-10-2013 16:00:00 14.13333 C 11.36 g/m*3 14.13 C 0 km/h
666 04-10-2013 17:00:00 14.30833 C 11.59 g/m*3 14.31 C 0 km/h
667 04-10-2013 18:00:00 14.325 C 11.34 g/m*3 14.33 C 3.2 km/h
668 04-10-2013 19:00:00 13.65 C 10.99 g/m*3 13.65 C 1.06667 km/h
669 04-10-2013 20:00:00 13.09167 C 10.74 g/m*3 13.09 C 0.4 km/h
670 04-10-2013 21:00:00 12.73333 C 10.6 g/m*3 12.73 C 0.13333 km/h
671 04-10-2013 22:00:00 12.46667 C 10.46 g/m*3 12.47 C 0 km/h
672 04-10-2013 23:00:00 12.36667 C 10.42 g/m*3 12.37 C 0 km/h
673 05-10-2013 00:00:00 12.21667 C 10.37 g/m*3 12.22 C 0 km/h
674 05-10-2013 01:00:00 12.25833 C 10.4 g/m*3 12.26 C 0 km/h
675 05-10-2013 02:00:00 12.28333 C 10.5 g/m*3 12.28 C 0 km/h
Sensor: Nr:Datum:Temp:Abs-Feuchte:Windchill:Wind:
Aussen-T/F 676 05-10-2013 03:00:00 12.1 C 10.4 g/m*3 12.1 C 0.13333 km/h
677 05-10-2013 04:00:00 11.64167 C 10.11 g/m*3 11.64 C 0.4 km/h
678 05-10-2013 05:00:00 11.58333 C 10.07 g/m*3 11.58 C 0.13333 km/h
679 05-10-2013 06:00:00 11.55 C 10.05 g/m*3 11.55 C 0 km/h
680 05-10-2013 07:00:00 11.53333 C 10.12 g/m*3 11.53 C 0.4 km/h
681 05-10-2013 08:00:00 11.50833 C 10.07 g/m*3 11.51 C 0 km/h
682 05-10-2013 09:00:00 11.60833 C 10.18 g/m*3 11.61 C 0.13333 km/h
683 05-10-2013 10:00:00 11.71667 C 10.25 g/m*3 11.72 C 0.13333 km/h
684 05-10-2013 11:00:00 11.75833 C 10.29 g/m*3 11.76 C 0.4 km/h
685 05-10-2013 12:00:00 11.99167 C 10.44 g/m*3 11.99 C 0 km/h
686 05-10-2013 13:00:00 12.30833 C 10.64 g/m*3 12.31 C 0 km/h
687 05-10-2013 14:00:00 12.43333 C 10.67 g/m*3 12.43 C 0.13333 km/h
688 05-10-2013 15:00:00 12.86667 C 11.02 g/m*3 12.87 C 0.13333 km/h
689 05-10-2013 16:00:00 13.60833 C 11.54 g/m*3 13.61 C 0.13333 km/h
690 05-10-2013 17:00:00 13.8 C 11.68 g/m*3 13.8 C 0.4 km/h
691 05-10-2013 18:00:00 14 C 11.82 g/m*3 14 C 0.13333 km/h
692 05-10-2013 19:00:00 14.06667 C 11.87 g/m*3 14.07 C 0.4 km/h
693 05-10-2013 20:00:00 14.14167 C 11.92 g/m*3 14.14 C 0.26667 km/h
694 05-10-2013 21:00:00 14.625 C 12.28 g/m*3 14.63 C 3.08333 km/h
695 05-10-2013 22:00:00 14.46667 C 12.16 g/m*3 14.47 C 0 km/h
696 05-10-2013 23:00:00 14.63333 C 12.29 g/m*3 14.63 C 1.06667 km/h
697 06-10-2013 00:00:00 14.74167 C 12.37 g/m*3 14.74 C 5.225 km/h
698 06-10-2013 01:00:00 14.38333 C 12.1 g/m*3 14.38 C 2.4 km/h
699 06-10-2013 02:00:00 14.06667 C 11.77 g/m*3 14.07 C 4.29167 km/h
700 06-10-2013 03:00:00 13.675 C 11.31 g/m*3 13.68 C 4.425 km/h
Sensor: Nr:Datum:Temp:Abs-Feuchte:Windchill:Wind:
Aussen-T/F 701 06-10-2013 04:00:00 13.11667 C 10.9 g/m*3 13.12 C 1.86667 km/h
702 06-10-2013 05:00:00 12.75833 C 10.83 g/m*3 12.76 C 0 km/h
703 06-10-2013 06:00:00 12.45 C 10.63 g/m*3 12.45 C 0.8 km/h
704 06-10-2013 07:00:00 12.25 C 10.5 g/m*3 12.25 C 0.26667 km/h
705 06-10-2013 08:00:00 12.025 C 10.37 g/m*3 12.03 C 1.20833 km/h
706 06-10-2013 09:00:00 12.35833 C 10.54 g/m*3 12.36 C 3.34167 km/h
707 06-10-2013 10:00:00 13.04167 C 10.61 g/m*3 13.04 C 2.93333 km/h
708 06-10-2013 11:00:00 13.88333 C 10.73 g/m*3 13.88 C 2.93333 km/h
709 06-10-2013 12:00:00 14.725 C 10.98 g/m*3 14.73 C 3.06667 km/h
710 06-10-2013 13:00:00 15.19167 C 11.02 g/m*3 15.19 C 4.13333 km/h
711 06-10-2013 14:00:00 15.26667 C 10.93 g/m*3 15.27 C 4.95 km/h
712 06-10-2013 15:00:00 15.375 C 10.77 g/m*3 15.38 C 6.83333 km/h
713 06-10-2013 16:00:00 15.46667 C 10.59 g/m*3 15.47 C 4.28333 km/h
714 06-10-2013 17:00:00 14.8 C 10.84 g/m*3 14.8 C 1.2 km/h
715 06-10-2013 18:00:00 13.38333 C 10.64 g/m*3 13.38 C 0.53333 km/h
716 06-10-2013 19:00:00 12.84167 C 10.59 g/m*3 12.84 C 0 km/h
717 06-10-2013 20:00:00 12.79167 C 10.64 g/m*3 12.79 C 0 km/h
718 06-10-2013 21:00:00 12.7 C 10.68 g/m*3 12.7 C 0 km/h
719 06-10-2013 22:00:00 12.6 C 10.62 g/m*3 12.6 C 0 km/h
720 06-10-2013 23:00:00 12.58333 C 10.61 g/m*3 12.58 C 0 km/h
721 07-10-2013 00:00:00 12.36667 C 10.49 g/m*3 12.37 C 0 km/h
722 07-10-2013 01:00:00 12.175 C 10.34 g/m*3 12.18 C 0 km/h
723 07-10-2013 02:00:00 12.2 C 10.39 g/m*3 12.2 C 0 km/h
724 07-10-2013 03:00:00 12.125 C 10.42 g/m*3 12.13 C 0 km/h
725 07-10-2013 04:00:00 12.05 C 10.37 g/m*3 12.05 C 0 km/h
Sensor: Nr:Datum:Temp:Abs-Feuchte:Windchill:Wind:
Aussen-T/F 726 07-10-2013 05:00:00 11.9 C 10.27 g/m*3 11.9 C 0 km/h
727 07-10-2013 06:00:00 11.9 C 10.27 g/m*3 11.9 C 0 km/h
728 07-10-2013 07:00:00 11.80833 C 10.21 g/m*3 11.81 C 0 km/h
729 07-10-2013 08:00:00 11.85 C 10.24 g/m*3 11.85 C 0 km/h
730 07-10-2013 09:00:00 12.24167 C 10.42 g/m*3 12.24 C 0.66667 km/h
731 07-10-2013 10:00:00 13.06667 C 10.51 g/m*3 13.07 C 1.6 km/h
732 07-10-2013 11:00:00 13.79167 C 10.85 g/m*3 13.79 C 0.26667 km/h
733 07-10-2013 12:00:00 14.65 C 11.38 g/m*3 14.65 C 2.13333 km/h
734 07-10-2013 13:00:00 16.3 C 11.69 g/m*3 16.3 C 1.46667 km/h
735 07-10-2013 14:00:00 15.86667 C 11.98 g/m*3 15.87 C 0.26667 km/h
736 07-10-2013 15:00:00 14.90833 C 11.88 g/m*3 14.91 C 0 km/h
737 07-10-2013 16:00:00 14.95833 C 12.01 g/m*3 14.96 C 0 km/h
738 07-10-2013 17:00:00 15.01667 C 12 g/m*3 15.02 C 0 km/h
739 07-10-2013 18:00:00 14.075 C 11.45 g/m*3 14.08 C 0 km/h
740 07-10-2013 19:00:00 13.125 C 11.01 g/m*3 13.13 C 0 km/h
741 07-10-2013 20:00:00 12.8 C 10.77 g/m*3 12.8 C 0 km/h
742 07-10-2013 21:00:00 12.61667 C 10.74 g/m*3 12.62 C 0 km/h
743 07-10-2013 22:00:00 12.675 C 10.78 g/m*3 12.68 C 0 km/h
744 07-10-2013 23:00:00 12.73333 C 10.82 g/m*3 12.73 C 0 km/h
745 08-10-2013 00:00:00 12.7 C 10.8 g/m*3 12.7 C 0 km/h
746 08-10-2013 01:00:00 12.7 C 10.8 g/m*3 12.7 C 0 km/h
747 08-10-2013 02:00:00 12.675 C 10.78 g/m*3 12.68 C 0 km/h
748 08-10-2013 03:00:00 12.6 C 10.73 g/m*3 12.6 C 0 km/h
749 08-10-2013 04:00:00 12.525 C 10.69 g/m*3 12.53 C 0 km/h
750 08-10-2013 05:00:00 12.39949 C 10.6 g/m*3 12.4 C 0 km/h
Sensor: Nr:Datum:Temp:Abs-Feuchte:Windchill:Wind:
Aussen-T/F 751 08-10-2013 06:00:00 12.3 C 10.64 g/m*3 12.3 C 0 km/h
752 08-10-2013 07:00:00 12.3 C 10.64 g/m*3 12.3 C 0 km/h
753 08-10-2013 08:00:00 12.43333 C 10.73 g/m*3 12.43 C 0 km/h
754 08-10-2013 09:00:00 12.70833 C 10.91 g/m*3 12.71 C 0 km/h
755 08-10-2013 10:00:00 13.09167 C 11.13 g/m*3 13.09 C 0 km/h
756 08-10-2013 11:00:00 13.91667 C 11.37 g/m*3 13.92 C 0 km/h
757 08-10-2013 12:00:00 14.71667 C 11.55 g/m*3 14.72 C 0 km/h
758 08-10-2013 13:00:00 15.31667 C 11.83 g/m*3 15.32 C 0 km/h
759 08-10-2013 14:00:00 15.64167 C 11.97 g/m*3 15.64 C 0 km/h
760 08-10-2013 15:00:00 15.96667 C 12.17 g/m*3 15.97 C 0 km/h
761 08-10-2013 16:00:00 15.38333 C 11.95 g/m*3 15.38 C 0 km/h
762 08-10-2013 17:00:00 14.6 C 11.7 g/m*3 14.6 C 0 km/h
763 08-10-2013 18:00:00 14.05 C 11.42 g/m*3 14.05 C 0 km/h
764 08-10-2013 19:00:00 13.68333 C 11.26 g/m*3 13.68 C 0 km/h
765 08-10-2013 20:00:00 13.40833 C 11.16 g/m*3 13.41 C 0 km/h
766 08-10-2013 21:00:00 13.25833 C 11.06 g/m*3 13.26 C 0 km/h
767 08-10-2013 22:00:00 13.20833 C 10.97 g/m*3 13.21 C 0 km/h
768 08-10-2013 23:00:00 13.2 C 10.97 g/m*3 13.2 C 0 km/h
769 09-10-2013 00:00:00 13.16667 C 10.96 g/m*3 13.17 C 0 km/h
770 09-10-2013 01:00:00 12.8 C 10.73 g/m*3 12.8 C 0 km/h
771 09-10-2013 02:00:00 12.55 C 10.59 g/m*3 12.55 C 0 km/h
772 09-10-2013 03:00:00 12.64167 C 10.65 g/m*3 12.64 C 0 km/h
773 09-10-2013 04:00:00 12.6 C 10.63 g/m*3 12.6 C 0 km/h
774 09-10-2013 05:00:00 12.6 C 10.68 g/m*3 12.6 C 0 km/h
775 09-10-2013 06:00:00 12.63333 C 10.65 g/m*3 12.63 C 1.2 km/h
Sensor: Nr:Datum:Temp:Abs-Feuchte:Windchill:Wind:
Aussen-T/F 776 09-10-2013 07:00:00 12.74167 C 10.61 g/m*3 12.74 C 0.53333 km/h
777 09-10-2013 08:00:00 12.79167 C 10.67 g/m*3 12.79 C 0.13333 km/h
778 09-10-2013 09:00:00 13.25 C 10.84 g/m*3 13.25 C 1.2 km/h
779 09-10-2013 10:00:00 14.30833 C 11.11 g/m*3 14.31 C 3.46667 km/h
780 09-10-2013 11:00:00 14.98333 C 11.17 g/m*3 14.98 C 4.53333 km/h
781 09-10-2013 12:00:00 16.2 C 11.45 g/m*3 16.2 C 5.225 km/h
782 09-10-2013 13:00:00 17.575 C 11.52 g/m*3 17.58 C 9.01667 km/h
783 09-10-2013 14:00:00 17.2 C 11.68 g/m*3 17.2 C 6.725 km/h
784 09-10-2013 15:00:00 15.525 C 12.07 g/m*3 15.53 C 0 km/h
785 09-10-2013 16:00:00 15.53333 C 11.57 g/m*3 15.53 C 6.44167 km/h
786 09-10-2013 17:00:00 15.875 C 11.14 g/m*3 15.88 C 11.95833 km/h
787 09-10-2013 18:00:00 14.85 C 11.11 g/m*3 14.85 C 4.7 km/h
788 09-10-2013 19:00:00 14.13333 C 11.22 g/m*3 14.13 C 5.34167 km/h
789 09-10-2013 20:00:00 12.85 C 10.64 g/m*3 12.85 C 2.54167 km/h
790 09-10-2013 21:00:00 12.13333 C 10.32 g/m*3 12.13 C 0 km/h
791 09-10-2013 22:00:00 11.91667 C 10.27 g/m*3 11.92 C 0.66667 km/h
792 09-10-2013 23:00:00 11.94167 C 10.21 g/m*3 11.94 C 2.26667 km/h
793 10-10-2013 00:00:00 11.95833 C 10.04 g/m*3 11.96 C 2.94167 km/h
794 10-10-2013 01:00:00 11.60833 C 9.91 g/m*3 11.61 C 0.53333 km/h
795 10-10-2013 02:00:00 11.61667 C 9.98 g/m*3 11.62 C 3.21667 km/h
796 10-10-2013 03:00:00 10.91667 C 9.2 g/m*3 9.43 C 11.95 km/h
797 10-10-2013 04:00:00 9.64167 C 8.46 g/m*3 9.12 C 5.775 km/h
798 10-10-2013 05:00:00 8.8 C 8.19 g/m*3 8.8 C 4.825 km/h
799 10-10-2013 06:00:00 8.23333 C 7.88 g/m*3 8.23 C 1.73333 km/h
800 10-10-2013 07:00:00 7.78333 C 7.84 g/m*3 7.78 C 0 km/h
Sensor: Nr:Datum:Temp:Abs-Feuchte:Windchill:Wind:
Aussen-T/F 801 10-10-2013 08:00:00 7.3 C 7.66 g/m*3 7.3 C 0.26667 km/h
802 10-10-2013 09:00:00 7.25 C 7.64 g/m*3 7.25 C 0 km/h
803 10-10-2013 10:00:00 7.06667 C 7.55 g/m*3 7.07 C 0.53333 km/h
804 10-10-2013 11:00:00 7.95833 C 8.03 g/m*3 7.96 C 1.6 km/h
805 10-10-2013 12:00:00 8.94167 C 8.04 g/m*3 8.4 C 5.5 km/h
806 10-10-2013 13:00:00 9.86667 C 8 g/m*3 8.79 C 8.31667 km/h
807 10-10-2013 14:00:00 9.53333 C 8.04 g/m*3 9.53 C 3.75833 km/h
808 10-10-2013 15:00:00 9 C 8.28 g/m*3 9 C 1.06667 km/h
809 10-10-2013 16:00:00 8.2 C 7.85 g/m*3 8.2 C 1.33333 km/h
810 10-10-2013 17:00:00 8.10833 C 7.88 g/m*3 8.11 C 0.53333 km/h
811 10-10-2013 18:00:00 7.9 C 7.87 g/m*3 7.9 C 0 km/h
812 10-10-2013 19:00:00 7.5 C 7.72 g/m*3 7.5 C 0.8 km/h
813 10-10-2013 20:00:00 6.73333 C 7.37 g/m*3 6.73 C 0 km/h
814 10-10-2013 21:00:00 6.1 C 7.09 g/m*3 6.1 C 0.66667 km/h
815 10-10-2013 22:00:00 5.59167 C 6.85 g/m*3 5.59 C 0 km/h
816 10-10-2013 23:00:00 5.49167 C 6.85 g/m*3 5.49 C 0 km/h
817 11-10-2013 00:00:00 5.80833 C 7.02 g/m*3 5.81 C 0.26667 km/h
818 11-10-2013 01:00:00 6.04167 C 7.13 g/m*3 6.04 C 1.33333 km/h
819 11-10-2013 02:00:00 6.24167 C 7.23 g/m*3 6.24 C 0 km/h
820 11-10-2013 03:00:00 6.05 C 7.14 g/m*3 6.05 C 0.13333 km/h
821 11-10-2013 04:00:00 5.975 C 7.1 g/m*3 5.98 C 1.33333 km/h
822 11-10-2013 05:00:00 6.175 C 7.2 g/m*3 6.18 C 0 km/h
823 11-10-2013 06:00:00 6.26667 C 7.24 g/m*3 6.27 C 0 km/h
824 11-10-2013 07:00:00 6.40833 C 7.31 g/m*3 6.41 C 0 km/h
825 11-10-2013 08:00:00 6.63333 C 7.41 g/m*3 6.63 C 0 km/h
Sensor: Nr:Datum:Temp:Abs-Feuchte:Windchill:Wind:
Aussen-T/F 826 11-10-2013 09:00:00 6.91667 C 7.55 g/m*3 6.92 C 0 km/h
827 11-10-2013 10:00:00 7.2 C 7.69 g/m*3 7.2 C 0 km/h
828 11-10-2013 11:00:00 7.45556 C 7.74 g/m*3 7.46 C 0 km/h
829 11-10-2013 12:00:00 8.025 C 7.95 g/m*3 8.03 C 0.4 km/h
830 11-10-2013 13:00:00 8.14167 C 7.97 g/m*3 8.14 C 1.73333 km/h
831 11-10-2013 14:00:00 8.29167 C 7.99 g/m*3 8.29 C 0.13333 km/h
832 11-10-2013 15:00:00 8.14167 C 7.91 g/m*3 8.14 C 0 km/h
833 11-10-2013 16:00:00 7.925 C 7.89 g/m*3 7.93 C 0 km/h
834 11-10-2013 17:00:00 7.74167 C 7.83 g/m*3 7.74 C 0 km/h
835 11-10-2013 18:00:00 7.63333 C 7.83 g/m*3 7.63 C 0 km/h
836 11-10-2013 19:00:00 6.89167 C 7.44 g/m*3 6.89 C 0 km/h
837 11-10-2013 20:00:00 6.55833 C 7.3 g/m*3 6.56 C 0 km/h
838 11-10-2013 21:00:00 6.59167 C 7.36 g/m*3 6.59 C 0 km/h
839 11-10-2013 22:00:00 6.1 C 7.1 g/m*3 6.1 C 0 km/h
840 11-10-2013 23:00:00 5.525 C 6.82 g/m*3 5.53 C 0 km/h
841 12-10-2013 00:00:00 4.80833 C 6.54 g/m*3 4.81 C 0 km/h
842 12-10-2013 01:00:00 4.475 C 6.41 g/m*3 4.47 C 0 km/h
843 12-10-2013 02:00:00 4.25 C 6.34 g/m*3 4.25 C 0 km/h
844 12-10-2013 03:00:00 4.775 C 6.56 g/m*3 4.78 C 0 km/h
845 12-10-2013 04:00:00 5.16667 C 6.73 g/m*3 5.17 C 0 km/h
846 12-10-2013 05:00:00 5.58333 C 6.92 g/m*3 5.58 C 1.33333 km/h
847 12-10-2013 06:00:00 5.34167 C 6.81 g/m*3 5.34 C 1.475 km/h
848 12-10-2013 07:00:00 5.375 C 6.83 g/m*3 5.38 C 1.06667 km/h
849 12-10-2013 08:00:00 5.41667 C 6.85 g/m*3 5.42 C 0.8 km/h
850 12-10-2013 09:00:00 5.56667 C 6.85 g/m*3 5.57 C 2.8 km/h
Sensor: Nr:Datum:Temp:Abs-Feuchte:Windchill:Wind:
Aussen-T/F 851 12-10-2013 10:00:00 5.96667 C 6.93 g/m*3 5.97 C 2.94167 km/h
852 12-10-2013 11:00:00 6.61667 C 6.97 g/m*3 6.62 C 3.34167 km/h
853 12-10-2013 12:00:00 7.26667 C 7.09 g/m*3 7.27 C 2.93333 km/h
854 12-10-2013 13:00:00 7.69167 C 7.29 g/m*3 7.69 C 0.53333 km/h
855 12-10-2013 14:00:00 7.99167 C 7.33 g/m*3 7.99 C 2.66667 km/h
856 12-10-2013 15:00:00 8.31667 C 7.54 g/m*3 8.32 C 0.8 km/h
857 12-10-2013 16:00:00 8.25 C 7.78 g/m*3 8.25 C 0 km/h
858 12-10-2013 17:00:00 8.23333 C 7.76 g/m*3 8.23 C 0.13333 km/h
859 12-10-2013 18:00:00 8.00833 C 7.84 g/m*3 8.01 C 0 km/h
860 12-10-2013 19:00:00 7.45 C 7.65 g/m*3 7.45 C 0 km/h
861 12-10-2013 20:00:00 6.85 C 7.37 g/m*3 6.85 C 0 km/h
862 12-10-2013 21:00:00 6.44167 C 7.17 g/m*3 6.44 C 0.26667 km/h
863 12-10-2013 22:00:00 6.18333 C 7.05 g/m*3 6.18 C 0 km/h
864 12-10-2013 23:00:00 5.46667 C 6.77 g/m*3 5.47 C 0 km/h
865 13-10-2013 00:00:00 5.125 C 6.65 g/m*3 5.13 C 0 km/h
866 13-10-2013 01:00:00 4.58333 C 6.41 g/m*3 4.58 C 0 km/h
867 13-10-2013 02:00:00 4.99167 C 6.64 g/m*3 4.99 C 0.26667 km/h
868 13-10-2013 03:00:00 6.01667 C 7.11 g/m*3 6.02 C 1.73333 km/h
869 13-10-2013 04:00:00 6.3 C 7.16 g/m*3 6.3 C 0.53333 km/h
870 13-10-2013 05:00:00 6.33333 C 7.08 g/m*3 6.33 C 0.26667 km/h
871 13-10-2013 06:00:00 6.11667 C 6.95 g/m*3 6.12 C 0.4 km/h
872 13-10-2013 07:00:00 6.21667 C 6.85 g/m*3 6.22 C 1.33333 km/h
873 13-10-2013 08:00:00 6.70833 C 6.9 g/m*3 6.71 C 2.4 km/h
874 13-10-2013 09:00:00 7.40833 C 7.25 g/m*3 7.41 C 1.6 km/h
875 13-10-2013 10:00:00 8.3 C 7.51 g/m*3 8.3 C 0.66667 km/h
Sensor: Nr:Datum:Temp:Abs-Feuchte:Windchill:Wind:
Aussen-T/F 876 13-10-2013 11:00:00 9.225 C 7.65 g/m*3 9.23 C 3.20833 km/h
877 13-10-2013 12:00:00 9.775 C 7.6 g/m*3 9.78 C 4.675 km/h
878 13-10-2013 13:00:00 10.725 C 7.49 g/m*3 9.85 C 8.05833 km/h
879 13-10-2013 14:00:00 11.11667 C 7.51 g/m*3 11.12 C 8.6 km/h
880 13-10-2013 15:00:00 10.75 C 7.33 g/m*3 10.26 C 6.30833 km/h
881 13-10-2013 16:00:00 10.48333 C 7.58 g/m*3 10.48 C 3.06667 km/h
882 13-10-2013 17:00:00 10.03333 C 8.01 g/m*3 10.03 C 1.33333 km/h
883 13-10-2013 18:00:00 8.58333 C 7.9 g/m*3 8.58 C 0 km/h
884 13-10-2013 19:00:00 7.8 C 7.62 g/m*3 7.8 C 0 km/h
885 13-10-2013 20:00:00 7.41667 C 7.5 g/m*3 7.42 C 0.4 km/h
886 13-10-2013 21:00:00 7.43333 C 7.5 g/m*3 7.43 C 0.4 km/h
887 13-10-2013 22:00:00 6.88333 C 7.27 g/m*3 6.88 C 0.53333 km/h
888 13-10-2013 23:00:00 6.275 C 7.05 g/m*3 6.28 C 0.4 km/h
889 14-10-2013 00:00:00 6.43333 C 7.17 g/m*3 6.43 C 2.8 km/h
890 14-10-2013 01:00:00 7.24167 C 7.56 g/m*3 7.24 C 0.93333 km/h
891 14-10-2013 02:00:00 8.03333 C 7.68 g/m*3 8.03 C 2.4 km/h
892 14-10-2013 03:00:00 8.49167 C 7.64 g/m*3 8.49 C 2 km/h
893 14-10-2013 04:00:00 8.03333 C 7.53 g/m*3 8.03 C 1.06667 km/h
894 14-10-2013 05:00:00 7.1 C 7.34 g/m*3 7.1 C 0.8 km/h
895 14-10-2013 06:00:00 6.70833 C 7.3 g/m*3 6.71 C 0 km/h
896 14-10-2013 07:00:00 6.7 C 7.37 g/m*3 6.7 C 0 km/h
897 14-10-2013 08:00:00 6.6 C 7.31 g/m*3 6.6 C 0 km/h
898 14-10-2013 09:00:00 6.79167 C 7.41 g/m*3 6.79 C 0.13333 km/h
899 14-10-2013 10:00:00 7.7 C 7.87 g/m*3 7.7 C 0.4 km/h
900 14-10-2013 11:00:00 9.10833 C 8.57 g/m*3 9.11 C 0.4 km/h
Sensor: Nr:Datum:Temp:Abs-Feuchte:Windchill:Wind:
Aussen-T/F 901 14-10-2013 12:00:00 11.15 C 9.2 g/m*3 11.15 C 1.875 km/h
902 14-10-2013 13:00:00 13.31667 C 9.24 g/m*3 13.32 C 3.875 km/h
903 14-10-2013 14:00:00 13.75833 C 9.6 g/m*3 13.76 C 2.8 km/h
904 14-10-2013 15:00:00 14.32727 C 9.83 g/m*3 14.33 C 3.78182 km/h
905 14-10-2013 16:00:00 13.65 C 9.95 g/m*3 13.65 C 1.28 km/h
906 14-10-2013 17:00:00 12.80833 C 10.1 g/m*3 12.81 C 2.26667 km/h
907 14-10-2013 18:00:00 12.475 C 10.01 g/m*3 12.48 C 1.6 km/h
908 14-10-2013 19:00:00 12.15 C 9.98 g/m*3 12.15 C 1.73333 km/h
909 14-10-2013 20:00:00 11.98333 C 10.03 g/m*3 11.98 C 1.06667 km/h
910 14-10-2013 21:00:00 11.775 C 10.13 g/m*3 11.78 C 0.8 km/h
911 14-10-2013 22:00:00 11.82857 C 10.23 g/m*3 11.83 C 0.68571 km/h
912 14-10-2013 23:00:00 11.82857 C 10.3 g/m*3 11.83 C 0.68571 km/h
913 15-10-2013 00:00:00 11.425 C 10.01 g/m*3 11.43 C 0.53333 km/h
914 15-10-2013 01:00:00 11.30833 C 10 g/m*3 11.31 C 0.66667 km/h
915 15-10-2013 02:00:00 11.31667 C 9.95 g/m*3 11.32 C 1.06667 km/h
916 15-10-2013 03:00:00 10.19167 C 9.23 g/m*3 10.19 C 0.26667 km/h
917 15-10-2013 04:00:00 10.175 C 9.28 g/m*3 10.18 C 0.26667 km/h
918 15-10-2013 05:00:00 10.08333 C 9.26 g/m*3 10.08 C 0 km/h
919 15-10-2013 06:00:00 10.00833 C 9.21 g/m*3 10.01 C 1.33333 km/h
920 15-10-2013 07:00:00 9.83333 C 9.09 g/m*3 9.83 C 0.94167 km/h
921 15-10-2013 08:00:00 9.60833 C 8.85 g/m*3 9.28 C 5.1 km/h
922 15-10-2013 09:00:00 9.875 C 8.63 g/m*3 9.21 C 6.45 km/h
923 15-10-2013 10:00:00 10.31667 C 8.78 g/m*3 9.69 C 6.58333 km/h
924 15-10-2013 11:00:00 11.23333 C 9.2 g/m*3 11.23 C 2.675 km/h
925 15-10-2013 12:00:00 11.525 C 9.04 g/m*3 11.53 C 7.8375 km/h
Sensor: Nr:Datum:Temp:Abs-Feuchte:Windchill:Wind:
Aussen-T/F 926 15-10-2013 13:00:00 11.675 C 9.11 g/m*3 11.68 C 7.24167 km/h
927 15-10-2013 14:00:00 12.025 C 9.08 g/m*3 12.03 C 11.125 km/h
928 15-10-2013 15:00:00 10.175 C 8.8 g/m*3 10.18 C 3.34167 km/h
929 15-10-2013 16:00:00 11.06667 C 9.23 g/m*3 11.07 C 5.64167 km/h
930 15-10-2013 17:00:00 11.5 C 9.07 g/m*3 11.5 C 5.35833 km/h
931 15-10-2013 18:00:00 9.99167 C 8.84 g/m*3 9.99 C 1.06667 km/h
932 15-10-2013 19:00:00 9.575 C 8.77 g/m*3 9.57 C 1.06667 km/h
933 15-10-2013 20:00:00 9.375 C 8.68 g/m*3 9.38 C 0.4 km/h
934 15-10-2013 21:00:00 9.45 C 8.73 g/m*3 9.45 C 0.53333 km/h
935 15-10-2013 22:00:00 9.5 C 8.74 g/m*3 9.5 C 1.2 km/h
936 15-10-2013 23:00:00 9.51667 C 8.74 g/m*3 9.52 C 1.46667 km/h
937 16-10-2013 00:00:00 9.25833 C 8.69 g/m*3 9.26 C 0.26667 km/h
938 16-10-2013 01:00:00 9.2 C 8.66 g/m*3 9.2 C 0 km/h
939 16-10-2013 02:00:00 9.3 C 8.83 g/m*3 9.3 C 0 km/h
940 16-10-2013 03:00:00 9.3 C 8.81 g/m*3 9.3 C 1.06667 km/h
941 16-10-2013 04:00:00 9.20833 C 8.67 g/m*3 9.21 C 1.2 km/h
942 16-10-2013 05:00:00 9.10833 C 8.61 g/m*3 9.11 C 0.26667 km/h
943 16-10-2013 06:00:00 9.04167 C 8.57 g/m*3 9.04 C 0.53333 km/h
944 16-10-2013 07:00:00 8.4 C 8.24 g/m*3 8.4 C 0 km/h
945 16-10-2013 08:00:00 8.39167 C 8.3 g/m*3 8.39 C 1.06667 km/h
946 16-10-2013 09:00:00 8.63333 C 8.44 g/m*3 8.63 C 1.6 km/h
947 16-10-2013 10:00:00 8.58333 C 8.41 g/m*3 8.58 C 0.4 km/h
948 16-10-2013 11:00:00 8.89167 C 8.58 g/m*3 8.89 C 0.8 km/h
949 16-10-2013 12:00:00 10.74167 C 9.31 g/m*3 10.74 C 4.14167 km/h
950 16-10-2013 13:00:00 12.5 C 9.62 g/m*3 12.5 C 2.66667 km/h
Sensor: Nr:Datum:Temp:Abs-Feuchte:Windchill:Wind:
Aussen-T/F 951 16-10-2013 14:00:00 12.79167 C 9.92 g/m*3 12.79 C 2 km/h
952 16-10-2013 15:00:00 12.71667 C 10.2 g/m*3 12.72 C 0.4 km/h
953 16-10-2013 16:00:00 11.90833 C 10.01 g/m*3 11.91 C 0.13333 km/h
954 16-10-2013 17:00:00 11.41667 C 9.8 g/m*3 11.42 C 0 km/h
955 16-10-2013 18:00:00 10.85 C 9.52 g/m*3 10.85 C 0 km/h
956 16-10-2013 19:00:00 10.175 C 9.13 g/m*3 10.18 C 0.13333 km/h
957 16-10-2013 20:00:00 10.04167 C 9.1 g/m*3 10.04 C 0 km/h
958 16-10-2013 21:00:00 10.1 C 9.17 g/m*3 10.1 C 0.4 km/h
959 16-10-2013 22:00:00 10.1 C 9.16 g/m*3 10.1 C 0 km/h
960 16-10-2013 23:00:00 10.1 C 9.17 g/m*3 10.1 C 0 km/h
961 17-10-2013 00:00:00 10.125 C 9.19 g/m*3 10.13 C 0 km/h
962 17-10-2013 01:00:00 10.48333 C 9.16 g/m*3 10.24 C 5.225 km/h
963 17-10-2013 02:00:00 11.46667 C 9.24 g/m*3 11.47 C 8.44167 km/h
964 17-10-2013 03:00:00 11.14167 C 9.19 g/m*3 11.14 C 4.275 km/h
965 17-10-2013 04:00:00 10.19167 C 8.89 g/m*3 10.19 C 2.80833 km/h
966 17-10-2013 05:00:00 10.6 C 9.14 g/m*3 9.84 C 7.39167 km/h
967 17-10-2013 06:00:00 11.30833 C 9.29 g/m*3 11.31 C 8.725 km/h
968 17-10-2013 07:00:00 11.8 C 9.4 g/m*3 11.8 C 8.73333 km/h
969 17-10-2013 08:00:00 11.98333 C 9.56 g/m*3 11.98 C 10.20833 km/h
970 17-10-2013 09:00:00 12.025 C 9.58 g/m*3 12.03 C 8.98333 km/h
971 17-10-2013 10:00:00 13.33333 C 9.83 g/m*3 13.33 C 15.43333 km/h
972 17-10-2013 11:00:00 13.94167 C 10.02 g/m*3 13.94 C 15.03333 km/h
973 17-10-2013 12:00:00 14.96667 C 10.27 g/m*3 14.97 C 17.7 km/h
974 17-10-2013 13:00:00 15.71667 C 10.48 g/m*3 15.72 C 15.96667 km/h
975 17-10-2013 14:00:00 15.91667 C 10.46 g/m*3 15.92 C 18.1 km/h
Sensor: Nr:Datum:Temp:Abs-Feuchte:Windchill:Wind:
Aussen-T/F 976 17-10-2013 15:00:00 15.39167 C 10.43 g/m*3 15.39 C 17.03333 km/h
977 17-10-2013 16:00:00 14.48333 C 10.28 g/m*3 14.48 C 15.975 km/h
978 17-10-2013 17:00:00 13.71667 C 10.21 g/m*3 13.72 C 14.9 km/h
979 17-10-2013 18:00:00 13.03333 C 10.26 g/m*3 13.03 C 9.275 km/h
980 17-10-2013 19:00:00 12.93333 C 10.38 g/m*3 12.93 C 9 km/h
981 17-10-2013 20:00:00 12.98333 C 10.46 g/m*3 12.98 C 5.5 km/h
982 17-10-2013 21:00:00 12.80833 C 10.42 g/m*3 12.81 C 1.46667 km/h
983 17-10-2013 22:00:00 12.5 C 10.35 g/m*3 12.5 C 0.53333 km/h
984 17-10-2013 23:00:00 12.18333 C 10.25 g/m*3 12.18 C 1.33333 km/h
985 18-10-2013 00:00:00 11.95 C 10.11 g/m*3 11.95 C 0.26667 km/h
986 18-10-2013 01:00:00 11.65833 C 10.01 g/m*3 11.66 C 0.13333 km/h
987 18-10-2013 02:00:00 11.18333 C 9.67 g/m*3 11.18 C 0.53333 km/h
988 18-10-2013 03:00:00 10.74167 C 9.54 g/m*3 10.74 C 0.4 km/h
989 18-10-2013 04:00:00 10.89167 C 9.64 g/m*3 10.89 C 1.33333 km/h
990 18-10-2013 05:00:00 10.925 C 9.69 g/m*3 10.93 C 0.93333 km/h
991 18-10-2013 06:00:00 10.64167 C 9.53 g/m*3 10.64 C 0.26667 km/h
992 18-10-2013 07:00:00 10.825 C 9.7 g/m*3 10.83 C 0 km/h
993 18-10-2013 08:00:00 10.9 C 9.75 g/m*3 10.9 C 0 km/h
994 18-10-2013 09:00:00 11.24167 C 9.96 g/m*3 11.24 C 0 km/h
995 18-10-2013 10:00:00 12.225 C 10.55 g/m*3 12.23 C 3.6 km/h
996 18-10-2013 11:00:00 13.08333 C 10.59 g/m*3 13.08 C 4.825 km/h
997 18-10-2013 12:00:00 12.80833 C 10.54 g/m*3 12.81 C 0 km/h
998 18-10-2013 13:00:00 12.83333 C 10.74 g/m*3 12.83 C 0 km/h
999 18-10-2013 14:00:00 13.8 C 11.12 g/m*3 13.8 C 0 km/h
1000 18-10-2013 15:00:00 13.875 C 11.18 g/m*3 13.88 C 0 km/h
Sensor: Nr:Datum:Temp:Abs-Feuchte:Windchill:Wind:
Aussen-T/F 1001 18-10-2013 16:00:00 14.5 C 11.53 g/m*3 14.5 C 0 km/h
1002 18-10-2013 17:00:00 13.85833 C 11.16 g/m*3 13.86 C 0 km/h
1003 18-10-2013 18:00:00 12.64167 C 10.44 g/m*3 12.64 C 0 km/h
1004 18-10-2013 19:00:00 11.66667 C 9.96 g/m*3 11.67 C 0 km/h
1005 18-10-2013 20:00:00 11.225 C 9.75 g/m*3 11.23 C 0 km/h
1006 18-10-2013 21:00:00 10.54167 C 9.34 g/m*3 10.54 C 0 km/h
1007 18-10-2013 22:00:00 9.99167 C 9.05 g/m*3 9.99 C 0 km/h
1008 18-10-2013 23:00:00 9.4 C 8.77 g/m*3 9.4 C 0 km/h
1009 19-10-2013 00:00:00 9.20833 C 8.67 g/m*3 9.21 C 0 km/h
1010 19-10-2013 01:00:00 8.99167 C 8.55 g/m*3 8.99 C 0 km/h
1011 19-10-2013 02:00:00 8.38333 C 8.21 g/m*3 8.38 C 0 km/h
1012 19-10-2013 03:00:00 8.025 C 8.03 g/m*3 8.03 C 0 km/h
1013 19-10-2013 04:00:00 7.80833 C 7.92 g/m*3 7.81 C 0 km/h
1014 19-10-2013 05:00:00 7.44167 C 7.73 g/m*3 7.44 C 0 km/h
1015 19-10-2013 06:00:00 7.39167 C 7.73 g/m*3 7.39 C 0.8 km/h
1016 19-10-2013 07:00:00 8.53333 C 8.29 g/m*3 8.53 C 4.80833 km/h
1017 19-10-2013 08:00:00 9.575 C 8.38 g/m*3 9.57 C 4.68333 km/h
1018 19-10-2013 09:00:00 8.86667 C 8.28 g/m*3 8.87 C 0.66667 km/h
1019 19-10-2013 10:00:00 9.10833 C 8.54 g/m*3 9.11 C 0 km/h
1020 19-10-2013 11:00:00 10.15 C 9.2 g/m*3 10.15 C 0 km/h
1021 19-10-2013 12:00:00 11.43333 C 9.98 g/m*3 11.43 C 0.26667 km/h
1022 19-10-2013 13:00:00 13.90833 C 11.32 g/m*3 13.91 C 1.33333 km/h
1023 19-10-2013 14:00:00 15.39167 C 12.09 g/m*3 15.39 C 1.6 km/h
1024 19-10-2013 15:00:00 16.2 C 12.46 g/m*3 16.2 C 1.33333 km/h
1025 19-10-2013 16:00:00 15.675 C 12.47 g/m*3 15.68 C 0 km/h
Sensor: Nr:Datum:Temp:Abs-Feuchte:Windchill:Wind:
Aussen-T/F 1026 19-10-2013 17:00:00 15.54545 C 12.45 g/m*3 15.55 C 0.14545 km/h
1027 19-10-2013 18:00:00 14.8 C 12.1 g/m*3 14.8 C 0.32 km/h
1028 19-10-2013 19:00:00 15.01667 C 12.32 g/m*3 15.02 C 0.13333 km/h
1029 19-10-2013 20:00:00 15.175 C 12.44 g/m*3 15.18 C 0.26667 km/h
1030 19-10-2013 21:00:00 15.275 C 12.44 g/m*3 15.28 C 1.06667 km/h
1031 19-10-2013 22:00:00 15.225 C 12.44 g/m*3 15.23 C 0.13333 km/h
1032 19-10-2013 23:00:00 15.15 C 12.47 g/m*3 15.15 C 0 km/h
1033 20-10-2013 00:00:00 14.93333 C 12.38 g/m*3 14.93 C 0.13333 km/h
1034 20-10-2013 01:00:00 15.28333 C 12.6 g/m*3 15.28 C 0.66667 km/h
1035 20-10-2013 02:00:00 15.74167 C 12.88 g/m*3 15.74 C 1.86667 km/h
1036 20-10-2013 03:00:00 15.13333 C 12.44 g/m*3 15.13 C 1.46667 km/h
1037 20-10-2013 04:00:00 15.06667 C 12.37 g/m*3 15.07 C 0.53333 km/h
1038 20-10-2013 05:00:00 14.53333 C 12.04 g/m*3 14.53 C 0.8 km/h
1039 20-10-2013 06:00:00 14.15 C 11.81 g/m*3 14.15 C 0.66667 km/h
1040 20-10-2013 07:00:00 13.36667 C 11.25 g/m*3 13.37 C 0 km/h
1041 20-10-2013 08:00:00 13.1 C 11.16 g/m*3 13.1 C 0.66667 km/h
1042 20-10-2013 09:00:00 13.31667 C 11.33 g/m*3 13.32 C 0 km/h
1043 20-10-2013 10:00:00 14.19167 C 12 g/m*3 14.19 C 1.86667 km/h
1044 20-10-2013 11:00:00 15.59167 C 13.08 g/m*3 15.59 C 0.53333 km/h
1045 20-10-2013 12:00:00 16.41667 C 13.44 g/m*3 16.42 C 3.46667 km/h
1046 20-10-2013 13:00:00 17.08333 C 13.31 g/m*3 17.08 C 2.68333 km/h
1047 20-10-2013 14:00:00 17.51667 C 13.21 g/m*3 17.52 C 3.075 km/h
1048 20-10-2013 15:00:00 18.33333 C 12.9 g/m*3 18.33 C 6.175 km/h
1049 20-10-2013 16:00:00 18.1 C 12.3 g/m*3 18.1 C 5.10833 km/h
1050 20-10-2013 17:00:00 16.96667 C 12.43 g/m*3 16.97 C 0.93333 km/h
Sensor: Nr:Datum:Temp:Abs-Feuchte:Windchill:Wind:
Aussen-T/F 1051 20-10-2013 18:00:00 15.5 C 11.83 g/m*3 15.5 C 0.26667 km/h
1052 20-10-2013 19:00:00 14.71667 C 11.64 g/m*3 14.72 C 0.8 km/h
1053 20-10-2013 20:00:00 14.36667 C 11.49 g/m*3 14.37 C 0.13333 km/h
1054 20-10-2013 21:00:00 14.10833 C 11.48 g/m*3 14.11 C 0.26667 km/h
1055 20-10-2013 22:00:00 14.525 C 11.99 g/m*3 14.53 C 3.075 km/h
1056 20-10-2013 23:00:00 14.8 C 12.19 g/m*3 14.8 C 2.14167 km/h
1057 21-10-2013 00:00:00 15.3 C 11.71 g/m*3 15.3 C 8.05833 km/h
1058 21-10-2013 01:00:00 14.79167 C 11.23 g/m*3 14.79 C 5.23333 km/h
1059 21-10-2013 02:00:00 14.575 C 11.35 g/m*3 14.58 C 3.075 km/h
1060 21-10-2013 03:00:00 14.66667 C 11.43 g/m*3 14.67 C 3.21667 km/h
1061 21-10-2013 04:00:00 14.4 C 11.54 g/m*3 14.4 C 0.94167 km/h
1062 21-10-2013 05:00:00 14.05833 C 11.44 g/m*3 14.06 C 0 km/h
1063 21-10-2013 06:00:00 13.775 C 11.22 g/m*3 13.78 C 1.33333 km/h
1064 21-10-2013 07:00:00 13.64167 C 11.14 g/m*3 13.64 C 0.93333 km/h
1065 21-10-2013 08:00:00 13.66667 C 11.08 g/m*3 13.67 C 1.46667 km/h
1066 21-10-2013 09:00:00 14.775 C 11.24 g/m*3 14.78 C 4.275 km/h
1067 21-10-2013 10:00:00 15.625 C 11.62 g/m*3 15.63 C 3.06667 km/h
1068 21-10-2013 11:00:00 16.19167 C 12.05 g/m*3 16.19 C 3.34167 km/h
1069 21-10-2013 12:00:00 17 C 12.13 g/m*3 17 C 6.70833 km/h
1070 21-10-2013 13:00:00 17.48333 C 12.24 g/m*3 17.48 C 9.68333 km/h
1071 21-10-2013 14:00:00 17.94167 C 12.3 g/m*3 17.94 C 9.425 km/h
1072 21-10-2013 15:00:00 18.66667 C 12.26 g/m*3 18.67 C 6.31667 km/h
1073 21-10-2013 16:00:00 17.41667 C 12.89 g/m*3 17.42 C 0.13333 km/h
1074 21-10-2013 17:00:00 16.59167 C 12.4 g/m*3 16.59 C 1.33333 km/h
1075 21-10-2013 18:00:00 14.90833 C 11.76 g/m*3 14.91 C 0.26667 km/h
Sensor: Nr:Datum:Temp:Abs-Feuchte:Windchill:Wind:
Aussen-T/F 1076 21-10-2013 19:00:00 14.08333 C 11.33 g/m*3 14.08 C 0.26667 km/h
1077 21-10-2013 20:00:00 13.45833 C 11.08 g/m*3 13.46 C 0.26667 km/h
1078 21-10-2013 21:00:00 13.25 C 10.96 g/m*3 13.25 C 0.53333 km/h
1079 21-10-2013 22:00:00 12.98333 C 10.85 g/m*3 12.98 C 0 km/h
1080 21-10-2013 23:00:00 12.55 C 10.62 g/m*3 12.55 C 0 km/h
1081 22-10-2013 00:00:00 12.35833 C 10.56 g/m*3 12.36 C 0 km/h
1082 22-10-2013 01:00:00 12.275 C 10.52 g/m*3 12.28 C 0 km/h
1083 22-10-2013 02:00:00 12.18333 C 10.46 g/m*3 12.18 C 0.53333 km/h
1084 22-10-2013 03:00:00 12.45 C 10.69 g/m*3 12.45 C 0.66667 km/h
1085 22-10-2013 04:00:00 12.675 C 10.82 g/m*3 12.68 C 0 km/h
1086 22-10-2013 05:00:00 12.41667 C 10.65 g/m*3 12.42 C 0.53333 km/h
1087 22-10-2013 06:00:00 13.50833 C 11.47 g/m*3 13.51 C 0.26667 km/h
1088 22-10-2013 07:00:00 13.84167 C 11.71 g/m*3 13.84 C 0 km/h
1089 22-10-2013 08:00:00 14.025 C 11.84 g/m*3 14.03 C 0 km/h
1090 22-10-2013 09:00:00 14.56667 C 12.24 g/m*3 14.57 C 0 km/h
1091 22-10-2013 10:00:00 15.16667 C 12.59 g/m*3 15.17 C 0 km/h
1092 22-10-2013 11:00:00 15.60833 C 12.84 g/m*3 15.61 C 1.6 km/h
1093 22-10-2013 12:00:00 17.93333 C 13.46 g/m*3 17.93 C 5.5 km/h
1094 22-10-2013 13:00:00 19.925 C 13.84 g/m*3 19.93 C 5.48333 km/h
1095 22-10-2013 14:00:00 21.2 C 13.91 g/m*3 21.2 C 5.625 km/h
1096 22-10-2013 15:00:00 20.15833 C 14.16 g/m*3 20.16 C 3.48333 km/h
1097 22-10-2013 16:00:00 19.2 C 14.04 g/m*3 19.2 C 1.20833 km/h
1098 22-10-2013 17:00:00 18.45833 C 13.9 g/m*3 18.46 C 0.13333 km/h
1099 22-10-2013 18:00:00 17.29167 C 13.15 g/m*3 17.29 C 0 km/h
1100 22-10-2013 19:00:00 16.50833 C 12.75 g/m*3 16.51 C 0 km/h
Sensor: Nr:Datum:Temp:Abs-Feuchte:Windchill:Wind:
Aussen-T/F 1101 22-10-2013 20:00:00 16.3 C 12.64 g/m*3 16.3 C 0 km/h
1102 22-10-2013 21:00:00 16.4 C 12.54 g/m*3 16.4 C 0.8 km/h
1103 22-10-2013 22:00:00 16.66667 C 12.47 g/m*3 16.67 C 1.46667 km/h
1104 22-10-2013 23:00:00 16.85833 C 12.59 g/m*3 16.86 C 2.275 km/h
1105 23-10-2013 00:00:00 16.725 C 13.33 g/m*3 16.73 C 3.88333 km/h
1106 23-10-2013 01:00:00 15.975 C 13.05 g/m*3 15.98 C 1.2 km/h
1107 23-10-2013 02:00:00 15.425 C 12.76 g/m*3 15.43 C 0.8 km/h
1108 23-10-2013 03:00:00 15.15833 C 12.56 g/m*3 15.16 C 0.13333 km/h
1109 23-10-2013 04:00:00 14.975 C 12.53 g/m*3 14.98 C 0.13333 km/h
1110 23-10-2013 05:00:00 14.94167 C 12.52 g/m*3 14.94 C 1.86667 km/h
1111 23-10-2013 06:00:00 14.89167 C 12.47 g/m*3 14.89 C 0.53333 km/h
1112 23-10-2013 07:00:00 14.8 C 12.41 g/m*3 14.8 C 0.26667 km/h
1113 23-10-2013 08:00:00 14.8 C 12.41 g/m*3 14.8 C 0 km/h
1114 23-10-2013 09:00:00 14.7875 C 12.4 g/m*3 14.79 C 1.6 km/h
1115 23-10-2013 10:00:00 14.96667 C 12.54 g/m*3 14.97 C 0.88889 km/h
1116 23-10-2013 11:00:00 15.61667 C 13.05 g/m*3 15.62 C 2.14167 km/h
1117 23-10-2013 12:00:00 16.53333 C 13.44 g/m*3 16.53 C 3.46667 km/h
1118 23-10-2013 13:00:00 17.975 C 13.34 g/m*3 17.98 C 6.30833 km/h
1119 23-10-2013 14:00:00 18.48333 C 12.76 g/m*3 18.48 C 10.20833 km/h
1120 23-10-2013 15:00:00 19.01667 C 12.47 g/m*3 19.02 C 11.275 km/h
1121 23-10-2013 16:00:00 18.4 C 12.7 g/m*3 18.4 C 5.35 km/h
1122 23-10-2013 17:00:00 17.3 C 12.4 g/m*3 17.3 C 2.4 km/h
1123 23-10-2013 18:00:00 15.375 C 12.01 g/m*3 15.38 C 0.53333 km/h
1124 23-10-2013 19:00:00 14.99167 C 11.88 g/m*3 14.99 C 1.33333 km/h
1125 23-10-2013 20:00:00 14.33333 C 11.58 g/m*3 14.33 C 0.8 km/h
Sensor: Nr:Datum:Temp:Abs-Feuchte:Windchill:Wind:
Aussen-T/F 1126 23-10-2013 21:00:00 14.11667 C 11.39 g/m*3 14.12 C 1.2 km/h
1127 23-10-2013 22:00:00 14.10833 C 11.43 g/m*3 14.11 C 1.46667 km/h
1128 23-10-2013 23:00:00 14.45833 C 11.62 g/m*3 14.46 C 2.825 km/h
1129 24-10-2013 00:00:00 14.35 C 11.59 g/m*3 14.35 C 0.93333 km/h
1130 24-10-2013 01:00:00 14.74167 C 11.7 g/m*3 14.74 C 3.74167 km/h
1131 24-10-2013 02:00:00 14.8 C 11.57 g/m*3 14.8 C 3.75 km/h
1132 24-10-2013 03:00:00 14.71667 C 11.44 g/m*3 14.72 C 5.075 km/h
1133 24-10-2013 04:00:00 14.2 C 11.18 g/m*3 14.2 C 2.40833 km/h
1134 24-10-2013 05:00:00 13.68333 C 11.2 g/m*3 13.68 C 0.26667 km/h
1135 24-10-2013 06:00:00 13.89167 C 11.3 g/m*3 13.89 C 0.13333 km/h
1136 24-10-2013 07:00:00 13.20833 C 10.94 g/m*3 13.21 C 0.26667 km/h
1137 24-10-2013 08:00:00 13.25 C 11.12 g/m*3 13.25 C 0.66667 km/h
1138 24-10-2013 09:00:00 13.29167 C 11.2 g/m*3 13.29 C 0 km/h
1139 24-10-2013 10:00:00 13.375 C 11.26 g/m*3 13.38 C 0.4 km/h
1140 24-10-2013 11:00:00 13.48333 C 11.35 g/m*3 13.48 C 0.4 km/h
1141 24-10-2013 12:00:00 13.98333 C 11.69 g/m*3 13.98 C 2 km/h
1142 24-10-2013 13:00:00 14.76667 C 12.03 g/m*3 14.77 C 2.26667 km/h
1143 24-10-2013 14:00:00 15.30833 C 12.28 g/m*3 15.31 C 1.33333 km/h
1144 24-10-2013 15:00:00 15.13333 C 12.36 g/m*3 15.13 C 0 km/h
1145 24-10-2013 16:00:00 14.78333 C 12.24 g/m*3 14.78 C 0 km/h
1146 24-10-2013 17:00:00 14.75833 C 12.26 g/m*3 14.76 C 0 km/h
1147 24-10-2013 18:00:00 14 C 11.7 g/m*3 14 C 0 km/h
1148 24-10-2013 19:00:00 13.2 C 11.14 g/m*3 13.2 C 0 km/h
1149 24-10-2013 20:00:00 12.45 C 10.63 g/m*3 12.45 C 0 km/h
1150 24-10-2013 21:00:00 11.64167 C 10.17 g/m*3 11.64 C 0 km/h
Sensor: Nr:Datum:Temp:Abs-Feuchte:Windchill:Wind:
Aussen-T/F 1151 24-10-2013 22:00:00 10.925 C 9.74 g/m*3 10.93 C 0.26667 km/h
1152 24-10-2013 23:00:00 10.24167 C 9.34 g/m*3 10.24 C 0 km/h
1153 25-10-2013 00:00:00 10.03333 C 9.23 g/m*3 10.03 C 0 km/h
1154 25-10-2013 01:00:00 9.68333 C 9.02 g/m*3 9.68 C 0 km/h
1155 25-10-2013 02:00:00 9.51667 C 8.93 g/m*3 9.52 C 0 km/h
1156 25-10-2013 03:00:00 9.55 C 8.95 g/m*3 9.55 C 0 km/h
1157 25-10-2013 04:00:00 9.55 C 8.95 g/m*3 9.55 C 0 km/h
1158 25-10-2013 05:00:00 9.6 C 8.98 g/m*3 9.6 C 0 km/h
1159 25-10-2013 06:00:00 10.08333 C 9.32 g/m*3 10.08 C 0.26667 km/h
1160 25-10-2013 07:00:00 10.76667 C 9.76 g/m*3 10.77 C 0.26667 km/h
1161 25-10-2013 08:00:00 10.775 C 9.75 g/m*3 10.78 C 0 km/h
1162 25-10-2013 09:00:00 11.79167 C 10.41 g/m*3 11.79 C 1.6 km/h
1163 25-10-2013 10:00:00 12.8 C 11.09 g/m*3 12.8 C 2 km/h
1164 25-10-2013 11:00:00 13.29167 C 11.41 g/m*3 13.29 C 0.13333 km/h
1165 25-10-2013 12:00:00 13.975 C 11.83 g/m*3 13.98 C 0.4 km/h
1166 25-10-2013 13:00:00 15.175 C 12.64 g/m*3 15.18 C 0.13333 km/h
1167 25-10-2013 14:00:00 16 C 13.06 g/m*3 16 C 0.53333 km/h
1168 25-10-2013 15:00:00 16.025 C 12.96 g/m*3 16.02 C 0.13333 km/h
1169 25-10-2013 16:00:00 16.31667 C 13.22 g/m*3 16.32 C 0 km/h
1170 25-10-2013 17:00:00 16.19167 C 12.96 g/m*3 16.19 C 0.13333 km/h
1171 25-10-2013 18:00:00 15.81667 C 12.49 g/m*3 15.82 C 2.13333 km/h
1172 25-10-2013 19:00:00 15.55833 C 12.26 g/m*3 15.56 C 2.13333 km/h
1173 25-10-2013 20:00:00 15.08333 C 12.23 g/m*3 15.08 C 0.66667 km/h
1174 25-10-2013 21:00:00 15.11667 C 12.41 g/m*3 15.12 C 0.26667 km/h
1175 25-10-2013 22:00:00 14.95833 C 12.28 g/m*3 14.96 C 0 km/h
Sensor: Nr:Datum:Temp:Abs-Feuchte:Windchill:Wind:
Aussen-T/F 1176 25-10-2013 23:00:00 14.75 C 12.18 g/m*3 14.75 C 0 km/h
1177 26-10-2013 00:00:00 14.91667 C 12.39 g/m*3 14.92 C 0.26667 km/h
1178 26-10-2013 01:00:00 15.025 C 12.55 g/m*3 15.03 C 0.8 km/h
1179 26-10-2013 02:00:00 15.06667 C 12.62 g/m*3 15.07 C 0.13333 km/h
1180 26-10-2013 03:00:00 15.3 C 12.8 g/m*3 15.3 C 0.53333 km/h
1181 26-10-2013 04:00:00 15.24167 C 12.75 g/m*3 15.24 C 0 km/h
1182 26-10-2013 05:00:00 14.96667 C 12.57 g/m*3 14.97 C 0 km/h
1183 26-10-2013 06:00:00 15.10833 C 12.76 g/m*3 15.11 C 0 km/h
1184 26-10-2013 07:00:00 14.99167 C 12.58 g/m*3 14.99 C 0 km/h
1185 26-10-2013 08:00:00 15.14167 C 12.76 g/m*3 15.14 C 0.53333 km/h
1186 26-10-2013 09:00:00 15.7 C 13.25 g/m*3 15.7 C 0.66667 km/h
1187 26-10-2013 10:00:00 16.36667 C 13.79 g/m*3 16.37 C 0.66667 km/h
1188 26-10-2013 11:00:00 16.80833 C 14.16 g/m*3 16.81 C 0.4 km/h
1189 26-10-2013 12:00:00 17.6 C 14.2 g/m*3 17.6 C 8.325 km/h
1190 26-10-2013 13:00:00 18.575 C 13.85 g/m*3 18.58 C 9.55 km/h
1191 26-10-2013 14:00:00 18.84167 C 13.97 g/m*3 18.84 C 6.725 km/h
1192 26-10-2013 15:00:00 18.825 C 14.57 g/m*3 18.83 C 1.86667 km/h
1193 26-10-2013 16:00:00 19.3 C 14.6 g/m*3 19.3 C 6.45 km/h
1194 26-10-2013 17:00:00 17.9 C 14.2 g/m*3 17.9 C 1.6 km/h
1195 26-10-2013 18:00:00 17.45 C 13.85 g/m*3 17.45 C 2.13333 km/h
1196 26-10-2013 19:00:00 17.05833 C 13.59 g/m*3 17.06 C 0 km/h
1197 26-10-2013 20:00:00 16.77273 C 13.5 g/m*3 16.77 C 0.14545 km/h
1198 26-10-2013 21:00:00 16.34167 C 13.28 g/m*3 16.34 C 0 km/h
1199 26-10-2013 22:00:00 16.625 C 13.19 g/m*3 16.63 C 3.075 km/h
1200 26-10-2013 23:00:00 17.21667 C 12.85 g/m*3 17.22 C 4.00833 km/h
Sensor: Nr:Datum:Temp:Abs-Feuchte:Windchill:Wind:
Aussen-T/F 1201 27-10-2013 00:00:00 15.625 C 12.64 g/m*3 15.63 C 0.4 km/h
1202 27-10-2013 01:00:00 15.16667 C 12.56 g/m*3 15.17 C 0.13333 km/h
1203 27-10-2013 02:00:00 15.18333 C 12.58 g/m*3 15.18 C 0.13333 km/h
1204 27-10-2013 04:00:00 16.21739 C 12.35 g/m*3 16.22 C 5.38261 km/h
1205 27-10-2013 05:00:00 16.20769 C 11.68 g/m*3 16.21 C 8.3 km/h
1206 27-10-2013 06:00:00 15.725 C 10.98 g/m*3 15.73 C 8.18333 km/h
1207 27-10-2013 07:00:00 15.43333 C 10.64 g/m*3 15.43 C 10.34167 km/h
1208 27-10-2013 08:00:00 15.675 C 10.68 g/m*3 15.68 C 7.09167 km/h
1209 27-10-2013 09:00:00 16.33333 C 10.83 g/m*3 16.33 C 9.53333 km/h
1210 27-10-2013 10:00:00 17.16667 C 10.47 g/m*3 17.17 C 22.65833 km/h
1211 27-10-2013 11:00:00 15.56667 C 10.73 g/m*3 15.57 C 16.76667 km/h
1212 27-10-2013 12:00:00 15.45833 C 11.09 g/m*3 15.46 C 15.30833 km/h
1213 27-10-2013 13:00:00 13.86667 C 9.69 g/m*3 13.87 C 17.56667 km/h
1214 27-10-2013 14:00:00 12.34167 C 9.42 g/m*3 12.34 C 14.5 km/h
1215 27-10-2013 15:00:00 13.94167 C 10.03 g/m*3 13.94 C 11.14167 km/h
1216 27-10-2013 16:00:00 14.16667 C 10.36 g/m*3 14.17 C 5.35833 km/h
1217 27-10-2013 17:00:00 13.91667 C 9.51 g/m*3 13.92 C 10.60833 km/h
1218 27-10-2013 18:00:00 14.35833 C 9.46 g/m*3 14.36 C 19.44167 km/h
1219 27-10-2013 19:00:00 14.19167 C 9.73 g/m*3 14.19 C 20.23333 km/h
1220 27-10-2013 20:00:00 13.31667 C 10.07 g/m*3 13.32 C 10.625 km/h
1221 27-10-2013 21:00:00 13.725 C 9.98 g/m*3 13.73 C 9.8 km/h
1222 27-10-2013 22:00:00 14.59167 C 9.95 g/m*3 14.59 C 17.56667 km/h
1223 27-10-2013 23:00:00 14.38333 C 10.11 g/m*3 14.38 C 15.7 km/h
1224 28-10-2013 00:00:00 14.15 C 10.34 g/m*3 14.15 C 7.11667 km/h
1225 28-10-2013 01:00:00 13.125 C 10.66 g/m*3 13.13 C 2.53333 km/h
Sensor: Nr:Datum:Temp:Abs-Feuchte:Windchill:Wind:
Aussen-T/F 1226 28-10-2013 02:00:00 13.31667 C 11.01 g/m*3 13.32 C 5.88333 km/h
1227 28-10-2013 03:00:00 14.64167 C 11.26 g/m*3 14.64 C 15.83333 km/h
1228 28-10-2013 04:00:00 15.26667 C 10.98 g/m*3 15.27 C 12.89167 km/h
1229 28-10-2013 05:00:00 14.54167 C 10.62 g/m*3 14.54 C 4.26667 km/h
1230 28-10-2013 06:00:00 14.10833 C 10.45 g/m*3 14.11 C 4.55 km/h
1231 28-10-2013 07:00:00 16.29167 C 10.01 g/m*3 16.29 C 17.43333 km/h
1232 28-10-2013 08:00:00 17.20833 C 9.71 g/m*3 17.21 C 19.83333 km/h
1233 28-10-2013 09:00:00 17.79167 C 9.54 g/m*3 17.79 C 13.15833 km/h
1234 28-10-2013 10:00:00 18.61667 C 9.53 g/m*3 18.62 C 22.66667 km/h
1235 28-10-2013 11:00:00 18.75 C 10.14 g/m*3 18.75 C 29.78333 km/h
1236 28-10-2013 12:00:00 16.69167 C 11.23 g/m*3 16.69 C 25.35 km/h
1237 28-10-2013 13:00:00 16.75 C 11.04 g/m*3 16.75 C 23.99167 km/h
1238 28-10-2013 14:00:00 16.35 C 11.17 g/m*3 16.35 C 18.5 km/h
1239 28-10-2013 15:00:00 16.82727 C 10.61 g/m*3 16.83 C 20.18182 km/h
1240 28-10-2013 16:00:00 15.96667 C 10.06 g/m*3 15.97 C 19.3 km/h
1241 28-10-2013 17:00:00 15.20833 C 9.98 g/m*3 15.21 C 17.16667 km/h
1242 28-10-2013 18:00:00 14.34167 C 9.74 g/m*3 14.34 C 14.75833 km/h
1243 28-10-2013 19:00:00 14.40833 C 9.65 g/m*3 14.41 C 8.60833 km/h
1244 28-10-2013 20:00:00 14.3 C 9.46 g/m*3 14.3 C 11.3 km/h
1245 28-10-2013 22:00:00 13.35 C 9.08 g/m*3 13.35 C 9.53333 km/h
1246 28-10-2013 23:00:00 13.08333 C 8.81 g/m*3 13.08 C 13.43333 km/h
1247 29-10-2013 00:00:00 12.875 C 8.62 g/m*3 12.88 C 10.61667 km/h
1248 29-10-2013 01:00:00 12.69167 C 8.46 g/m*3 12.69 C 9.14167 km/h
1249 29-10-2013 02:00:00 12.33333 C 8.31 g/m*3 12.33 C 11.55 km/h
1250 29-10-2013 03:00:00 12.13333 C 8.37 g/m*3 12.13 C 8.71667 km/h
Sensor: Nr:Datum:Temp:Abs-Feuchte:Windchill:Wind:
Aussen-T/F 1251 29-10-2013 04:00:00 12.00833 C 8.25 g/m*3 12.01 C 12.63333 km/h
1252 29-10-2013 05:00:00 11.81667 C 8.09 g/m*3 11.82 C 13.56667 km/h
1253 29-10-2013 06:00:00 11.51667 C 8.07 g/m*3 11.52 C 9 km/h
1254 29-10-2013 07:00:00 10.95833 C 7.61 g/m*3 9.9 C 9.26667 km/h
1255 29-10-2013 08:00:00 11.04167 C 7.4 g/m*3 11.04 C 12.48333 km/h
1256 29-10-2013 09:00:00 11.68333 C 7.56 g/m*3 11.68 C 13.83333 km/h
1257 29-10-2013 10:00:00 11.91667 C 7.62 g/m*3 11.92 C 16.225 km/h
1258 29-10-2013 11:00:00 12.16667 C 7.79 g/m*3 12.17 C 14.1 km/h
1259 29-10-2013 12:00:00 12.88333 C 7.97 g/m*3 12.88 C 14.63333 km/h
1260 29-10-2013 13:00:00 13.39167 C 7.73 g/m*3 13.39 C 13.7 km/h
1261 29-10-2013 14:00:00 13.13636 C 7.57 g/m*3 13.14 C 8.5 km/h
1262 29-10-2013 17:00:00 10.85833 C 7.61 g/m*3 10.86 C 3.35 km/h
1263 29-10-2013 18:00:00 9.25714 C 7.48 g/m*3 9.26 C 1.14286 km/h
1264 29-10-2013 19:00:00 8.12857 C 7.31 g/m*3 8.13 C 0.45714 km/h
1265 29-10-2013 20:00:00 7.775 C 7.25 g/m*3 7.78 C 0.53333 km/h
1266 29-10-2013 21:00:00 7.59167 C 7.23 g/m*3 7.59 C 0.66667 km/h
1267 29-10-2013 22:00:00 8.15 C 7.39 g/m*3 8.15 C 2.13333 km/h
1268 29-10-2013 23:00:00 8.59167 C 7.42 g/m*3 8.59 C 3.075 km/h
1269 30-10-2013 00:00:00 7.86667 C 7.34 g/m*3 7.87 C 1.06667 km/h
1270 30-10-2013 01:00:00 7.76667 C 7.26 g/m*3 7.77 C 1.73333 km/h
1271 30-10-2013 02:00:00 7.30833 C 7.2 g/m*3 7.31 C 2.66667 km/h
1272 30-10-2013 03:00:00 7.66667 C 7.19 g/m*3 6.9 C 5.63333 km/h
1273 30-10-2013 04:00:00 7.51667 C 7.08 g/m*3 7.52 C 4.4 km/h
1274 30-10-2013 05:00:00 7.375 C 7.01 g/m*3 7.38 C 4.94167 km/h
1275 30-10-2013 06:00:00 6.825 C 6.89 g/m*3 6.83 C 4 km/h
Sensor: Nr:Datum:Temp:Abs-Feuchte:Windchill:Wind:
Aussen-T/F 1276 30-10-2013 07:00:00 6.775 C 6.88 g/m*3 5.24 C 7.925 km/h
1277 30-10-2013 08:00:00 7.00833 C 6.9 g/m*3 5.58 C 7.65833 km/h
1278 30-10-2013 09:00:00 7.30833 C 6.99 g/m*3 7.31 C 3.74167 km/h
1279 30-10-2013 10:00:00 8.04167 C 7.15 g/m*3 8.04 C 4.68333 km/h
1280 30-10-2013 11:00:00 9 C 7.19 g/m*3 7.47 C 9.8 km/h
1281 30-10-2013 12:00:00 10.01667 C 7.22 g/m*3 8.28 C 12.36667 km/h
1282 30-10-2013 13:00:00 10.69167 C 7.23 g/m*3 9.65 C 8.86667 km/h
1283 30-10-2013 14:00:00 11.15 C 7.36 g/m*3 11.15 C 8.6 km/h
1284 30-10-2013 15:00:00 10.55 C 7.47 g/m*3 10.55 C 3.61667 km/h
1285 30-10-2013 16:00:00 9.31667 C 7.47 g/m*3 9.32 C 2 km/h
1286 30-10-2013 17:00:00 8.15833 C 7.2 g/m*3 8.16 C 2.8 km/h
1287 30-10-2013 18:00:00 7.64167 C 7.1 g/m*3 7.64 C 2.66667 km/h
1288 30-10-2013 19:00:00 6.91667 C 6.98 g/m*3 6.92 C 1.6 km/h
1289 30-10-2013 20:00:00 6.75833 C 6.92 g/m*3 6.76 C 1.06667 km/h
1290 30-10-2013 21:00:00 5.76667 C 6.64 g/m*3 5.77 C 0 km/h
1291 30-10-2013 22:00:00 4.94444 C 6.43 g/m*3 4.94 C 0.17778 km/h
1292 30-10-2013 23:00:00 4.55 C 6.29 g/m*3 4.55 C 0 km/h
1293 31-10-2013 00:00:00 4.23333 C 6.2 g/m*3 4.23 C 0 km/h
1294 31-10-2013 01:00:00 3.71667 C 5.99 g/m*3 3.72 C 0 km/h
1295 31-10-2013 02:00:00 3.35 C 5.84 g/m*3 3.35 C 0.13333 km/h
1296 31-10-2013 03:00:00 3.00833 C 5.74 g/m*3 3.01 C 0 km/h
1297 31-10-2013 04:00:00 3.28333 C 5.88 g/m*3 3.28 C 0.8 km/h
1298 31-10-2013 05:00:00 3.1 C 5.81 g/m*3 3.1 C 1.46667 km/h
1299 31-10-2013 06:00:00 2.73333 C 5.66 g/m*3 2.73 C 0.8 km/h
1300 31-10-2013 07:00:00 2.55833 C 5.6 g/m*3 2.56 C 1.2 km/h
Sensor: Nr:Datum:Temp:Abs-Feuchte:Windchill:Wind:
Aussen-T/F 1301 31-10-2013 08:00:00 2.70833 C 5.69 g/m*3 2.71 C 1.06667 km/h
1302 31-10-2013 09:00:00 3.06667 C 5.85 g/m*3 3.07 C 2 km/h
1303 31-10-2013 10:00:00 3.46667 C 6.01 g/m*3 3.47 C 2 km/h
1304 31-10-2013 11:00:00 4.19167 C 6.31 g/m*3 4.19 C 2.13333 km/h
1305 31-10-2013 12:00:00 5.075 C 6.69 g/m*3 5.08 C 0 km/h
1306 31-10-2013 13:00:00 7.15833 C 7.65 g/m*3 7.16 C 0.93333 km/h
1307 31-10-2013 14:00:00 9.275 C 8.07 g/m*3 9.28 C 2.66667 km/h
1308 31-10-2013 15:00:00 9.65833 C 7.96 g/m*3 9.66 C 2.53333 km/h
1309 31-10-2013 16:00:00 9.1 C 7.7 g/m*3 9.1 C 2.4 km/h
1310 31-10-2013 17:00:00 8.08333 C 7.4 g/m*3 8.08 C 2 km/h
1311 31-10-2013 18:00:00 7.56667 C 7.26 g/m*3 7.57 C 1.86667 km/h
1312 31-10-2013 19:00:00 7.06667 C 7.08 g/m*3 7.07 C 0.8 km/h
1313 31-10-2013 20:00:00 6.225 C 6.79 g/m*3 6.23 C 0.26667 km/h
1314 31-10-2013 21:00:00 6 C 6.68 g/m*3 6 C 0.13333 km/h
1315 31-10-2013 22:00:00 5.70833 C 6.68 g/m*3 5.71 C 0.13333 km/h
1316 31-10-2013 23:00:00 6.31667 C 6.95 g/m*3 6.32 C 0.66667 km/h
1317 01-11-2013 00:00:00 7.34167 C 7.24 g/m*3 7.34 C 2 km/h
1318 01-11-2013 01:00:00 8.74167 C 7.3 g/m*3 8.74 C 2.53333 km/h
1319 01-11-2013 02:00:00 8.65 C 7.46 g/m*3 8.65 C 0.26667 km/h
1320 01-11-2013 03:00:00 8.68333 C 7.51 g/m*3 8.68 C 0.53333 km/h
1321 01-11-2013 04:00:00 9.15 C 7.68 g/m*3 9.15 C 0.53333 km/h
1322 01-11-2013 05:00:00 8.90833 C 7.85 g/m*3 8.91 C 0 km/h
1323 01-11-2013 06:00:00 8.65 C 7.82 g/m*3 8.65 C 0 km/h
1324 01-11-2013 07:00:00 8.725 C 7.94 g/m*3 8.73 C 0 km/h
1325 01-11-2013 08:00:00 8.95833 C 8 g/m*3 8.96 C 0.13333 km/h
Sensor: Nr:Datum:Temp:Abs-Feuchte:Windchill:Wind:
Aussen-T/F 1326 01-11-2013 09:00:00 9.90833 C 8 g/m*3 9.91 C 0.8 km/h
1327 01-11-2013 10:00:00 10.79167 C 8.08 g/m*3 10.79 C 2.4 km/h
1328 01-11-2013 11:00:00 11.45 C 8.29 g/m*3 11.45 C 4.81667 km/h
1329 01-11-2013 12:00:00 12.16667 C 8.54 g/m*3 12.17 C 4.94167 km/h
1330 01-11-2013 13:00:00 11.61667 C 9.16 g/m*3 11.62 C 0 km/h
1331 01-11-2013 14:00:00 11.25833 C 9.22 g/m*3 11.26 C 0.4 km/h
1332 01-11-2013 15:00:00 11.16667 C 8.83 g/m*3 11.17 C 0 km/h
1333 01-11-2013 16:00:00 10.35 C 8.53 g/m*3 10.35 C 0 km/h
1334 01-11-2013 17:00:00 9.45833 C 8.34 g/m*3 9.46 C 0 km/h
1335 01-11-2013 18:00:00 8.78333 C 8.25 g/m*3 8.78 C 0 km/h
1336 01-11-2013 19:00:00 8.58333 C 8.22 g/m*3 8.58 C 0 km/h
1337 01-11-2013 20:00:00 8.4 C 8.17 g/m*3 8.4 C 0.26667 km/h
1338 01-11-2013 21:00:00 8.30833 C 8.11 g/m*3 8.31 C 0.66667 km/h
1339 01-11-2013 22:00:00 8.19167 C 8.06 g/m*3 8.19 C 0.13333 km/h
1340 01-11-2013 23:00:00 8.11667 C 8.08 g/m*3 8.12 C 0.4 km/h
1341 02-11-2013 00:00:00 8.29167 C 8.17 g/m*3 8.29 C 0 km/h
1342 02-11-2013 01:00:00 8.56667 C 8.34 g/m*3 8.57 C 0 km/h
1343 02-11-2013 02:00:00 8.7 C 8.41 g/m*3 8.7 C 0 km/h
1344 02-11-2013 03:00:00 9.14167 C 8.71 g/m*3 9.14 C 0.53333 km/h
1345 02-11-2013 04:00:00 9.4 C 8.86 g/m*3 9.4 C 0.8 km/h
1346 02-11-2013 06:00:00 10.08571 C 9.29 g/m*3 10.09 C 1.37143 km/h
1347 02-11-2013 07:00:00 10.65 C 9.6 g/m*3 10.65 C 2.66667 km/h
1348 02-11-2013 08:00:00 11.49167 C 10.12 g/m*3 11.49 C 4.95 km/h
1349 02-11-2013 09:00:00 12.66667 C 10.67 g/m*3 12.67 C 5.225 km/h
1350 02-11-2013 10:00:00 13.84167 C 11.07 g/m*3 13.84 C 8.45 km/h
Sensor: Nr:Datum:Temp:Abs-Feuchte:Windchill:Wind:
Aussen-T/F 1351 02-11-2013 11:00:00 14.85 C 11.46 g/m*3 14.85 C 16.9 km/h
1352 02-11-2013 12:00:00 15.475 C 11.69 g/m*3 15.48 C 15.16667 km/h
1353 02-11-2013 13:00:00 15.75 C 11.88 g/m*3 15.75 C 17.03333 km/h
1354 02-11-2013 14:00:00 16.1 C 11.96 g/m*3 16.1 C 20.63333 km/h
1355 02-11-2013 15:00:00 16.29167 C 11.82 g/m*3 16.29 C 16.23333 km/h
1356 02-11-2013 16:00:00 16.04167 C 11.14 g/m*3 16.04 C 16.65 km/h
1357 02-11-2013 17:00:00 15.24167 C 10.54 g/m*3 15.24 C 11.55 km/h
1358 02-11-2013 18:00:00 14.38333 C 10.03 g/m*3 14.38 C 8.6 km/h
1359 02-11-2013 19:00:00 13.225 C 9.86 g/m*3 13.23 C 4.425 km/h
1360 02-11-2013 20:00:00 12.7 C 9.92 g/m*3 12.7 C 3.75 km/h
1361 02-11-2013 21:00:00 13.95833 C 9.87 g/m*3 13.96 C 8.45833 km/h
1362 02-11-2013 22:00:00 13.33333 C 9.85 g/m*3 13.33 C 3.475 km/h
1363 02-11-2013 23:00:00 13.05833 C 9.94 g/m*3 13.06 C 1.73333 km/h
1364 03-11-2013 00:00:00 12.66667 C 9.89 g/m*3 12.67 C 1.46667 km/h
1365 03-11-2013 01:00:00 13.025 C 9.87 g/m*3 13.03 C 1.73333 km/h
1366 03-11-2013 02:00:00 12.70833 C 9.8 g/m*3 12.71 C 9.525 km/h
1367 03-11-2013 03:00:00 10.66667 C 8.83 g/m*3 9.98 C 7.1 km/h
1368 03-11-2013 04:00:00 10.05 C 8.55 g/m*3 10.05 C 4.95833 km/h
1369 03-11-2013 05:00:00 9.78333 C 8.26 g/m*3 9.32 C 5.625 km/h
1370 03-11-2013 06:00:00 9.875 C 8.09 g/m*3 8.77 C 8.45833 km/h
1371 03-11-2013 07:00:00 10.05833 C 8.06 g/m*3 9.12 C 7.78333 km/h
1372 03-11-2013 08:00:00 9.71667 C 7.85 g/m*3 9.03 C 6.44167 km/h
1373 03-11-2013 09:00:00 9.625 C 7.68 g/m*3 8.06 C 10.75833 km/h
1374 03-11-2013 10:00:00 9.29167 C 7.39 g/m*3 7.61 C 11.025 km/h
1375 03-11-2013 11:00:00 9.35 C 7.45 g/m*3 7.06 C 15.425 km/h
Sensor: Nr:Datum:Temp:Abs-Feuchte:Windchill:Wind:
Aussen-T/F 1376 03-11-2013 12:00:00 10.61667 C 7.4 g/m*3 8.34 C 18.1 km/h
1377 03-11-2013 13:00:00 10.575 C 7.33 g/m*3 8.37 C 17.3 km/h
1378 03-11-2013 14:00:00 10.4 C 7.24 g/m*3 8.39 C 15.16667 km/h
1379 03-11-2013 15:00:00 10.35833 C 7.15 g/m*3 8.59 C 13.16667 km/h
1380 03-11-2013 16:00:00 9.95 C 7.08 g/m*3 7.95 C 14.23333 km/h
1381 03-11-2013 17:00:00 9.74167 C 7.1 g/m*3 7.53 C 15.56667 km/h
1382 03-11-2013 18:00:00 8.51667 C 7.4 g/m*3 5.63 C 18.79167 km/h
1383 03-11-2013 19:00:00 7.89167 C 7.54 g/m*3 7.04 C 6.03333 km/h
1384 03-11-2013 20:00:00 7.98333 C 7.33 g/m*3 6.06 C 10.89167 km/h
1385 03-11-2013 21:00:00 8.35 C 7.17 g/m*3 5.98 C 14.23333 km/h
1386 03-11-2013 22:00:00 9.01667 C 7.09 g/m*3 6.49 C 16.76667 km/h
1387 03-11-2013 23:00:00 8.25 C 6.98 g/m*3 7.41 C 6.16667 km/h
1388 04-11-2013 00:00:00 7.06667 C 7.02 g/m*3 7.07 C 2.4 km/h
1389 04-11-2013 01:00:00 8.025 C 7.24 g/m*3 8.03 C 4.68333 km/h
1390 04-11-2013 02:00:00 8.625 C 7.36 g/m*3 7.88 C 6.025 km/h
1391 04-11-2013 03:00:00 8.65 C 7.51 g/m*3 7.7 C 6.84167 km/h
1392 04-11-2013 04:00:00 8.55 C 7.72 g/m*3 7.68 C 6.44167 km/h
1393 04-11-2013 05:00:00 9.16667 C 7.98 g/m*3 8.1 C 7.66667 km/h
1394 04-11-2013 06:00:00 10.01667 C 8.21 g/m*3 9.32 C 6.7 km/h
1395 04-11-2013 07:00:00 10.86667 C 8.54 g/m*3 10.01 C 8.05833 km/h
1396 04-11-2013 08:00:00 11.58889 C 8.85 g/m*3 11.59 C 12.34444 km/h
1397 04-11-2013 09:00:00 12.04167 C 8.8 g/m*3 12.04 C 16.1 km/h
1398 04-11-2013 10:00:00 12.48333 C 8.95 g/m*3 12.48 C 14.09167 km/h
1399 04-11-2013 11:00:00 12.8 C 9.11 g/m*3 12.8 C 20.64167 km/h
1400 04-11-2013 12:00:00 13.125 C 9.12 g/m*3 13.13 C 19.43333 km/h
Sensor: Nr:Datum:Temp:Abs-Feuchte:Windchill:Wind:
Aussen-T/F 1401 04-11-2013 13:00:00 12.875 C 9.36 g/m*3 12.88 C 12.6 km/h
1402 04-11-2013 14:00:00 12.3 C 9.72 g/m*3 12.3 C 11.55 km/h
1403 04-11-2013 15:00:00 12.575 C 9.58 g/m*3 12.58 C 8.45833 km/h
1404 04-11-2013 16:00:00 12.29167 C 9.48 g/m*3 12.29 C 9.13333 km/h
1405 04-11-2013 17:00:00 10.2 C 8.64 g/m*3 8.02 C 16.23333 km/h
1406 04-11-2013 18:00:00 8.125 C 7.58 g/m*3 6.37 C 10.09167 km/h
1407 04-11-2013 19:00:00 7.775 C 7.3 g/m*3 5.99 C 9.925 km/h
1408 04-11-2013 20:00:00 7.69167 C 7.06 g/m*3 6.34 C 7.8 km/h
1409 04-11-2013 21:00:00 6.91667 C 6.84 g/m*3 6.92 C 3.75 km/h
1410 04-11-2013 22:00:00 6.14167 C 6.68 g/m*3 6.14 C 2.8 km/h
1411 04-11-2013 23:00:00 5.875 C 6.54 g/m*3 5.88 C 3.33333 km/h
1412 05-11-2013 00:00:00 5.175 C 6.37 g/m*3 5.18 C 3.20833 km/h
1413 05-11-2013 01:00:00 5.94167 C 6.47 g/m*3 4.19 C 8.19167 km/h
1414 05-11-2013 02:00:00 6.25833 C 6.5 g/m*3 4.7 C 7.66667 km/h
1415 05-11-2013 03:00:00 6.43333 C 6.49 g/m*3 4.98 C 7.36667 km/h
1416 05-11-2013 04:00:00 6.45833 C 6.53 g/m*3 4.58 C 9.13333 km/h
1417 05-11-2013 05:00:00 6.46667 C 6.44 g/m*3 4.02 C 12.08333 km/h
1418 05-11-2013 06:00:00 6.29167 C 6.35 g/m*3 4.85 C 7.24167 km/h
1419 05-11-2013 07:00:00 6.025 C 6.31 g/m*3 4.5 C 7.39167 km/h
1420 05-11-2013 08:00:00 5.29167 C 6.11 g/m*3 3.88 C 6.575 km/h
1421 05-11-2013 09:00:00 5.73333 C 6.23 g/m*3 3.46 C 10.35 km/h
1422 05-11-2013 10:00:00 5.8 C 6.15 g/m*3 3.49 C 10.61667 km/h
1423 05-11-2013 11:00:00 6.425 C 6.29 g/m*3 4.16 C 11.03333 km/h
1424 05-11-2013 12:00:00 7.60833 C 6.63 g/m*3 6.28 C 7.65833 km/h
1425 05-11-2013 13:00:00 8.24167 C 6.65 g/m*3 6.73 C 9.00833 km/h
Sensor: Nr:Datum:Temp:Abs-Feuchte:Windchill:Wind:
Aussen-T/F 1426 05-11-2013 14:00:00 7.9 C 6.48 g/m*3 7.05 C 6.03333 km/h
1427 05-11-2013 15:00:00 7.425 C 6.25 g/m*3 7.43 C 4.40833 km/h
1428 05-11-2013 16:00:00 7.09167 C 6.5 g/m*3 7.09 C 3.875 km/h
1429 05-11-2013 17:00:00 6.81667 C 6.68 g/m*3 6.82 C 3.475 km/h
1430 05-11-2013 18:00:00 6.68333 C 6.89 g/m*3 6.68 C 1.6 km/h
1431 05-11-2013 19:00:00 6.5 C 7.09 g/m*3 6.5 C 0.26667 km/h
1432 05-11-2013 20:00:00 6.625 C 7.28 g/m*3 6.63 C 0.53333 km/h
1433 05-11-2013 21:00:00 7.28333 C 7.57 g/m*3 6.51 C 5.49167 km/h
1434 05-11-2013 22:00:00 8.075 C 7.89 g/m*3 8.07 C 4.40833 km/h
1435 05-11-2013 23:00:00 8.76667 C 7.87 g/m*3 7.49 C 8.33333 km/h
1436 06-11-2013 00:00:00 8.50833 C 7.52 g/m*3 7.37 C 7.50833 km/h
1437 06-11-2013 01:00:00 8.24167 C 7.24 g/m*3 7.09 C 7.375 km/h
1438 06-11-2013 02:00:00 8.28333 C 7.26 g/m*3 7.1 C 7.525 km/h
1439 06-11-2013 03:00:00 8.06667 C 7.56 g/m*3 7.13 C 6.43333 km/h
1440 06-11-2013 04:00:00 8.1 C 7.46 g/m*3 8.1 C 4.4 km/h
1441 06-11-2013 05:00:00 8.01667 C 7.46 g/m*3 8.02 C 4.54167 km/h
1442 06-11-2013 06:00:00 8.26667 C 7.52 g/m*3 8.27 C 3.33333 km/h
1443 06-11-2013 07:00:00 7.94167 C 7.59 g/m*3 7.94 C 1.6 km/h
1444 06-11-2013 08:00:00 8.80833 C 7.81 g/m*3 8.81 C 4.15 km/h
1445 06-11-2013 09:00:00 9.86667 C 8.11 g/m*3 8.95 C 7.53333 km/h
1446 06-11-2013 10:00:00 10.46364 C 8.21 g/m*3 9.27 C 9.52727 km/h
1447 06-11-2013 11:00:00 11.25833 C 8.3 g/m*3 11.26 C 11.29167 km/h
1448 06-11-2013 12:00:00 11.60833 C 8.35 g/m*3 11.61 C 9.54167 km/h
1449 06-11-2013 13:00:00 11.775 C 8.66 g/m*3 11.78 C 7.78333 km/h
1450 06-11-2013 14:00:00 11.65 C 8.98 g/m*3 11.65 C 5.89167 km/h
Sensor: Nr:Datum:Temp:Abs-Feuchte:Windchill:Wind:
Aussen-T/F 1451 06-11-2013 15:00:00 11.25 C 9.33 g/m*3 11.25 C 1.33333 km/h
1452 06-11-2013 16:00:00 10.8 C 9.38 g/m*3 10.8 C 0.8 km/h
1453 06-11-2013 17:00:00 10.625 C 9.38 g/m*3 10.63 C 0 km/h
1454 06-11-2013 18:00:00 11.80833 C 10.15 g/m*3 11.81 C 9.11667 km/h
1455 06-11-2013 19:00:00 13.75833 C 10.93 g/m*3 13.76 C 11 km/h
1456 06-11-2013 20:00:00 14.11667 C 10.86 g/m*3 14.12 C 12.23333 km/h
1457 06-11-2013 21:00:00 14.23333 C 10.86 g/m*3 14.23 C 7.91667 km/h
1458 06-11-2013 22:00:00 14.31667 C 10.75 g/m*3 14.32 C 13.3 km/h
1459 06-11-2013 23:00:00 14.50833 C 10.79 g/m*3 14.51 C 16.23333 km/h
1460 07-11-2013 00:00:00 14.60833 C 10.79 g/m*3 14.61 C 15.43333 km/h
1461 07-11-2013 01:00:00 14.6 C 10.9 g/m*3 14.6 C 12.75833 km/h
1462 07-11-2013 02:00:00 15 C 10.81 g/m*3 15 C 16.36667 km/h
1463 07-11-2013 03:00:00 15 C 10.64 g/m*3 15 C 12.1 km/h
1464 07-11-2013 04:00:00 14.80833 C 10.62 g/m*3 14.81 C 13.7 km/h
1465 07-11-2013 05:00:00 14.69167 C 10.62 g/m*3 14.69 C 26.55833 km/h
1466 07-11-2013 06:00:00 14.76667 C 10.48 g/m*3 14.77 C 24 km/h
1467 07-11-2013 07:00:00 14.71667 C 10.5 g/m*3 14.72 C 27.09167 km/h
1468 07-11-2013 08:00:00 14.325 C 10.59 g/m*3 14.33 C 21.175 km/h
1469 07-11-2013 09:00:00 14.56667 C 10.76 g/m*3 14.57 C 20.36667 km/h
1470 07-11-2013 10:00:00 15.04167 C 10.89 g/m*3 15.04 C 25.85833 km/h
1471 07-11-2013 11:00:00 15.65 C 10.97 g/m*3 15.65 C 22.63333 km/h
1472 07-11-2013 12:00:00 15.85 C 10.99 g/m*3 15.85 C 20.50833 km/h
1473 07-11-2013 13:00:00 16.19167 C 11.11 g/m*3 16.19 C 18.1 km/h
1474 07-11-2013 14:00:00 16.31667 C 11.06 g/m*3 16.32 C 20.1 km/h
1475 07-11-2013 15:00:00 16.3 C 10.95 g/m*3 16.3 C 18.1 km/h
Sensor: Nr:Datum:Temp:Abs-Feuchte:Windchill:Wind:
Aussen-T/F 1476 07-11-2013 16:00:00 15.70833 C 10.9 g/m*3 15.71 C 12.5 km/h
1477 07-11-2013 17:00:00 15.175 C 10.91 g/m*3 15.18 C 9.675 km/h
1478 07-11-2013 18:00:00 14.54167 C 10.98 g/m*3 14.54 C 7.24167 km/h
1479 07-11-2013 19:00:00 13.9 C 10.89 g/m*3 13.9 C 5.225 km/h
1480 07-11-2013 20:00:00 14.36667 C 10.94 g/m*3 14.37 C 6.04167 km/h
1481 07-11-2013 21:00:00 15.01667 C 10.99 g/m*3 15.02 C 7.64167 km/h
1482 07-11-2013 22:00:00 15.15833 C 11.09 g/m*3 15.16 C 8.99167 km/h
1483 07-11-2013 23:00:00 14.69167 C 11.23 g/m*3 14.69 C 7.38333 km/h
1484 08-11-2013 00:00:00 15.00833 C 11.28 g/m*3 15.01 C 7.91667 km/h
1485 08-11-2013 01:00:00 13.65 C 10.75 g/m*3 13.65 C 10.19167 km/h
1486 08-11-2013 02:00:00 11.9 C 9.96 g/m*3 11.9 C 6 km/h
1487 08-11-2013 05:00:00 10.75714 C 9.56 g/m*3 10.76 C 0.45714 km/h
1488 08-11-2013 06:00:00 10.525 C 9.42 g/m*3 10.53 C 1.33333 km/h
1489 08-11-2013 07:00:00 10.06667 C 9.15 g/m*3 10.07 C 0.26667 km/h
1490 08-11-2013 08:00:00 10.11667 C 9.27 g/m*3 10.12 C 0 km/h
1491 08-11-2013 09:00:00 10.55 C 9.53 g/m*3 10.55 C 0 km/h
1492 08-11-2013 10:00:00 11.2 C 9.87 g/m*3 11.2 C 4.825 km/h
1493 08-11-2013 11:00:00 11.98333 C 9.95 g/m*3 11.98 C 3.46667 km/h
1494 08-11-2013 12:00:00 12.61667 C 10.06 g/m*3 12.62 C 0.8 km/h
1495 08-11-2013 13:00:00 13.325 C 10.44 g/m*3 13.33 C 1.73333 km/h
1496 08-11-2013 14:00:00 13.25 C 10.32 g/m*3 13.25 C 0.66667 km/h
1497 08-11-2013 15:00:00 12.09167 C 10.1 g/m*3 12.09 C 0 km/h
1498 08-11-2013 16:00:00 11.41111 C 9.88 g/m*3 11.41 C 1.96667 km/h
1499 08-11-2013 17:00:00 11.2 C 9.58 g/m*3 11.2 C 6.7 km/h
1500 08-11-2013 18:00:00 11.29167 C 9.6 g/m*3 11.29 C 5.225 km/h
Sensor: Nr:Datum:Temp:Abs-Feuchte:Windchill:Wind:
Aussen-T/F 1501 08-11-2013 20:00:00 10.3625 C 9.29 g/m*3 10.36 C 2 km/h
1502 08-11-2013 21:00:00 11.38 C 9.8 g/m*3 11.38 C 10.64 km/h
1503 08-11-2013 22:00:00 12.45 C 9.58 g/m*3 12.45 C 14.36667 km/h
1504 08-11-2013 23:00:00 12.6 C 9.24 g/m*3 12.6 C 18.775 km/h
1505 09-11-2013 00:00:00 12.175 C 8.99 g/m*3 12.18 C 13.83333 km/h
1506 09-11-2013 01:00:00 11.99167 C 8.74 g/m*3 11.99 C 16.1 km/h
1507 09-11-2013 02:00:00 11.4 C 8.63 g/m*3 11.4 C 12.49167 km/h
1508 09-11-2013 03:00:00 10.775 C 8.06 g/m*3 8.82 C 15.43333 km/h
1509 09-11-2013 04:00:00 10.2 C 7.44 g/m*3 7.96 C 16.76667 km/h
1510 09-11-2013 05:00:00 9.58333 C 7.5 g/m*3 8.14 C 9.96667 km/h
1511 09-11-2013 06:00:00 8.95833 C 7.26 g/m*3 7.57 C 9.01667 km/h
1512 09-11-2013 07:00:00 8.61667 C 7.1 g/m*3 6.8 C 11.025 km/h
1513 09-11-2013 08:00:00 8.05833 C 6.99 g/m*3 6.87 C 7.39167 km/h
1514 09-11-2013 09:00:00 8.46667 C 7.21 g/m*3 7 C 8.98333 km/h
1515 09-11-2013 10:00:00 9.4 C 7.31 g/m*3 8.05 C 9.25833 km/h
1516 09-11-2013 11:00:00 9.79167 C 7.22 g/m*3 7.86 C 13.43333 km/h
1517 09-11-2013 12:00:00 10.05 C 6.94 g/m*3 7.77 C 16.76667 km/h
1518 09-11-2013 13:00:00 9.93333 C 6.78 g/m*3 8.12 C 12.75833 km/h
1519 09-11-2013 14:00:00 10.05833 C 6.89 g/m*3 8.56 C 10.875 km/h
1520 09-11-2013 15:00:00 9.8 C 6.9 g/m*3 9.27 C 5.90833 km/h
1521 09-11-2013 16:00:00 8.625 C 6.99 g/m*3 8.63 C 3.60833 km/h
1522 09-11-2013 17:00:00 7.41667 C 7.02 g/m*3 7.42 C 1.33333 km/h
1523 09-11-2013 18:00:00 7.28333 C 6.93 g/m*3 7.28 C 1.2 km/h
1524 09-11-2013 19:00:00 8.25 C 7.02 g/m*3 8.25 C 4.69167 km/h
1525 09-11-2013 20:00:00 9.11667 C 7.07 g/m*3 8.41 C 6.15833 km/h
Sensor: Nr:Datum:Temp:Abs-Feuchte:Windchill:Wind:
Aussen-T/F 1526 09-11-2013 21:00:00 9.25833 C 7.22 g/m*3 9.26 C 4.28333 km/h
1527 09-11-2013 22:00:00 9.36667 C 7.45 g/m*3 8.14 C 8.58333 km/h
1528 09-11-2013 23:00:00 9.13333 C 7.36 g/m*3 7.23 C 12.225 km/h
1529 10-11-2013 00:00:00 8.9 C 7.38 g/m*3 7.25 C 10.35 km/h
1530 10-11-2013 01:00:00 8.86667 C 7.39 g/m*3 8.05 C 6.43333 km/h
1531 10-11-2013 02:00:00 8.74167 C 7.46 g/m*3 7.4 C 8.6 km/h
1532 10-11-2013 03:00:00 8.725 C 7.41 g/m*3 7.92 C 6.3 km/h
1533 10-11-2013 04:00:00 8.21667 C 7.36 g/m*3 8.22 C 3.61667 km/h
1534 10-11-2013 05:00:00 8.1 C 7.36 g/m*3 8.1 C 2.41667 km/h
1535 10-11-2013 06:00:00 7.16667 C 7.19 g/m*3 7.17 C 0 km/h
1536 10-11-2013 07:00:00 6.65833 C 7.11 g/m*3 6.66 C 0 km/h
1537 10-11-2013 08:00:00 6.71667 C 7.17 g/m*3 6.72 C 0 km/h
1538 10-11-2013 09:00:00 7.025 C 7.37 g/m*3 7.03 C 0.13333 km/h
1539 10-11-2013 10:00:00 6.65 C 7.09 g/m*3 6.65 C 3.625 km/h
1540 10-11-2013 11:00:00 6.55 C 6.99 g/m*3 6.55 C 3.625 km/h
1541 10-11-2013 12:00:00 6.13333 C 6.74 g/m*3 4.85 C 6.575 km/h
1542 10-11-2013 13:00:00 6.56667 C 6.86 g/m*3 4.65 C 9.41667 km/h
1543 10-11-2013 14:00:00 6.41667 C 6.56 g/m*3 4.66 C 8.59167 km/h
1544 10-11-2013 15:00:00 6.58333 C 6.76 g/m*3 5.66 C 5.63333 km/h
1545 10-11-2013 16:00:00 6.75 C 6.68 g/m*3 5.57 C 6.56667 km/h
1546 10-11-2013 17:00:00 6.79167 C 6.68 g/m*3 6.79 C 4.95833 km/h
1547 10-11-2013 18:00:00 5.85833 C 6.5 g/m*3 4.57 C 6.43333 km/h
1548 10-11-2013 19:00:00 5.175 C 6.51 g/m*3 5.18 C 4.96667 km/h
1549 10-11-2013 20:00:00 4.94167 C 6.4 g/m*3 4.94 C 2 km/h
1550 10-11-2013 21:00:00 4.51667 C 6.32 g/m*3 4.52 C 1.86667 km/h
Sensor: Nr:Datum:Temp:Abs-Feuchte:Windchill:Wind:
Aussen-T/F 1551 10-11-2013 22:00:00 4.5 C 6.37 g/m*3 4.5 C 0.4 km/h
1552 10-11-2013 23:00:00 3.94167 C 6.14 g/m*3 3.94 C 0.26667 km/h
1553 11-11-2013 00:00:00 3.59167 C 6 g/m*3 3.59 C 0.8 km/h
1554 11-11-2013 01:00:00 3.66667 C 6.03 g/m*3 3.67 C 0 km/h
1555 11-11-2013 02:00:00 3.625 C 6.01 g/m*3 3.63 C 0.4 km/h
1556 11-11-2013 03:00:00 3.23333 C 5.86 g/m*3 3.23 C 0.4 km/h
1557 11-11-2013 04:00:00 2.675 C 5.64 g/m*3 2.68 C 0 km/h
1558 11-11-2013 05:00:00 2.66667 C 5.65 g/m*3 2.67 C 0 km/h
1559 11-11-2013 06:00:00 2.85 C 5.75 g/m*3 2.85 C 3.89167 km/h
1560 11-11-2013 07:00:00 2.96667 C 5.8 g/m*3 0.47 C 9.01667 km/h
1561 11-11-2013 08:00:00 2.875 C 5.77 g/m*3 0.47 C 8.61667 km/h
1562 11-11-2013 09:00:00 3.3 C 5.95 g/m*3 1.19 C 7.8 km/h
1563 11-11-2013 10:00:00 3.725 C 6.12 g/m*3 1.58 C 8.2 km/h
1564 11-11-2013 11:00:00 4.40833 C 6.38 g/m*3 2.57 C 7.525 km/h
1565 11-11-2013 12:00:00 5.19167 C 6.62 g/m*3 5.19 C 3.86667 km/h
1566 11-11-2013 13:00:00 6.03333 C 6.8 g/m*3 5.22 C 5.08333 km/h
1567 11-11-2013 14:00:00 6.33333 C 6.83 g/m*3 6.33 C 2.93333 km/h
1568 11-11-2013 15:00:00 6.36667 C 6.86 g/m*3 6.37 C 3.06667 km/h
1569 11-11-2013 16:00:00 5.86667 C 6.73 g/m*3 5.87 C 1.2 km/h
1570 11-11-2013 17:00:00 4.68333 C 6.33 g/m*3 4.68 C 0.26667 km/h
1571 11-11-2013 18:00:00 4.21667 C 6.21 g/m*3 4.22 C 0.4 km/h
1572 11-11-2013 19:00:00 4.44167 C 6.34 g/m*3 4.44 C 0.26667 km/h
1573 11-11-2013 20:00:00 3.94167 C 6.14 g/m*3 3.94 C 2.13333 km/h
1574 11-11-2013 21:00:00 3.24167 C 5.81 g/m*3 3.24 C 1.2 km/h
1575 11-11-2013 22:00:00 3.31667 C 5.89 g/m*3 3.32 C 0 km/h
Sensor: Nr:Datum:Temp:Abs-Feuchte:Windchill:Wind:
Aussen-T/F 1576 11-11-2013 23:00:00 2.96667 C 5.75 g/m*3 2.97 C 0.4 km/h
1577 12-11-2013 00:00:00 2.56667 C 5.6 g/m*3 2.57 C 2.4 km/h
1578 12-11-2013 01:00:00 2.31667 C 5.51 g/m*3 2.32 C 1.2 km/h
1579 12-11-2013 02:00:00 2.13333 C 5.44 g/m*3 2.13 C 0.13333 km/h
1580 12-11-2013 03:00:00 1.79167 C 5.31 g/m*3 1.79 C 0.26667 km/h
1581 12-11-2013 04:00:00 1.55 C 5.23 g/m*3 1.55 C 0 km/h
1582 12-11-2013 05:00:00 1.51667 C 5.22 g/m*3 1.52 C 0 km/h
1583 12-11-2013 06:00:00 1.35 C 5.16 g/m*3 1.35 C 0 km/h
1584 12-11-2013 07:00:00 1.025 C 5.04 g/m*3 1.02 C 0 km/h
1585 12-11-2013 08:00:00 0.91667 C 5.01 g/m*3 0.92 C 0 km/h
1586 12-11-2013 09:00:00 1.28333 C 5.14 g/m*3 1.28 C 0 km/h
1587 12-11-2013 10:00:00 2.25833 C 5.53 g/m*3 2.26 C 0.13333 km/h
1588 12-11-2013 11:00:00 3.11667 C 5.85 g/m*3 3.12 C 0.26667 km/h
1589 12-11-2013 12:00:00 5.74167 C 6.64 g/m*3 5.74 C 1.86667 km/h
1590 12-11-2013 13:00:00 7.45 C 6.82 g/m*3 7.45 C 2.93333 km/h
1591 12-11-2013 14:00:00 8.15833 C 6.92 g/m*3 8.16 C 4.95 km/h
1592 12-11-2013 15:00:00 8.30833 C 7.17 g/m*3 8.31 C 1.46667 km/h
1593 12-11-2013 16:00:00 7.78333 C 7.21 g/m*3 7.78 C 0.13333 km/h
1594 12-11-2013 17:00:00 7.14167 C 6.91 g/m*3 7.14 C 0.53333 km/h
1595 12-11-2013 18:00:00 6.975 C 6.98 g/m*3 6.98 C 2 km/h
1596 12-11-2013 19:00:00 6.61667 C 7.01 g/m*3 6.62 C 1.33333 km/h
1597 12-11-2013 20:00:00 6.61667 C 6.99 g/m*3 6.62 C 1.46667 km/h
1598 12-11-2013 21:00:00 6.45 C 7.04 g/m*3 6.45 C 2.4 km/h
1599 12-11-2013 22:00:00 6.38333 C 7.14 g/m*3 6.38 C 0.4 km/h
1600 12-11-2013 23:00:00 6.425 C 7.22 g/m*3 6.43 C 0 km/h
Sensor: Nr:Datum:Temp:Abs-Feuchte:Windchill:Wind:
Aussen-T/F 1601 13-11-2013 00:00:00 6.675 C 7.36 g/m*3 6.68 C 0 km/h
1602 13-11-2013 01:00:00 6.84167 C 7.44 g/m*3 6.84 C 0.13333 km/h
1603 13-11-2013 02:00:00 7.275 C 7.68 g/m*3 7.28 C 0.4 km/h
1604 13-11-2013 03:00:00 7.59167 C 7.84 g/m*3 7.59 C 2.13333 km/h
1605 13-11-2013 04:00:00 7.6 C 7.81 g/m*3 7.6 C 0.8 km/h
1606 13-11-2013 05:00:00 7.41667 C 7.72 g/m*3 7.42 C 0.8 km/h
1607 13-11-2013 06:00:00 7.04167 C 7.54 g/m*3 7.04 C 1.86667 km/h
1608 13-11-2013 07:00:00 7.05 C 7.47 g/m*3 7.05 C 1.46667 km/h
1609 13-11-2013 08:00:00 6.725 C 7.31 g/m*3 6.73 C 0 km/h
1610 13-11-2013 09:00:00 6.375 C 7.15 g/m*3 6.38 C 0.26667 km/h
1611 13-11-2013 10:00:00 7.05833 C 7.42 g/m*3 7.06 C 1.06667 km/h
1612 13-11-2013 11:00:00 8.08333 C 7.53 g/m*3 8.08 C 3.86667 km/h
1613 13-11-2013 12:00:00 8.43333 C 7.47 g/m*3 8.43 C 2.4 km/h
1614 13-11-2013 13:00:00 8.69167 C 7.35 g/m*3 8.69 C 1.46667 km/h
1615 13-11-2013 14:00:00 8.45833 C 7.02 g/m*3 7.89 C 5.36667 km/h
1616 13-11-2013 15:00:00 8.90833 C 7.02 g/m*3 8.91 C 4.16667 km/h
1617 13-11-2013 16:00:00 6.50833 C 6.81 g/m*3 6.51 C 2.53333 km/h
1618 13-11-2013 17:00:00 5.54167 C 6.51 g/m*3 5.54 C 4.13333 km/h
1619 13-11-2013 18:00:00 4.78333 C 6.26 g/m*3 4.78 C 0.93333 km/h
1620 13-11-2013 19:00:00 3.65833 C 5.89 g/m*3 3.66 C 0 km/h
1621 13-11-2013 20:00:00 3.07273 C 5.72 g/m*3 3.07 C 0 km/h
1622 13-11-2013 21:00:00 2.49 C 5.51 g/m*3 2.49 C 0 km/h
1623 13-11-2013 22:00:00 2.05 C 5.39 g/m*3 2.05 C 0 km/h
1624 13-11-2013 23:00:00 1.60833 C 5.24 g/m*3 1.61 C 0 km/h
1625 14-11-2013 00:00:00 1.59167 C 5.24 g/m*3 1.59 C 0.13333 km/h
Sensor: Nr:Datum:Temp:Abs-Feuchte:Windchill:Wind:
Aussen-T/F 1626 14-11-2013 01:00:00 1.30833 C 5.14 g/m*3 1.31 C 0.66667 km/h
1627 14-11-2013 02:00:00 1.225 C 5.13 g/m*3 1.23 C 2.26667 km/h
1628 14-11-2013 03:00:00 0.925 C 5.03 g/m*3 0.93 C 3.33333 km/h
1629 14-11-2013 04:00:00 0.875 C 5.04 g/m*3 0.88 C 1.73333 km/h
1630 14-11-2013 05:00:00 0.64167 C 4.96 g/m*3 0.64 C 1.86667 km/h
1631 14-11-2013 06:00:00 0.5 C 4.91 g/m*3 0.5 C 2.4 km/h
1632 14-11-2013 07:00:00 0.6 C 4.95 g/m*3 0.6 C 3.46667 km/h
1633 14-11-2013 08:00:00 0.725 C 4.99 g/m*3 0.73 C 2.26667 km/h
1634 14-11-2013 09:00:00 1.35 C 5.21 g/m*3 1.35 C 1.2 km/h
1635 14-11-2013 10:00:00 2.05833 C 5.47 g/m*3 2.06 C 2.93333 km/h
1636 14-11-2013 11:00:00 2.95 C 5.81 g/m*3 2.95 C 1.86667 km/h
1637 14-11-2013 12:00:00 4.575 C 6.29 g/m*3 2.16 C 9.94167 km/h
1638 14-11-2013 13:00:00 5.41667 C 6.15 g/m*3 4.1 C 6.30833 km/h
1639 14-11-2013 14:00:00 5.96667 C 6.14 g/m*3 5.01 C 5.475 km/h
1640 14-11-2013 15:00:00 6 C 6.16 g/m*3 5.09 C 5.35833 km/h
1641 14-11-2013 16:00:00 5.525 C 6.38 g/m*3 5.53 C 1.2 km/h
1642 14-11-2013 17:00:00 5.10833 C 6.5 g/m*3 5.11 C 0.53333 km/h
1643 14-11-2013 18:00:00 5.05 C 6.53 g/m*3 5.05 C 0 km/h
1644 14-11-2013 19:00:00 5.06667 C 6.55 g/m*3 5.07 C 0.13333 km/h
1645 14-11-2013 20:00:00 5.16667 C 6.62 g/m*3 5.17 C 0.13333 km/h
1646 14-11-2013 21:00:00 5.40833 C 6.59 g/m*3 5.41 C 2.14167 km/h
1647 14-11-2013 22:00:00 5.45 C 6.52 g/m*3 5.45 C 0.8 km/h
1648 14-11-2013 23:00:00 5.275 C 6.57 g/m*3 5.28 C 0 km/h
1649 15-11-2013 00:00:00 5.125 C 6.58 g/m*3 5.13 C 0 km/h
1650 15-11-2013 01:00:00 4.975 C 6.51 g/m*3 4.97 C 0.26667 km/h
Sensor: Nr:Datum:Temp:Abs-Feuchte:Windchill:Wind:
Aussen-T/F 1651 15-11-2013 02:00:00 5.04167 C 6.54 g/m*3 5.04 C 0 km/h
1652 15-11-2013 03:00:00 4.95 C 6.5 g/m*3 4.95 C 0 km/h
1653 15-11-2013 04:00:00 5.15 C 6.59 g/m*3 5.15 C 0 km/h
1654 15-11-2013 05:00:00 5.20833 C 6.61 g/m*3 5.21 C 0 km/h
1655 15-11-2013 06:00:00 5.23333 C 6.62 g/m*3 5.23 C 0 km/h
1656 15-11-2013 07:00:00 5.225 C 6.62 g/m*3 5.23 C 0.66667 km/h
1657 15-11-2013 08:00:00 5.29167 C 6.65 g/m*3 5.29 C 0.4 km/h
1658 15-11-2013 09:00:00 4.7 C 6.37 g/m*3 4.7 C 2.26667 km/h
1659 15-11-2013 10:00:00 5.93333 C 6.82 g/m*3 5.93 C 2 km/h
1660 15-11-2013 11:00:00 7.10833 C 6.77 g/m*3 6.45 C 5.08333 km/h
1661 15-11-2013 12:00:00 7.53333 C 6.62 g/m*3 7.53 C 4.41667 km/h
1662 15-11-2013 13:00:00 7.93333 C 6.29 g/m*3 6.86 C 6.84167 km/h
1663 15-11-2013 14:00:00 7.56667 C 5.95 g/m*3 6.66 C 6.03333 km/h
1664 15-11-2013 15:00:00 6.475 C 5.98 g/m*3 6.48 C 2.93333 km/h
1665 15-11-2013 16:00:00 5.575 C 5.92 g/m*3 5.58 C 3.46667 km/h
1666 15-11-2013 17:00:00 4.775 C 5.75 g/m*3 4.78 C 4.13333 km/h
1667 15-11-2013 18:00:00 4.21667 C 5.62 g/m*3 4.22 C 2.66667 km/h
1668 15-11-2013 19:00:00 3.41667 C 5.45 g/m*3 3.42 C 2.13333 km/h
1669 15-11-2013 20:00:00 2.61667 C 5.28 g/m*3 2.62 C 0 km/h
1670 15-11-2013 21:00:00 2.1 C 5.2 g/m*3 2.1 C 0.13333 km/h
1671 15-11-2013 22:00:00 1.91667 C 5.18 g/m*3 1.92 C 0.66667 km/h
1672 15-11-2013 23:00:00 1.74167 C 5.16 g/m*3 1.74 C 0.66667 km/h
1673 16-11-2013 00:00:00 2.10833 C 5.32 g/m*3 2.11 C 0 km/h
1674 16-11-2013 01:00:00 2.44167 C 5.44 g/m*3 2.44 C 0.13333 km/h
1675 16-11-2013 02:00:00 2.85 C 5.5 g/m*3 2.85 C 0 km/h
Sensor: Nr:Datum:Temp:Abs-Feuchte:Windchill:Wind:
Aussen-T/F 1676 16-11-2013 03:00:00 3.06667 C 5.55 g/m*3 3.07 C 0 km/h
1677 16-11-2013 04:00:00 3.1 C 5.57 g/m*3 3.1 C 0 km/h
1678 16-11-2013 05:00:00 3.14167 C 5.58 g/m*3 3.14 C 0 km/h
1679 16-11-2013 06:00:00 3.2 C 5.63 g/m*3 3.2 C 0 km/h
1680 16-11-2013 07:00:00 3.30833 C 5.7 g/m*3 3.31 C 0 km/h
1681 16-11-2013 08:00:00 3.64167 C 5.81 g/m*3 3.64 C 0 km/h
1682 16-11-2013 09:00:00 4.25833 C 5.82 g/m*3 4.26 C 3.86667 km/h
1683 16-11-2013 10:00:00 4.7 C 5.75 g/m*3 2.73 C 8.21667 km/h
1684 16-11-2013 11:00:00 4.99167 C 5.78 g/m*3 3.53 C 6.575 km/h
1685 16-11-2013 12:00:00 5.29167 C 5.92 g/m*3 4.29 C 5.34167 km/h
1686 16-11-2013 13:00:00 5.49167 C 5.98 g/m*3 4.24 C 6.15 km/h
1687 16-11-2013 14:00:00 5.375 C 5.91 g/m*3 4.43 C 5.21667 km/h
1688 16-11-2013 15:00:00 4.98333 C 5.8 g/m*3 4.98 C 2.8 km/h
1689 16-11-2013 16:00:00 3.15 C 5.46 g/m*3 3.15 C 0.4 km/h
1690 16-11-2013 17:00:00 2.16667 C 5.25 g/m*3 2.17 C 3.06667 km/h
1691 16-11-2013 18:00:00 1.825 C 5.18 g/m*3 1.83 C 0.8 km/h
1692 16-11-2013 19:00:00 1.425 C 5.09 g/m*3 1.43 C 0 km/h
1693 16-11-2013 20:00:00 1.175 C 5.04 g/m*3 1.18 C 0 km/h
1694 16-11-2013 21:00:00 0.85 C 4.93 g/m*3 0.85 C 0 km/h
1695 16-11-2013 22:00:00 0.44167 C 4.8 g/m*3 0.44 C 0 km/h
1696 16-11-2013 23:00:00 0.21667 C 4.75 g/m*3 0.22 C 0 km/h
1697 17-11-2013 00:00:00 0.60833 C 4.9 g/m*3 0.61 C 0 km/h
1698 17-11-2013 01:00:00 0.95833 C 5.02 g/m*3 0.96 C 0 km/h
1699 17-11-2013 02:00:00 1.325 C 5.15 g/m*3 1.33 C 0 km/h
1700 17-11-2013 03:00:00 1.65833 C 5.27 g/m*3 1.66 C 0.93333 km/h
Sensor: Nr:Datum:Temp:Abs-Feuchte:Windchill:Wind:
Aussen-T/F 1701 17-11-2013 04:00:00 1.7 C 5.28 g/m*3 1.7 C 0.53333 km/h
1702 17-11-2013 05:00:00 1.79167 C 5.31 g/m*3 1.79 C 0 km/h
1703 17-11-2013 06:00:00 2.05833 C 5.41 g/m*3 2.06 C 0.13333 km/h
1704 17-11-2013 07:00:00 2.225 C 5.47 g/m*3 2.23 C 1.73333 km/h
1705 17-11-2013 08:00:00 2.4 C 5.54 g/m*3 2.4 C 1.86667 km/h
1706 17-11-2013 09:00:00 2.525 C 5.54 g/m*3 2.53 C 4.26667 km/h
1707 17-11-2013 10:00:00 2.60833 C 5.47 g/m*3 2.61 C 1.46667 km/h
1708 17-11-2013 11:00:00 3.18333 C 5.62 g/m*3 3.18 C 0 km/h
1709 17-11-2013 12:00:00 3.925 C 5.87 g/m*3 3.93 C 2.53333 km/h
1710 17-11-2013 13:00:00 4.5 C 6.04 g/m*3 3.38 C 5.35 km/h
1711 17-11-2013 14:00:00 4.68333 C 6.07 g/m*3 4.68 C 4.54167 km/h
1712 17-11-2013 15:00:00 4.80833 C 6.1 g/m*3 4.81 C 2 km/h
1713 17-11-2013 16:00:00 4.84167 C 6.14 g/m*3 4.84 C 0.26667 km/h
1714 17-11-2013 17:00:00 4.61667 C 6.14 g/m*3 4.62 C 0 km/h
1715 17-11-2013 18:00:00 4.33333 C 6.07 g/m*3 4.33 C 0 km/h
1716 17-11-2013 19:00:00 4.33333 C 6.09 g/m*3 4.33 C 0 km/h
1717 17-11-2013 20:00:00 4.40833 C 6.14 g/m*3 4.41 C 0 km/h
1718 17-11-2013 21:00:00 4.55 C 6.2 g/m*3 4.55 C 0 km/h
1719 17-11-2013 22:00:00 4.6 C 6.22 g/m*3 4.6 C 0 km/h
1720 17-11-2013 23:00:00 4.6 C 6.24 g/m*3 4.6 C 0 km/h
1721 18-11-2013 00:00:00 4.66667 C 6.31 g/m*3 4.67 C 0 km/h
1722 18-11-2013 01:00:00 4.83333 C 6.29 g/m*3 4.83 C 1.06667 km/h
1723 18-11-2013 02:00:00 4.81667 C 6.31 g/m*3 4.82 C 0 km/h
1724 18-11-2013 03:00:00 4.73333 C 6.33 g/m*3 4.73 C 0 km/h
1725 18-11-2013 04:00:00 4.7 C 6.37 g/m*3 4.7 C 0.13333 km/h
Sensor: Nr:Datum:Temp:Abs-Feuchte:Windchill:Wind:
Aussen-T/F 1726 18-11-2013 05:00:00 4.7 C 6.39 g/m*3 4.7 C 0 km/h
1727 18-11-2013 06:00:00 4.7 C 6.39 g/m*3 4.7 C 0.13333 km/h
1728 18-11-2013 07:00:00 4.76667 C 6.42 g/m*3 4.77 C 0.13333 km/h
1729 18-11-2013 08:00:00 4.8 C 6.45 g/m*3 4.8 C 0 km/h
1730 18-11-2013 09:00:00 4.88571 C 6.47 g/m*3 4.89 C 0 km/h
1731 18-11-2013 10:00:00 5.17 C 6.59 g/m*3 5.17 C 0 km/h
1732 18-11-2013 11:00:00 5.60833 C 6.71 g/m*3 5.61 C 0.4 km/h
1733 18-11-2013 12:00:00 5.975 C 6.78 g/m*3 5.98 C 0.26667 km/h
1734 18-11-2013 13:00:00 6.4 C 6.83 g/m*3 6.4 C 2.93333 km/h
1735 18-11-2013 14:00:00 7.025 C 6.97 g/m*3 6.11 C 5.825 km/h
1736 18-11-2013 15:00:00 6.8 C 7.65 g/m*3 6.8 C 0 km/h
1737 18-11-2013 16:00:00 6.7 C 7.14 g/m*3 6.7 C 0.8 km/h
1738 18-11-2013 17:00:00 6.44167 C 6.57 g/m*3 6.44 C 1.86667 km/h
1739 18-11-2013 18:00:00 6.29167 C 6.59 g/m*3 6.29 C 2.13333 km/h
1740 18-11-2013 19:00:00 5.90833 C 6.66 g/m*3 5.91 C 0 km/h
1741 18-11-2013 20:00:00 5.8 C 6.66 g/m*3 5.8 C 0 km/h
1742 18-11-2013 21:00:00 5.65833 C 6.7 g/m*3 5.66 C 0.26667 km/h
1743 18-11-2013 22:00:00 5.5 C 6.73 g/m*3 5.5 C 0 km/h
1744 18-11-2013 23:00:00 5.4 C 6.7 g/m*3 5.4 C 0 km/h
1745 19-11-2013 00:00:00 5.44167 C 6.79 g/m*3 5.44 C 0 km/h
1746 19-11-2013 01:00:00 5.49167 C 6.81 g/m*3 5.49 C 0 km/h
1747 19-11-2013 02:00:00 5.425 C 6.78 g/m*3 5.43 C 0 km/h
1748 19-11-2013 03:00:00 5.5 C 6.81 g/m*3 5.5 C 0 km/h
1749 19-11-2013 04:00:00 5.51667 C 6.82 g/m*3 5.52 C 0 km/h
1750 19-11-2013 05:00:00 5.6 C 6.86 g/m*3 5.6 C 0 km/h
Sensor: Nr:Datum:Temp:Abs-Feuchte:Windchill:Wind:
Aussen-T/F 1751 19-11-2013 06:00:00 5.6 C 6.86 g/m*3 5.6 C 0 km/h
1752 19-11-2013 07:00:00 5.6 C 6.86 g/m*3 5.6 C 0 km/h
1753 19-11-2013 08:00:00 5.6 C 6.86 g/m*3 5.6 C 0 km/h
1754 19-11-2013 11:00:00 6.9 C 6.49 g/m*3 6.9 C 0 km/h
1755 19-11-2013 12:00:00 7.28333 C 6.52 g/m*3 7.28 C 3.33333 km/h
1756 19-11-2013 13:00:00 7.45 C 6.5 g/m*3 7.45 C 3.33333 km/h
1757 19-11-2013 14:00:00 7.525 C 6.53 g/m*3 7.53 C 0.8 km/h
1758 19-11-2013 15:00:00 7.50833 C 6.55 g/m*3 7.51 C 1.46667 km/h
1759 19-11-2013 16:00:00 6.95 C 6.66 g/m*3 5.31 C 8.475 km/h
1760 19-11-2013 17:00:00 6.26667 C 6.81 g/m*3 6.27 C 1.86667 km/h
1761 19-11-2013 21:00:00 5.8 C 6.95 g/m*3 5.8 C 0 km/h
1762 20-11-2013 04:00:00 6.08 C 6.71 g/m*3 4.38 C 8.08 km/h
1763 20-11-2013 05:00:00 5.83636 C 6.61 g/m*3 4.42 C 6.88182 km/h
1764 20-11-2013 06:00:00 5.3 C 6.34 g/m*3 3.31 C 8.7 km/h
1765 20-11-2013 07:00:00 4.96667 C 6.17 g/m*3 3.27 C 7.36667 km/h
1766 20-11-2013 08:00:00 4.7 C 6.06 g/m*3 3.24 C 6.43333 km/h
1767 20-11-2013 09:00:00 4.3 C 6.49 g/m*3 4.3 C 3.6 km/h
1768 20-11-2013 10:00:00 4.23333 C 5.88 g/m*3 2.69 C 6.45 km/h
1769 20-11-2013 11:00:00 4.34 C 5.92 g/m*3 3.04 C 5.78 km/h
1770 20-11-2013 17:00:00 3.525 C 5.73 g/m*3 3.53 C 1.33333 km/h
1771 20-11-2013 18:00:00 2.96667 C 5.55 g/m*3 2.97 C 1.86667 km/h
1772 20-11-2013 19:00:00 3.11667 C 5.57 g/m*3 3.12 C 1.6 km/h
1773 20-11-2013 20:00:00 3.125 C 5.48 g/m*3 3.13 C 0.93333 km/h
1774 20-11-2013 21:00:00 3.125 C 5.44 g/m*3 3.13 C 0.8 km/h
1775 20-11-2013 22:00:00 3.16667 C 5.44 g/m*3 3.17 C 0.4 km/h
Sensor: Nr:Datum:Temp:Abs-Feuchte:Windchill:Wind:
Aussen-T/F 1776 20-11-2013 23:00:00 3.26667 C 5.4 g/m*3 3.27 C 1.46667 km/h
1777 21-11-2013 00:00:00 3.2 C 5.41 g/m*3 3.2 C 0 km/h
1778 21-11-2013 01:00:00 3.28333 C 5.35 g/m*3 3.28 C 3.06667 km/h
1779 21-11-2013 02:00:00 3.03333 C 5.33 g/m*3 3.03 C 3.6 km/h
1780 21-11-2013 03:00:00 3.23333 C 5.1 g/m*3 1.83 C 5.625 km/h
1781 21-11-2013 04:00:00 3.275 C 5.17 g/m*3 1.98 C 5.35 km/h
1782 21-11-2013 05:00:00 3.13333 C 5.29 g/m*3 3.13 C 0.66667 km/h
1783 21-11-2013 06:00:00 2.8 C 5.36 g/m*3 2.8 C 0 km/h
1784 21-11-2013 07:00:00 3.05 C 5.5 g/m*3 3.05 C 0 km/h
1785 21-11-2013 08:00:00 3.325 C 5.62 g/m*3 3.33 C 0 km/h
1786 21-11-2013 09:00:00 3.75 C 5.8 g/m*3 3.75 C 0.13333 km/h
1787 21-11-2013 10:00:00 4.4 C 5.93 g/m*3 4.4 C 0 km/h
1788 21-11-2013 11:00:00 5.01667 C 6.13 g/m*3 5.02 C 1.875 km/h
1789 21-11-2013 12:00:00 5.75 C 6.3 g/m*3 5.75 C 3.33333 km/h
1790 21-11-2013 13:00:00 5.34167 C 6.34 g/m*3 5.34 C 3.475 km/h
1791 21-11-2013 14:00:00 5.19167 C 6.39 g/m*3 5.19 C 0.66667 km/h
1792 21-11-2013 15:00:00 5.16667 C 6.39 g/m*3 5.17 C 2.68333 km/h
1793 21-11-2013 16:00:00 5.13333 C 6.18 g/m*3 3.77 C 6.31667 km/h
1794 21-11-2013 17:00:00 4.875 C 5.91 g/m*3 3.81 C 5.35833 km/h
1795 21-11-2013 18:00:00 4.68889 C 5.66 g/m*3 2.85 C 7.7 km/h
1796 21-11-2013 19:00:00 4.3 C 5.51 g/m*3 2.15 C 8.61111 km/h
1797 21-11-2013 21:00:00 3.9 C 5.56 g/m*3 2.6 C 5.6 km/h
1798 22-11-2013 04:00:00 3.7 C 5.42 g/m*3 2.09 C 6.4 km/h
1799 22-11-2013 05:00:00 3.7 C 5.42 g/m*3 1.4 C 8.78889 km/h
1800 22-11-2013 07:00:00 3.9 C 5.48 g/m*3 1.76 C 8.3 km/h
Sensor: Nr:Datum:Temp:Abs-Feuchte:Windchill:Wind:
Aussen-T/F 1801 22-11-2013 08:00:00 3.99167 C 5.49 g/m*3 2.16 C 7.26667 km/h
1802 22-11-2013 09:00:00 4.05833 C 5.54 g/m*3 1.77 C 9.01667 km/h
1803 22-11-2013 10:00:00 4.20833 C 5.6 g/m*3 2.26 C 7.78333 km/h
1804 22-11-2013 11:00:00 4.40833 C 5.63 g/m*3 2.42 C 8.06667 km/h
1805 22-11-2013 12:00:00 4.775 C 5.75 g/m*3 2.65 C 8.88333 km/h
1806 22-11-2013 13:00:00 4.95 C 5.81 g/m*3 2.36 C 11.16667 km/h
1807 22-11-2013 14:00:00 4.99167 C 5.89 g/m*3 2.97 C 8.6 km/h
1808 22-11-2013 15:00:00 5.03333 C 5.97 g/m*3 3.36 C 7.32222 km/h
1809 23-11-2013 08:00:00 5.2 C 6.27 g/m*3 5.2 C 3.73333 km/h
1810 23-11-2013 11:00:00 6.77778 C 6.7 g/m*3 5.48 C 6.97778 km/h
1811 23-11-2013 12:00:00 7.35 C 6.84 g/m*3 5.61 C 9.275 km/h
1812 23-11-2013 13:00:00 7.7 C 6.57 g/m*3 5.45 C 12.5 km/h
1813 23-11-2013 14:00:00 7.7 C 6.53 g/m*3 5.74 C 10.75833 km/h
1814 23-11-2013 15:00:00 7.55833 C 6.55 g/m*3 5.83 C 9.41667 km/h
1815 23-11-2013 16:00:00 7.225 C 6.73 g/m*3 5.58 C 8.75 km/h
1816 23-11-2013 17:00:00 6.93333 C 6.8 g/m*3 5.56 C 7.375 km/h
1817 23-11-2013 18:00:00 6.81667 C 6.83 g/m*3 5.68 C 6.43333 km/h
1818 23-11-2013 19:00:00 6.725 C 6.85 g/m*3 5.5 C 6.7 km/h
1819 23-11-2013 20:00:00 6.71667 C 6.85 g/m*3 5.27 C 7.51667 km/h
1820 23-11-2013 21:00:00 6.8 C 6.86 g/m*3 5.4 C 7.375 km/h
1821 23-11-2013 22:00:00 6.8 C 6.88 g/m*3 5.7 C 6.3 km/h
1822 23-11-2013 23:00:00 6.8 C 6.88 g/m*3 6.8 C 2.80833 km/h
1823 24-11-2013 00:00:00 6.8 C 6.88 g/m*3 6.8 C 4.4 km/h
1824 24-11-2013 01:00:00 6.8 C 6.86 g/m*3 6.8 C 3.61667 km/h
1825 24-11-2013 02:00:00 6.71667 C 6.76 g/m*3 5.91 C 5.35 km/h
Sensor: Nr:Datum:Temp:Abs-Feuchte:Windchill:Wind:
Aussen-T/F 1826 24-11-2013 03:00:00 6.58333 C 6.6 g/m*3 5.53 C 6.03333 km/h
1827 24-11-2013 04:00:00 6.325 C 6.49 g/m*3 4.92 C 7.1 km/h
1828 24-11-2013 05:00:00 5.68333 C 6.4 g/m*3 4.03 C 7.65833 km/h
1829 24-11-2013 06:00:00 5.29167 C 6.3 g/m*3 3.8 C 6.84167 km/h
1830 24-11-2013 07:00:00 5.04167 C 6.15 g/m*3 5.04 C 4.80833 km/h
1831 24-11-2013 08:00:00 4.7 C 6 g/m*3 4.7 C 3.2 km/h
1832 24-11-2013 09:00:00 4.4 C 5.8 g/m*3 4.4 C 2.66667 km/h
1833 24-11-2013 10:00:00 5.375 C 5.96 g/m*3 5.38 C 2.93333 km/h
1834 24-11-2013 11:00:00 5.55 C 6.07 g/m*3 3.77 C 8.05833 km/h
1835 24-11-2013 12:00:00 4.94167 C 6.1 g/m*3 3.09 C 7.925 km/h
1836 24-11-2013 13:00:00 5.18333 C 6.26 g/m*3 4.02 C 5.75 km/h
1837 24-11-2013 14:00:00 5.4 C 6.35 g/m*3 4.41 C 5.33333 km/h
1838 24-11-2013 15:00:00 5.56667 C 6.49 g/m*3 4.28 C 6.3 km/h
1839 24-11-2013 16:00:00 5.8 C 6.6 g/m*3 5.8 C 4.40833 km/h
1840 24-11-2013 17:00:00 6.10833 C 6.5 g/m*3 4.74 C 6.85 km/h
1841 24-11-2013 18:00:00 6.12 C 5.99 g/m*3 3.96 C 10.17 km/h
1842 24-11-2013 19:00:00 5.6 C 4.97 g/m*3 5.6 C 4.8 km/h
1843 24-11-2013 20:00:00 5.5 C 4.92 g/m*3 5.5 C 1.6 km/h
1844 25-11-2013 09:00:00 0.53333 C 4.91 g/m*3 -1.77 C 6.96667 km/h
1845 25-11-2013 10:00:00 0.91667 C 4.76 g/m*3 -1.09 C 6.30833 km/h
1846 25-11-2013 11:00:00 1.41667 C 4.84 g/m*3 -0.88 C 7.375 km/h
1847 25-11-2013 12:00:00 2.10833 C 5.05 g/m*3 0.39 C 6.025 km/h
1848 25-11-2013 13:00:00 2.51667 C 5.23 g/m*3 2.52 C 4.55 km/h
1849 25-11-2013 14:00:00 2.93333 C 5.42 g/m*3 2.93 C 2.4 km/h
1850 25-11-2013 15:00:00 3.15 C 5.62 g/m*3 3.15 C 2.66667 km/h
Sensor: Nr:Datum:Temp:Abs-Feuchte:Windchill:Wind:
Aussen-T/F 1851 25-11-2013 16:00:00 3.625 C 5.87 g/m*3 3.63 C 1.33333 km/h
1852 25-11-2013 17:00:00 4.1 C 6.08 g/m*3 4.1 C 1.33333 km/h
1853 25-11-2013 18:00:00 4.075 C 6.1 g/m*3 4.08 C 1.74167 km/h
1854 25-11-2013 19:00:00 3.54167 C 5.86 g/m*3 3.54 C 0.53333 km/h
1855 25-11-2013 20:00:00 3.46667 C 5.88 g/m*3 3.47 C 3.35 km/h
1856 25-11-2013 21:00:00 3.1 C 5.59 g/m*3 1.74 C 5.475 km/h
1857 25-11-2013 22:00:00 2.15 C 5.17 g/m*3 2.15 C 2.66667 km/h
1858 25-11-2013 23:00:00 0.59167 C 4.78 g/m*3 0.59 C 4 km/h
1859 26-11-2013 00:00:00 0.51667 C 4.79 g/m*3 0.52 C 1.86667 km/h
1860 26-11-2013 01:00:00 0.25 C 4.7 g/m*3 0.25 C 2.8 km/h
1861 26-11-2013 02:00:00 -0.04167 C 4.64 g/m*3 -0.04 C 2.26667 km/h
1862 26-11-2013 03:00:00 -0.14167 C 4.59 g/m*3 -0.14 C 2.8 km/h
1863 26-11-2013 04:00:00 -0.48333 C 4.49 g/m*3 -0.48 C 1.6 km/h
1864 26-11-2013 05:00:00 -0.7 C 4.43 g/m*3 -0.7 C 0.66667 km/h
1865 26-11-2013 06:00:00 -0.475 C 4.51 g/m*3 -0.48 C 1.6 km/h
1866 26-11-2013 07:00:00 0.01667 C 4.66 g/m*3 0.02 C 1.46667 km/h
1867 26-11-2013 08:00:00 0.15833 C 4.67 g/m*3 0.16 C 3.73333 km/h
1868 26-11-2013 09:00:00 0.25 C 4.68 g/m*3 0.25 C 3.61667 km/h
1869 26-11-2013 10:00:00 0.40833 C 4.71 g/m*3 0.41 C 1.86667 km/h
1870 26-11-2013 11:00:00 0.88333 C 4.84 g/m*3 0.88 C 2.93333 km/h
1871 26-11-2013 12:00:00 1.30833 C 4.93 g/m*3 1.31 C 2.8 km/h
1872 26-11-2013 13:00:00 1.59167 C 4.98 g/m*3 1.59 C 3.2 km/h
1873 26-11-2013 14:00:00 1.45833 C 4.91 g/m*3 1.46 C 1.73333 km/h
1874 26-11-2013 15:00:00 1.36667 C 4.89 g/m*3 1.37 C 1.2 km/h
1875 26-11-2013 16:00:00 1.125 C 4.85 g/m*3 1.13 C 1.33333 km/h
Sensor: Nr:Datum:Temp:Abs-Feuchte:Windchill:Wind:
Aussen-T/F 1876 26-11-2013 17:00:00 0.875 C 4.82 g/m*3 0.88 C 0.53333 km/h
1877 26-11-2013 18:00:00 0.8 C 4.81 g/m*3 0.8 C 0.4 km/h
1878 26-11-2013 19:00:00 0.875 C 4.84 g/m*3 0.88 C 0.8 km/h
1879 26-11-2013 20:00:00 0.78333 C 4.85 g/m*3 0.78 C 3.6 km/h
1880 26-11-2013 21:00:00 0.63333 C 4.81 g/m*3 0.63 C 1.86667 km/h
1881 26-11-2013 22:00:00 0.6 C 4.83 g/m*3 0.6 C 1.06667 km/h
1882 26-11-2013 23:00:00 0.69167 C 4.88 g/m*3 0.69 C 0.93333 km/h
1883 27-11-2013 00:00:00 0.7 C 4.88 g/m*3 0.7 C 1.6 km/h
1884 27-11-2013 01:00:00 0.7 C 4.87 g/m*3 0.7 C 0.8 km/h
1885 27-11-2013 02:00:00 0.61667 C 4.79 g/m*3 0.62 C 3.46667 km/h
1886 27-11-2013 03:00:00 0.55833 C 4.73 g/m*3 0.56 C 2 km/h
1887 27-11-2013 04:00:00 0.40833 C 4.67 g/m*3 0.41 C 1.06667 km/h
1888 27-11-2013 05:00:00 0.26667 C 4.57 g/m*3 0.27 C 3.33333 km/h
1889 27-11-2013 06:00:00 0.09167 C 4.47 g/m*3 0.09 C 3.33333 km/h
1890 27-11-2013 07:00:00 -0.11667 C 4.4 g/m*3 -0.12 C 4.81667 km/h
1891 27-11-2013 08:00:00 -0.2 C 4.38 g/m*3 -1.85 C 5.075 km/h
1892 27-11-2013 09:00:00 -0.08333 C 4.4 g/m*3 -0.08 C 4.53333 km/h
1893 27-11-2013 10:00:00 0.09167 C 4.45 g/m*3 -1.98 C 6.15833 km/h
1894 27-11-2013 11:00:00 0.14167 C 4.42 g/m*3 -1.92 C 6.15 km/h
1895 27-11-2013 12:00:00 0.68333 C 4.55 g/m*3 0.68 C 3.46667 km/h
1896 27-11-2013 13:00:00 1.14167 C 4.64 g/m*3 1.14 C 1.06667 km/h
1897 27-11-2013 14:00:00 1.63333 C 4.8 g/m*3 1.63 C 1.86667 km/h
1898 27-11-2013 15:00:00 1.375 C 4.79 g/m*3 1.38 C 0.4 km/h
1899 27-11-2013 16:00:00 0.71667 C 4.72 g/m*3 0.72 C 0 km/h
1900 27-11-2013 17:00:00 0.53333 C 4.72 g/m*3 0.53 C 0.13333 km/h
Sensor: Nr:Datum:Temp:Abs-Feuchte:Windchill:Wind:
Aussen-T/F 1901 27-11-2013 18:00:00 0.75833 C 4.8 g/m*3 0.76 C 0 km/h
1902 27-11-2013 19:00:00 1.03333 C 4.87 g/m*3 1.03 C 0 km/h
1903 27-11-2013 20:00:00 0.70833 C 4.76 g/m*3 0.71 C 0.13333 km/h
1904 27-11-2013 21:00:00 0.875 C 4.84 g/m*3 0.88 C 0 km/h
1905 27-11-2013 22:00:00 1.21667 C 4.95 g/m*3 1.22 C 0 km/h
1906 27-11-2013 23:00:00 1.475 C 5.01 g/m*3 1.48 C 0 km/h
1907 28-11-2013 00:00:00 1.64167 C 5.04 g/m*3 1.64 C 0 km/h
1908 28-11-2013 01:00:00 1.975 C 5.08 g/m*3 1.98 C 1.46667 km/h
1909 28-11-2013 02:00:00 2.375 C 5.03 g/m*3 0.9 C 5.5 km/h
1910 28-11-2013 03:00:00 2.5 C 5.14 g/m*3 2.5 C 2.26667 km/h
1911 28-11-2013 04:00:00 2.53333 C 5.21 g/m*3 2.53 C 1.46667 km/h
1912 28-11-2013 05:00:00 2.64167 C 5.27 g/m*3 2.64 C 0.53333 km/h
1913 28-11-2013 06:00:00 2.68333 C 5.34 g/m*3 2.68 C 2.14167 km/h
1914 28-11-2013 07:00:00 2.6 C 5.46 g/m*3 2.6 C 1.46667 km/h
1915 28-11-2013 08:00:00 2.5 C 5.5 g/m*3 2.5 C 2.26667 km/h
1916 28-11-2013 09:00:00 2.60833 C 5.56 g/m*3 2.61 C 2.93333 km/h
1917 28-11-2013 10:00:00 2.95833 C 5.71 g/m*3 2.96 C 4.14167 km/h
1918 28-11-2013 11:00:00 3.44167 C 5.88 g/m*3 3.44 C 4.8 km/h
1919 28-11-2013 12:00:00 3.93333 C 6.08 g/m*3 2.79 C 5.20833 km/h
1920 28-11-2013 13:00:00 4.10833 C 6.15 g/m*3 4.11 C 4.28333 km/h
1921 28-11-2013 14:00:00 4.275 C 6.22 g/m*3 4.28 C 4.4 km/h
1922 28-11-2013 15:00:00 4.375 C 6.27 g/m*3 4.38 C 2.8 km/h
1923 28-11-2013 16:00:00 4.45833 C 6.29 g/m*3 4.46 C 2 km/h
1924 28-11-2013 17:00:00 4.6 C 6.35 g/m*3 4.6 C 3.75 km/h
1925 28-11-2013 18:00:00 4.7 C 6.39 g/m*3 3.55 C 5.51429 km/h
Sensor: Nr:Datum:Temp:Abs-Feuchte:Windchill:Wind:
Aussen-T/F 1926 28-11-2013 19:00:00 4.74 C 6.41 g/m*3 4.74 C 4.48 km/h
1927 28-11-2013 20:00:00 4.8 C 6.44 g/m*3 4.8 C 3.86667 km/h
1928 28-11-2013 21:00:00 4.81667 C 6.44 g/m*3 4.82 C 2.13333 km/h
1929 28-11-2013 22:00:00 4.8 C 6.44 g/m*3 4.8 C 1.86667 km/h
1930 28-11-2013 23:00:00 4.78333 C 6.43 g/m*3 4.78 C 3.75833 km/h
1931 29-11-2013 00:00:00 4.8 C 6.44 g/m*3 4.8 C 3.33333 km/h
1932 29-11-2013 01:00:00 4.825 C 6.45 g/m*3 4.83 C 1.6 km/h
1933 29-11-2013 02:00:00 4.78333 C 6.43 g/m*3 4.78 C 2.4 km/h
1934 29-11-2013 03:00:00 4.7 C 6.39 g/m*3 4.7 C 3.74167 km/h
1935 29-11-2013 04:00:00 4.68333 C 6.4 g/m*3 4.68 C 2.93333 km/h
1936 29-11-2013 05:00:00 4.6 C 6.35 g/m*3 4.6 C 3.60833 km/h
1937 29-11-2013 06:00:00 4.64167 C 6.37 g/m*3 4.64 C 2.4 km/h
1938 29-11-2013 07:00:00 4.7 C 6.37 g/m*3 4.7 C 3.06667 km/h
1939 29-11-2013 08:00:00 4.76667 C 6.33 g/m*3 4.77 C 1.2 km/h
1940 29-11-2013 09:00:00 4.93333 C 6.33 g/m*3 4.93 C 4.00833 km/h
1941 29-11-2013 10:00:00 5.29167 C 6.36 g/m*3 5.29 C 3.73333 km/h
1942 29-11-2013 11:00:00 5.93333 C 6.41 g/m*3 4.02 C 8.88333 km/h
1943 29-11-2013 12:00:00 6.64167 C 6.51 g/m*3 4.6 C 10.08333 km/h
1944 29-11-2013 13:00:00 6.68333 C 6.51 g/m*3 4.47 C 11.01667 km/h
1945 29-11-2013 14:00:00 6.5 C 6.61 g/m*3 4.82 C 8.33333 km/h
1946 29-11-2013 15:00:00 6.76667 C 6.73 g/m*3 5.26 C 7.78333 km/h
1947 29-11-2013 16:00:00 6.90833 C 6.84 g/m*3 4.62 C 11.7 km/h
1948 29-11-2013 17:00:00 6.875 C 6.89 g/m*3 4.27 C 13.56667 km/h
1949 29-11-2013 18:00:00 7.21667 C 6.99 g/m*3 4.55 C 14.5 km/h
1950 29-11-2013 19:00:00 7.125 C 7.06 g/m*3 4.77 C 12.36667 km/h
Sensor: Nr:Datum:Temp:Abs-Feuchte:Windchill:Wind:
Aussen-T/F 1951 29-11-2013 20:00:00 6.3 C 6.53 g/m*3 3.99 C 11.14167 km/h
1952 29-11-2013 21:00:00 5.9 C 6.39 g/m*3 4.28 C 7.64167 km/h
1953 29-11-2013 22:00:00 5.35 C 6.14 g/m*3 5.35 C 4.68333 km/h
1954 29-11-2013 23:00:00 4.51667 C 5.96 g/m*3 4.52 C 4.13333 km/h
1955 30-11-2013 00:00:00 4.35 C 5.88 g/m*3 4.35 C 3.20833 km/h
1956 30-11-2013 01:00:00 3.65833 C 5.7 g/m*3 3.66 C 4.26667 km/h
1957 30-11-2013 02:00:00 3.80833 C 5.73 g/m*3 3.81 C 3.86667 km/h
1958 30-11-2013 03:00:00 3.36667 C 5.52 g/m*3 3.37 C 3.2 km/h
1959 30-11-2013 04:00:00 2.90833 C 5.45 g/m*3 2.91 C 2.93333 km/h
1960 30-11-2013 05:00:00 2.90833 C 5.45 g/m*3 2.91 C 4.675 km/h
1961 30-11-2013 06:00:00 3.30833 C 5.52 g/m*3 3.31 C 3.73333 km/h
1962 30-11-2013 07:00:00 3.45833 C 5.65 g/m*3 3.46 C 4.40833 km/h
1963 30-11-2013 08:00:00 3.36667 C 5.72 g/m*3 3.37 C 3.73333 km/h
1964 30-11-2013 09:00:00 3.68333 C 5.88 g/m*3 3.68 C 3.2 km/h
1965 30-11-2013 10:00:00 4.1 C 6.01 g/m*3 4.1 C 2.93333 km/h
1966 30-11-2013 11:00:00 4.73333 C 6.21 g/m*3 4.73 C 1.86667 km/h
1967 30-11-2013 12:00:00 5.24167 C 6.38 g/m*3 5.24 C 3.33333 km/h
1968 30-11-2013 13:00:00 5.61667 C 6.56 g/m*3 5.62 C 2 km/h
1969 30-11-2013 14:00:00 5.83333 C 6.79 g/m*3 5.83 C 0.93333 km/h
1970 30-11-2013 15:00:00 6.125 C 6.98 g/m*3 6.13 C 0.66667 km/h
1971 30-11-2013 16:00:00 5.90833 C 6.93 g/m*3 5.91 C 1.46667 km/h
1972 30-11-2013 17:00:00 5.69167 C 6.83 g/m*3 5.69 C 0.8 km/h
1973 30-11-2013 18:00:00 5.43333 C 6.71 g/m*3 5.43 C 1.46667 km/h
1974 30-11-2013 19:00:00 5.25 C 6.63 g/m*3 5.25 C 2.13333 km/h
1975 30-11-2013 20:00:00 4.29167 C 6.18 g/m*3 4.29 C 2.13333 km/h
Sensor: Nr:Datum:Temp:Abs-Feuchte:Windchill:Wind:
Aussen-T/F 1976 30-11-2013 21:00:00 3.48333 C 5.9 g/m*3 3.48 C 0.26667 km/h
1977 30-11-2013 22:00:00 3.55 C 5.98 g/m*3 3.55 C 0 km/h
1978 30-11-2013 23:00:00 3.75 C 6.06 g/m*3 3.75 C 0.4 km/h
1979 01-12-2013 00:00:00 3.775 C 6.08 g/m*3 3.78 C 2.275 km/h
1980 01-12-2013 01:00:00 4.01667 C 6.17 g/m*3 4.02 C 2.13333 km/h
1981 01-12-2013 02:00:00 3.94167 C 6.08 g/m*3 3.94 C 1.73333 km/h
1982 01-12-2013 03:00:00 3.96667 C 6.12 g/m*3 3.97 C 0.66667 km/h
1983 01-12-2013 04:00:00 3.76667 C 6.05 g/m*3 3.77 C 0.93333 km/h
1984 01-12-2013 05:00:00 4.05 C 6.19 g/m*3 4.05 C 1.33333 km/h
1985 01-12-2013 06:00:00 4.18333 C 6.19 g/m*3 4.18 C 3.60833 km/h
1986 01-12-2013 07:00:00 4.28182 C 6.2 g/m*3 4.28 C 2.91818 km/h
1987 01-12-2013 08:00:00 4.4 C 6.2 g/m*3 4.4 C 1.06667 km/h
1988 01-12-2013 09:00:00 4.48333 C 6.24 g/m*3 4.48 C 4.26667 km/h
1989 01-12-2013 10:00:00 4.74167 C 6.35 g/m*3 4.74 C 2 km/h
1990 01-12-2013 11:00:00 5.49167 C 6.6 g/m*3 5.49 C 2.13333 km/h
1991 01-12-2013 12:00:00 6.09167 C 6.77 g/m*3 6.09 C 2.53333 km/h
1992 01-12-2013 13:00:00 6.65 C 6.89 g/m*3 6.65 C 2.13333 km/h
1993 01-12-2013 14:00:00 6.99167 C 6.94 g/m*3 6.99 C 1.6 km/h
1994 01-12-2013 15:00:00 7 C 6.85 g/m*3 7 C 0.53333 km/h
1995 01-12-2013 16:00:00 5.88333 C 6.6 g/m*3 5.88 C 1.6 km/h
1996 01-12-2013 17:00:00 5.025 C 6.4 g/m*3 5.03 C 1.46667 km/h
1997 01-12-2013 18:00:00 4.75 C 6.35 g/m*3 4.75 C 0.4 km/h
1998 01-12-2013 19:00:00 4.875 C 6.47 g/m*3 4.88 C 0 km/h
1999 01-12-2013 20:00:00 5.24167 C 6.61 g/m*3 5.24 C 0.13333 km/h
2000 01-12-2013 21:00:00 5.41667 C 6.68 g/m*3 5.42 C 0.13333 km/h
Sensor: Nr:Datum:Temp:Abs-Feuchte:Windchill:Wind:
Aussen-T/F 2001 01-12-2013 22:00:00 5.5 C 6.74 g/m*3 5.5 C 0.8 km/h
2002 01-12-2013 23:00:00 5.71667 C 6.88 g/m*3 5.72 C 0.26667 km/h
2003 02-12-2013 00:00:00 5.71667 C 6.9 g/m*3 5.72 C 0 km/h
2004 02-12-2013 01:00:00 5.69167 C 6.9 g/m*3 5.69 C 0.26667 km/h
2005 02-12-2013 02:00:00 5.76667 C 6.93 g/m*3 5.77 C 0.66667 km/h
2006 02-12-2013 03:00:00 5.88333 C 6.99 g/m*3 5.88 C 0.13333 km/h
2007 02-12-2013 04:00:00 5.76667 C 6.93 g/m*3 5.77 C 0 km/h
2008 02-12-2013 05:00:00 5.66667 C 6.89 g/m*3 5.67 C 0 km/h
2009 02-12-2013 06:00:00 5.58333 C 6.85 g/m*3 5.58 C 0 km/h
2010 02-12-2013 07:00:00 5.38333 C 6.76 g/m*3 5.38 C 0 km/h
2011 02-12-2013 08:00:00 5.35833 C 6.7 g/m*3 5.36 C 0 km/h
2012 02-12-2013 09:00:00 5.94167 C 6.87 g/m*3 5.94 C 0 km/h
2013 02-12-2013 10:00:00 6.61667 C 6.66 g/m*3 6.62 C 2.80833 km/h
2014 02-12-2013 11:00:00 5.68333 C 6.37 g/m*3 5.68 C 2.8 km/h
2015 02-12-2013 12:00:00 6.43333 C 6.37 g/m*3 6.43 C 3.33333 km/h
2016 02-12-2013 13:00:00 6.74167 C 6.42 g/m*3 5.93 C 5.35833 km/h
2017 02-12-2013 14:00:00 6.45 C 6.38 g/m*3 6.45 C 2.66667 km/h
2018 02-12-2013 15:00:00 5.90833 C 6.28 g/m*3 5.91 C 3.2 km/h
2019 02-12-2013 16:00:00 4.98333 C 6.07 g/m*3 4.98 C 2.93333 km/h
2020 02-12-2013 17:00:00 4.08333 C 5.79 g/m*3 4.08 C 4 km/h
2021 02-12-2013 18:00:00 3.39167 C 5.62 g/m*3 3.39 C 2.8 km/h
2022 02-12-2013 19:00:00 2.825 C 5.47 g/m*3 2.83 C 1.86667 km/h
2023 02-12-2013 20:00:00 1.96667 C 5.23 g/m*3 1.97 C 0 km/h
2024 02-12-2013 21:00:00 1.33333 C 5.04 g/m*3 1.33 C 0.26667 km/h
2025 02-12-2013 22:00:00 0.76667 C 4.89 g/m*3 0.77 C 0 km/h
Sensor: Nr:Datum:Temp:Abs-Feuchte:Windchill:Wind:
Aussen-T/F 2026 02-12-2013 23:00:00 0.40833 C 4.78 g/m*3 0.41 C 0 km/h
2027 03-12-2013 00:00:00 0.05833 C 4.67 g/m*3 0.06 C 0.13333 km/h
2028 03-12-2013 01:00:00 -0.19167 C 4.6 g/m*3 -0.19 C 0 km/h
2029 03-12-2013 02:00:00 -0.3 C 4.6 g/m*3 -0.3 C 0 km/h
2030 03-12-2013 03:00:00 -0.51667 C 4.53 g/m*3 -0.52 C 0.13333 km/h
2031 03-12-2013 04:00:00 -1.11667 C 4.35 g/m*3 -1.12 C 0 km/h
2032 03-12-2013 05:00:00 -1.5 C 4.23 g/m*3 -1.5 C 0 km/h
2033 03-12-2013 06:00:00 -1.73333 C 4.17 g/m*3 -1.73 C 0 km/h
2034 03-12-2013 07:00:00 -2.05833 C 4.07 g/m*3 -2.06 C 0.13333 km/h
2035 03-12-2013 08:00:00 -2.01667 C 4.08 g/m*3 -2.02 C 0.53333 km/h
2036 03-12-2013 09:00:00 -1.85 C 4.13 g/m*3 -1.85 C 0 km/h
2037 03-12-2013 10:00:00 -1.575 C 4.21 g/m*3 -1.58 C 0.26667 km/h
2038 03-12-2013 11:00:00 -1.23333 C 4.33 g/m*3 -1.23 C 0 km/h
2039 03-12-2013 12:00:00 -0.275 C 4.66 g/m*3 -0.28 C 0 km/h
2040 03-12-2013 13:00:00 0.45 C 4.9 g/m*3 0.45 C 0 km/h
2041 03-12-2013 14:00:00 0.88333 C 5.05 g/m*3 0.88 C 0 km/h
2042 03-12-2013 15:00:00 1.10833 C 5.12 g/m*3 1.11 C 0.26667 km/h
2043 03-12-2013 16:00:00 0.95 C 5.02 g/m*3 0.95 C 0 km/h
2044 03-12-2013 17:00:00 0.4 C 4.83 g/m*3 0.4 C 0.26667 km/h
2045 03-12-2013 18:00:00 0.04167 C 4.71 g/m*3 0.04 C 0 km/h
2046 03-12-2013 19:00:00 -0.35833 C 4.58 g/m*3 -0.36 C 0 km/h
2047 03-12-2013 20:00:00 -0.78333 C 4.45 g/m*3 -0.78 C 0 km/h
2048 03-12-2013 21:00:00 -0.75 C 4.47 g/m*3 -0.75 C 0.13333 km/h
2049 03-12-2013 22:00:00 0.55833 C 4.93 g/m*3 0.56 C 0.26667 km/h
2050 03-12-2013 23:00:00 0.83333 C 5 g/m*3 0.83 C 0.26667 km/h
Sensor: Nr:Datum:Temp:Abs-Feuchte:Windchill:Wind:
Aussen-T/F 2051 04-12-2013 00:00:00 1.09167 C 5.07 g/m*3 1.09 C 2.68333 km/h
2052 04-12-2013 01:00:00 1.175 C 5.05 g/m*3 1.18 C 4.80833 km/h
2053 04-12-2013 02:00:00 1.29167 C 5 g/m*3 -1.36 C 8.475 km/h
2054 04-12-2013 03:00:00 1.3 C 4.95 g/m*3 -2.28 C 12.23333 km/h
2055 04-12-2013 04:00:00 1.44167 C 4.97 g/m*3 -1.44 C 9.41667 km/h
2056 04-12-2013 05:00:00 1.65 C 5.05 g/m*3 -0.09 C 5.90833 km/h
2057 04-12-2013 06:00:00 1.75 C 5.13 g/m*3 -0.9 C 8.74167 km/h
2058 04-12-2013 07:00:00 2 C 5.21 g/m*3 -0.78 C 9.43333 km/h
2059 04-12-2013 08:00:00 2.41667 C 5.31 g/m*3 -0.64 C 10.9 km/h
2060 04-12-2013 09:00:00 2.71667 C 5.4 g/m*3 -0.24 C 10.75833 km/h
2061 04-12-2013 10:00:00 2.98333 C 5.51 g/m*3 0.56 C 8.74167 km/h
2062 04-12-2013 11:00:00 3.29167 C 5.58 g/m*3 0.72 C 9.56667 km/h
2063 04-12-2013 12:00:00 3.6 C 5.64 g/m*3 1.47 C 8.075 km/h
2064 04-12-2013 13:00:00 3.99167 C 5.72 g/m*3 2.42 C 6.43333 km/h
2065 04-12-2013 14:00:00 4.48333 C 5.67 g/m*3 2.7 C 7.39167 km/h
2066 04-12-2013 15:00:00 4.81667 C 5.7 g/m*3 2.51 C 9.68333 km/h
2067 04-12-2013 16:00:00 4.74167 C 5.74 g/m*3 2.93 C 7.64167 km/h
2068 04-12-2013 17:00:00 4.84167 C 5.84 g/m*3 2.6 C 9.40833 km/h
2069 04-12-2013 18:00:00 4.875 C 6 g/m*3 1.97 C 12.76667 km/h
2070 04-12-2013 19:00:00 4.80833 C 6.06 g/m*3 1.93 C 12.5 km/h
2071 04-12-2013 20:00:00 4.9 C 6.15 g/m*3 2.35 C 10.9 km/h
2072 04-12-2013 21:00:00 4.8 C 6.26 g/m*3 2.74 C 8.60833 km/h
2073 04-12-2013 22:00:00 4.76667 C 6.37 g/m*3 3.73 C 5.21667 km/h
2074 04-12-2013 23:00:00 4.96667 C 6.51 g/m*3 4.97 C 3.2 km/h
2075 05-12-2013 00:00:00 4.275 C 6.21 g/m*3 4.28 C 2.53333 km/h
Sensor: Nr:Datum:Temp:Abs-Feuchte:Windchill:Wind:
Aussen-T/F 2076 05-12-2013 01:00:00 3.025 C 5.74 g/m*3 3.03 C 2.13333 km/h
2077 05-12-2013 02:00:00 2.44167 C 5.55 g/m*3 2.44 C 1.73333 km/h
2078 05-12-2013 03:00:00 2.275 C 5.49 g/m*3 2.28 C 4.675 km/h
2079 05-12-2013 04:00:00 2.24167 C 5.48 g/m*3 -0.2 C 8.33333 km/h
2080 05-12-2013 05:00:00 2.15833 C 5.45 g/m*3 -0.1 C 7.65833 km/h
2081 05-12-2013 06:00:00 2.4 C 5.53 g/m*3 0.35 C 7.10833 km/h
2082 05-12-2013 07:00:00 2.34444 C 5.45 g/m*3 0.1 C 7.7 km/h
2083 05-12-2013 08:00:00 1.41667 C 5.1 g/m*3 1.42 C 4.81667 km/h
2084 05-12-2013 09:00:00 2.30833 C 5.4 g/m*3 -0.19 C 8.58333 km/h
2085 05-12-2013 10:00:00 3.31667 C 5.61 g/m*3 0.72 C 9.675 km/h
2086 05-12-2013 11:00:00 3.81667 C 5.63 g/m*3 0.51 C 13.7 km/h
2087 05-12-2013 12:00:00 3.925 C 5.42 g/m*3 -0.09 C 18.5 km/h
2088 05-12-2013 13:00:00 4.18333 C 5.33 g/m*3 0.59 C 15.96667 km/h
2089 05-12-2013 14:00:00 4.56667 C 5.33 g/m*3 0.86 C 17.43333 km/h
2090 05-12-2013 15:00:00 5.13333 C 5.24 g/m*3 0.48 C 27.1 km/h
2091 05-12-2013 16:00:00 5.50833 C 5.03 g/m*3 0.81 C 28.83333 km/h
2092 05-12-2013 17:00:00 5.51111 C 5.26 g/m*3 1.15 C 25.2 km/h
2093 05-12-2013 18:00:00 5.53333 C 5.71 g/m*3 1.07 C 26.41667 km/h
2094 05-12-2013 19:00:00 5.26667 C 5.96 g/m*3 0.73 C 26.29167 km/h
2095 05-12-2013 20:00:00 5.20833 C 6.17 g/m*3 1.21 C 21.03333 km/h
2096 05-12-2013 21:00:00 6.91667 C 6.02 g/m*3 3.4 C 20.79167 km/h
2097 05-12-2013 22:00:00 5.70833 C 5.51 g/m*3 2.33 C 17.04167 km/h
2098 05-12-2013 23:00:00 4.95 C 5.34 g/m*3 1.41 C 16.90833 km/h
2099 06-12-2013 00:00:00 3.075 C 5.34 g/m*3 0.01 C 11.55833 km/h
2100 06-12-2013 01:00:00 3.5 C 5.09 g/m*3 1.07 C 9.13333 km/h
Sensor: Nr:Datum:Temp:Abs-Feuchte:Windchill:Wind:
Aussen-T/F 2101 06-12-2013 02:00:00 3.60833 C 4.73 g/m*3 0.92 C 10.35 km/h
2102 06-12-2013 03:00:00 3.55 C 4.71 g/m*3 0.76 C 10.75833 km/h
2103 06-12-2013 04:00:00 4.15833 C 4.78 g/m*3 0.86 C 14.1 km/h
2104 06-12-2013 05:00:00 4.48333 C 4.62 g/m*3 1.04 C 15.44167 km/h
2105 06-12-2013 06:00:00 4.28333 C 4.57 g/m*3 0.78 C 15.56667 km/h
2106 06-12-2013 07:00:00 3.60833 C 4.58 g/m*3 -0.08 C 15.7 km/h
2107 06-12-2013 08:00:00 3.68333 C 4.32 g/m*3 0.56 C 12.5 km/h
2108 06-12-2013 09:00:00 3.85 C 4.33 g/m*3 0.16 C 16.1 km/h
2109 06-12-2013 10:00:00 4.28333 C 4.37 g/m*3 0.32 C 18.775 km/h
2110 06-12-2013 11:00:00 4.54167 C 4.39 g/m*3 0.9 C 16.9 km/h
2111 06-12-2013 12:00:00 4.725 C 4.44 g/m*3 0.93 C 18.36667 km/h
2112 06-12-2013 13:00:00 4.89167 C 4.3 g/m*3 0.9 C 20.23333 km/h
2113 06-12-2013 14:00:00 4.88333 C 4.27 g/m*3 0.97 C 19.575 km/h
2114 06-12-2013 15:00:00 4.6 C 4.32 g/m*3 0.93 C 17.16667 km/h
2115 06-12-2013 16:00:00 4.225 C 4.48 g/m*3 1.03 C 13.56667 km/h
2116 06-12-2013 17:00:00 2.83333 C 5 g/m*3 0.65 C 7.775 km/h
2117 06-12-2013 18:00:00 2.23333 C 5.07 g/m*3 -0.36 C 8.88333 km/h
2118 06-12-2013 19:00:00 2.4 C 5.05 g/m*3 0.35 C 7.10833 km/h
2119 06-12-2013 20:00:00 2.725 C 5.01 g/m*3 0.23 C 8.85 km/h
2120 06-12-2013 21:00:00 3.225 C 4.85 g/m*3 0.17 C 11.7 km/h
2121 06-12-2013 22:00:00 3.41667 C 4.74 g/m*3 0.6 C 10.75833 km/h
2122 06-12-2013 23:00:00 3.5 C 4.77 g/m*3 0.29 C 12.76667 km/h
2123 07-12-2013 00:00:00 3.325 C 4.74 g/m*3 0.73 C 9.7 km/h
2124 07-12-2013 01:00:00 3.35 C 4.73 g/m*3 0.76 C 9.68333 km/h
2125 07-12-2013 02:00:00 3.06667 C 4.74 g/m*3 1.04 C 7.38333 km/h
Sensor: Nr:Datum:Temp:Abs-Feuchte:Windchill:Wind:
Aussen-T/F 2126 07-12-2013 03:00:00 3.1 C 4.78 g/m*3 1.21 C 6.98333 km/h
2127 07-12-2013 04:00:00 3.375 C 4.78 g/m*3 1.33 C 7.65 km/h
2128 07-12-2013 05:00:00 3.34167 C 4.74 g/m*3 1.25 C 7.79167 km/h
2129 07-12-2013 06:00:00 2.90833 C 4.68 g/m*3 0.55 C 8.45833 km/h
2130 07-12-2013 07:00:00 2.74167 C 4.72 g/m*3 0.07 C 9.55833 km/h
2131 07-12-2013 08:00:00 2.8 C 4.87 g/m*3 0.61 C 7.78333 km/h
2132 07-12-2013 09:00:00 2.53333 C 5.17 g/m*3 0.98 C 5.75833 km/h
2133 07-12-2013 10:00:00 2.71667 C 5.41 g/m*3 2.72 C 1.6 km/h
2134 07-12-2013 11:00:00 3.24167 C 5.63 g/m*3 3.24 C 4.83333 km/h
2135 07-12-2013 12:00:00 4.175 C 5.86 g/m*3 1.62 C 10.225 km/h
2136 07-12-2013 13:00:00 4.80833 C 6.05 g/m*3 2.08 C 11.69167 km/h
2137 07-12-2013 14:00:00 5.34167 C 6.22 g/m*3 2.35 C 13.83333 km/h
2138 07-12-2013 15:00:00 5.94167 C 6.37 g/m*3 3.29 C 12.625 km/h
2139 07-12-2013 16:00:00 5.94167 C 6.41 g/m*3 3.36 C 12.225 km/h
2140 07-12-2013 17:00:00 6.00833 C 6.45 g/m*3 3.42 C 12.35833 km/h
2141 07-12-2013 18:00:00 5.98333 C 6.44 g/m*3 3.79 C 10.225 km/h
2142 07-12-2013 19:00:00 6.13333 C 6.55 g/m*3 4.17 C 9.275 km/h
2143 07-12-2013 20:00:00 6.23333 C 6.55 g/m*3 4.06 C 10.35 km/h
2144 07-12-2013 21:00:00 6.18333 C 6.52 g/m*3 4.2 C 9.40833 km/h
2145 07-12-2013 22:00:00 6.01667 C 6.48 g/m*3 4.06 C 9.14167 km/h
2146 07-12-2013 23:00:00 6.025 C 6.42 g/m*3 4.39 C 7.8 km/h
2147 08-12-2013 00:00:00 5.76667 C 6.29 g/m*3 4.12 C 7.65833 km/h
2148 08-12-2013 01:00:00 5.54167 C 6.29 g/m*3 4.09 C 6.825 km/h
2149 08-12-2013 02:00:00 5.525 C 6.36 g/m*3 4.65 C 5.08333 km/h
2150 08-12-2013 03:00:00 5.65833 C 6.36 g/m*3 4.38 C 6.30833 km/h
Sensor: Nr:Datum:Temp:Abs-Feuchte:Windchill:Wind:
Aussen-T/F 2151 08-12-2013 04:00:00 5.69167 C 6.31 g/m*3 5.69 C 3.34167 km/h
2152 08-12-2013 05:00:00 5.63333 C 6.36 g/m*3 4.44 C 6.03333 km/h
2153 08-12-2013 06:00:00 6.05 C 6.49 g/m*3 4.76 C 6.56667 km/h
2154 08-12-2013 07:00:00 6.10833 C 6.52 g/m*3 4.52 C 7.65833 km/h
2155 08-12-2013 08:00:00 6.06667 C 6.62 g/m*3 3.94 C 9.95 km/h
2156 08-12-2013 09:00:00 6.56667 C 6.68 g/m*3 4.35 C 10.9 km/h
2157 08-12-2013 10:00:00 6.73333 C 6.76 g/m*3 4.74 C 9.94167 km/h
2158 08-12-2013 11:00:00 7.68333 C 6.95 g/m*3 5.32 C 13.16667 km/h
2159 08-12-2013 12:00:00 7.90833 C 7.01 g/m*3 5.44 C 14.23333 km/h
2160 08-12-2013 13:00:00 7.71667 C 7.04 g/m*3 5.84 C 10.35 km/h
2161 08-12-2013 14:00:00 7.74167 C 7.05 g/m*3 5.97 C 9.81667 km/h
2162 08-12-2013 15:00:00 8.075 C 6.99 g/m*3 5.95 C 12.21667 km/h
2163 08-12-2013 16:00:00 7.66667 C 6.96 g/m*3 5.36 C 12.76667 km/h
2164 08-12-2013 17:00:00 7.31667 C 6.9 g/m*3 4.75 C 13.96667 km/h
2165 08-12-2013 18:00:00 7.33333 C 6.95 g/m*3 4.83 C 13.56667 km/h
2166 08-12-2013 19:00:00 7.38333 C 6.99 g/m*3 5.44 C 10.34167 km/h
2167 08-12-2013 20:00:00 7.78333 C 6.98 g/m*3 5.04 C 16.1 km/h
2168 08-12-2013 21:00:00 8.21667 C 6.96 g/m*3 5.3 C 18.36667 km/h
2169 08-12-2013 22:00:00 8.1 C 6.93 g/m*3 5.58 C 14.9 km/h
2170 08-12-2013 23:00:00 7.85833 C 6.97 g/m*3 5.44 C 13.83333 km/h
2171 09-12-2013 00:00:00 7.90833 C 6.97 g/m*3 5.68 C 12.625 km/h
2172 09-12-2013 01:00:00 7.825 C 6.85 g/m*3 5.19 C 15.3 km/h
2173 09-12-2013 02:00:00 7.44167 C 6.63 g/m*3 5.27 C 11.7 km/h
2174 09-12-2013 03:00:00 6.875 C 6.46 g/m*3 4.99 C 9.55 km/h
2175 09-12-2013 04:00:00 6.78333 C 6.3 g/m*3 4.97 C 9.14167 km/h
Sensor: Nr:Datum:Temp:Abs-Feuchte:Windchill:Wind:
Aussen-T/F 2176 09-12-2013 05:00:00 6.78333 C 6.19 g/m*3 4.36 C 12.36667 km/h
2177 09-12-2013 06:00:00 6.625 C 6.11 g/m*3 3.91 C 13.96667 km/h
2178 09-12-2013 07:00:00 6.26667 C 6.05 g/m*3 4.51 C 8.475 km/h
2179 09-12-2013 08:00:00 6.55833 C 6.1 g/m*3 4.15 C 11.96667 km/h
2180 09-12-2013 09:00:00 6.91667 C 6.11 g/m*3 4.18 C 14.5 km/h
2181 09-12-2013 10:00:00 7.28333 C 6.19 g/m*3 4.43 C 15.96667 km/h
2182 09-12-2013 11:00:00 7.49167 C 6.33 g/m*3 5.24 C 12.225 km/h
2183 09-12-2013 12:00:00 8.21667 C 6.64 g/m*3 6.9 C 8.05833 km/h
2184 09-12-2013 13:00:00 8.40833 C 6.71 g/m*3 6.89 C 9.15 km/h
2185 09-12-2013 14:00:00 7.95 C 6.56 g/m*3 5.97 C 11.16667 km/h
2186 09-12-2013 15:00:00 7.825 C 6.53 g/m*3 6.18 C 9.26667 km/h
2187 09-12-2013 16:00:00 6.73333 C 6.4 g/m*3 5.98 C 5.2 km/h
2188 09-12-2013 17:00:00 6.23333 C 6.35 g/m*3 5.45 C 5.075 km/h
2189 09-12-2013 18:00:00 6.16667 C 6.34 g/m*3 4.9 C 6.55 km/h
2190 09-12-2013 19:00:00 5.30833 C 6.16 g/m*3 5.31 C 1.6 km/h
2191 09-12-2013 20:00:00 3.975 C 5.9 g/m*3 3.98 C 0.4 km/h
2192 09-12-2013 21:00:00 3.43333 C 5.75 g/m*3 3.43 C 0.4 km/h
2193 09-12-2013 22:00:00 2.79167 C 5.56 g/m*3 2.79 C 0 km/h
2194 09-12-2013 23:00:00 2.33333 C 5.42 g/m*3 2.33 C 0 km/h
2195 10-12-2013 00:00:00 1.9 C 5.3 g/m*3 1.9 C 0 km/h
2196 10-12-2013 01:00:00 1.625 C 5.2 g/m*3 1.63 C 0.4 km/h
2197 10-12-2013 02:00:00 1.20833 C 5.07 g/m*3 1.21 C 0 km/h
2198 10-12-2013 03:00:00 1.125 C 5.08 g/m*3 1.13 C 0.13333 km/h
2199 10-12-2013 04:00:00 1.43333 C 5.19 g/m*3 1.43 C 0.13333 km/h
2200 10-12-2013 05:00:00 1.59167 C 5.24 g/m*3 1.59 C 0.26667 km/h
Sensor: Nr:Datum:Temp:Abs-Feuchte:Windchill:Wind:
Aussen-T/F 2201 10-12-2013 06:00:00 1.66667 C 5.27 g/m*3 1.67 C 0.26667 km/h
2202 10-12-2013 07:00:00 1.725 C 5.29 g/m*3 1.73 C 1.33333 km/h
2203 10-12-2013 08:00:00 1.85 C 5.32 g/m*3 1.85 C 1.2 km/h
2204 10-12-2013 09:00:00 2.25 C 5.42 g/m*3 2.25 C 2.8 km/h
2205 10-12-2013 10:00:00 2.96667 C 5.69 g/m*3 2.97 C 1.6 km/h
2206 10-12-2013 11:00:00 3.54167 C 5.92 g/m*3 3.54 C 2.53333 km/h
2207 10-12-2013 12:00:00 4.35833 C 6.22 g/m*3 4.36 C 4.00833 km/h
2208 10-12-2013 13:00:00 4.925 C 6.37 g/m*3 4.93 C 2.66667 km/h
2209 10-12-2013 14:00:00 5.60833 C 6.57 g/m*3 5.61 C 0.66667 km/h
2210 10-12-2013 15:00:00 5.16667 C 6.4 g/m*3 5.17 C 0.26667 km/h
2211 10-12-2013 16:00:00 4.55 C 6.28 g/m*3 4.55 C 0.13333 km/h
2212 10-12-2013 17:00:00 4.68333 C 6.39 g/m*3 4.68 C 0.13333 km/h
2213 10-12-2013 18:00:00 4.80833 C 6.44 g/m*3 4.81 C 0 km/h
2214 10-12-2013 19:00:00 4.9 C 6.48 g/m*3 4.9 C 0 km/h
2215 10-12-2013 20:00:00 4.85 C 6.46 g/m*3 4.85 C 0 km/h
2216 10-12-2013 21:00:00 4.33333 C 6.24 g/m*3 4.33 C 1.6 km/h
2217 10-12-2013 22:00:00 3.65 C 5.99 g/m*3 3.65 C 2.93333 km/h
2218 10-12-2013 23:00:00 3.25833 C 5.87 g/m*3 3.26 C 3.2 km/h
2219 11-12-2013 00:00:00 3.03333 C 5.78 g/m*3 3.03 C 2.53333 km/h
2220 11-12-2013 01:00:00 2.79167 C 5.7 g/m*3 2.79 C 3.6 km/h
2221 11-12-2013 02:00:00 2.51667 C 5.62 g/m*3 2.52 C 4.13333 km/h
2222 11-12-2013 03:00:00 2.24167 C 5.53 g/m*3 2.24 C 3.06667 km/h
2223 11-12-2013 04:00:00 2.28333 C 5.55 g/m*3 2.28 C 2.93333 km/h
2224 11-12-2013 05:00:00 2.275 C 5.55 g/m*3 2.28 C 3.46667 km/h
2225 11-12-2013 06:00:00 2.24167 C 5.54 g/m*3 2.24 C 4.95 km/h
Sensor: Nr:Datum:Temp:Abs-Feuchte:Windchill:Wind:
Aussen-T/F 2226 11-12-2013 07:00:00 2.29167 C 5.55 g/m*3 2.29 C 4.275 km/h
2227 11-12-2013 08:00:00 2.34167 C 5.57 g/m*3 2.34 C 4.41667 km/h
2228 11-12-2013 09:00:00 2.475 C 5.62 g/m*3 2.48 C 4.66667 km/h
2229 11-12-2013 10:00:00 2.775 C 5.74 g/m*3 2.78 C 4.4 km/h
2230 11-12-2013 11:00:00 3.24167 C 5.87 g/m*3 1.9 C 5.475 km/h
2231 11-12-2013 12:00:00 3.83333 C 6.08 g/m*3 3.83 C 2.8 km/h
2232 11-12-2013 13:00:00 4.375 C 6.26 g/m*3 4.38 C 1.2 km/h
2233 11-12-2013 14:00:00 4.725 C 6.41 g/m*3 4.72 C 0.8 km/h
2234 11-12-2013 15:00:00 4.91667 C 6.48 g/m*3 4.92 C 0.4 km/h
2235 11-12-2013 16:00:00 5.275 C 6.64 g/m*3 5.28 C 0 km/h
2236 11-12-2013 17:00:00 5.44167 C 6.72 g/m*3 5.44 C 0.53333 km/h
2237 11-12-2013 18:00:00 5.41667 C 6.69 g/m*3 5.42 C 0.13333 km/h
2238 11-12-2013 19:00:00 5.29167 C 6.58 g/m*3 5.29 C 1.73333 km/h
2239 11-12-2013 20:00:00 5.14167 C 6.5 g/m*3 5.14 C 1.46667 km/h
2240 11-12-2013 21:00:00 4.99167 C 6.41 g/m*3 4.99 C 2.68333 km/h
2241 11-12-2013 22:00:00 4.81667 C 6.35 g/m*3 4.82 C 2.80833 km/h
2242 11-12-2013 23:00:00 4.65833 C 6.24 g/m*3 4.66 C 4.15 km/h
2243 12-12-2013 00:00:00 4.45833 C 6.16 g/m*3 4.46 C 1.46667 km/h
2244 12-12-2013 01:00:00 4.325 C 6.11 g/m*3 4.33 C 2.93333 km/h
2245 12-12-2013 02:00:00 4.25833 C 6.08 g/m*3 4.26 C 1.73333 km/h
2246 12-12-2013 03:00:00 4.29167 C 6.12 g/m*3 4.29 C 0.13333 km/h
2247 12-12-2013 04:00:00 4.3 C 6.1 g/m*3 4.3 C 1.73333 km/h
2248 12-12-2013 05:00:00 4.26667 C 6.08 g/m*3 4.27 C 1.20833 km/h
2249 12-12-2013 06:00:00 4.14167 C 6.03 g/m*3 4.14 C 3.075 km/h
2250 12-12-2013 07:00:00 4.025 C 5.93 g/m*3 4.03 C 3.2 km/h
Sensor: Nr:Datum:Temp:Abs-Feuchte:Windchill:Wind:
Aussen-T/F 2251 12-12-2013 08:00:00 3.85 C 5.83 g/m*3 3.85 C 2.66667 km/h
2252 12-12-2013 09:00:00 3.91667 C 5.81 g/m*3 3.92 C 4.53333 km/h
2253 12-12-2013 10:00:00 4.11667 C 5.79 g/m*3 4.12 C 3.33333 km/h
2254 12-12-2013 11:00:00 4.26667 C 5.82 g/m*3 4.27 C 4.26667 km/h
2255 12-12-2013 12:00:00 4.6 C 5.95 g/m*3 4.6 C 3.2 km/h
2256 12-12-2013 13:00:00 4.78333 C 5.99 g/m*3 3.66 C 5.475 km/h
2257 12-12-2013 14:00:00 4.99167 C 6.07 g/m*3 4.99 C 2.26667 km/h
2258 12-12-2013 15:00:00 4.74167 C 5.97 g/m*3 4.74 C 3.73333 km/h
2259 12-12-2013 16:00:00 3.84167 C 5.76 g/m*3 3.84 C 4.4 km/h
2260 12-12-2013 17:00:00 3.6 C 5.69 g/m*3 3.6 C 2.8 km/h
2261 12-12-2013 18:00:00 3.6 C 5.69 g/m*3 3.6 C 0.66667 km/h
2262 12-12-2013 19:00:00 3.54167 C 5.67 g/m*3 3.54 C 0.4 km/h
2263 12-12-2013 20:00:00 3.525 C 5.73 g/m*3 3.53 C 0 km/h
2264 12-12-2013 21:00:00 3.60833 C 5.76 g/m*3 3.61 C 0 km/h
2265 12-12-2013 22:00:00 3.6 C 5.76 g/m*3 3.6 C 0 km/h
2266 12-12-2013 23:00:00 3.50833 C 5.67 g/m*3 3.51 C 0.66667 km/h
2267 13-12-2013 00:00:00 3.325 C 5.5 g/m*3 3.33 C 4.01667 km/h
2268 13-12-2013 01:00:00 2.99167 C 5.34 g/m*3 1.46 C 5.86667 km/h
2269 13-12-2013 02:00:00 2.55 C 5.27 g/m*3 0.66 C 6.70833 km/h
2270 13-12-2013 03:00:00 2.4 C 5.25 g/m*3 0.27 C 7.38333 km/h
2271 13-12-2013 04:00:00 2.4 C 5.25 g/m*3 0.58 C 6.41667 km/h
2272 13-12-2013 05:00:00 2.31667 C 5.21 g/m*3 0.05 C 7.78333 km/h
2273 13-12-2013 06:00:00 2.3 C 5.18 g/m*3 0.07 C 7.65 km/h
2274 13-12-2013 07:00:00 2.11667 C 5.15 g/m*3 -0.39 C 8.48333 km/h
2275 13-12-2013 08:00:00 2.075 C 5.14 g/m*3 0.25 C 6.3 km/h
Sensor: Nr:Datum:Temp:Abs-Feuchte:Windchill:Wind:
Aussen-T/F 2276 13-12-2013 09:00:00 2.05 C 5.12 g/m*3 0.59 C 5.35 km/h
2277 13-12-2013 10:00:00 2.275 C 5.16 g/m*3 0.29 C 6.84167 km/h
2278 13-12-2013 11:00:00 2.625 C 5.25 g/m*3 0.44 C 7.66667 km/h
2279 13-12-2013 12:00:00 2.96667 C 5.32 g/m*3 1.29 C 6.28333 km/h
2280 13-12-2013 13:00:00 3.2 C 5.36 g/m*3 1.7 C 5.875 km/h
2281 13-12-2013 14:00:00 3.45 C 5.44 g/m*3 3.45 C 3.2 km/h
2282 13-12-2013 15:00:00 3.38333 C 5.39 g/m*3 3.38 C 4.80833 km/h
2283 13-12-2013 16:00:00 3.11667 C 5.35 g/m*3 3.12 C 2.13333 km/h
2284 13-12-2013 17:00:00 2.83333 C 5.29 g/m*3 2.83 C 1.6 km/h
2285 13-12-2013 18:00:00 2.89167 C 5.36 g/m*3 2.89 C 1.2 km/h
2286 13-12-2013 19:00:00 2.76667 C 5.24 g/m*3 2.77 C 3.46667 km/h
2287 13-12-2013 20:00:00 2.55833 C 5.19 g/m*3 2.56 C 1.46667 km/h
2288 13-12-2013 21:00:00 2.66667 C 5.27 g/m*3 2.67 C 2.8 km/h
2289 13-12-2013 22:00:00 2.425 C 5.18 g/m*3 2.42 C 4.675 km/h
2290 13-12-2013 23:00:00 2.08333 C 5.02 g/m*3 0.67 C 5.24167 km/h
2291 14-12-2013 00:00:00 1.89167 C 4.96 g/m*3 0.09 C 6.16667 km/h
2292 14-12-2013 01:00:00 1.88333 C 4.96 g/m*3 -0.7 C 8.61667 km/h
2293 14-12-2013 02:00:00 1.625 C 4.93 g/m*3 1.63 C 4.81667 km/h
2294 14-12-2013 03:00:00 1.71667 C 5.01 g/m*3 1.72 C 4.40833 km/h
2295 14-12-2013 04:00:00 1.93333 C 5.09 g/m*3 1.93 C 0.26667 km/h
2296 14-12-2013 05:00:00 2.18333 C 5.23 g/m*3 2.18 C 0 km/h
2297 14-12-2013 06:00:00 2.56667 C 5.37 g/m*3 2.57 C 4.55833 km/h
2298 14-12-2013 07:00:00 3.05833 C 5.6 g/m*3 0.41 C 9.69167 km/h
2299 14-12-2013 08:00:00 3.3 C 5.76 g/m*3 0.97 C 8.6 km/h
2300 14-12-2013 09:00:00 3.43 C 5.81 g/m*3 0.75 C 10.15 km/h
Sensor: Nr:Datum:Temp:Abs-Feuchte:Windchill:Wind:
Aussen-T/F 2301 14-12-2013 10:00:00 3.74167 C 5.92 g/m*3 1.2 C 9.81667 km/h
2302 14-12-2013 11:00:00 4.11667 C 6.05 g/m*3 1.78 C 9.25833 km/h
2303 14-12-2013 12:00:00 4.78333 C 6.24 g/m*3 2.35 C 10.21667 km/h
2304 14-12-2013 13:00:00 5.13333 C 6.38 g/m*3 3.21 C 8.33333 km/h
2305 14-12-2013 14:00:00 5.56667 C 6.47 g/m*3 3.49 C 9.28333 km/h
2306 14-12-2013 15:00:00 5.43333 C 6.4 g/m*3 4.04 C 6.56667 km/h
2307 14-12-2013 16:00:00 5.375 C 6.37 g/m*3 3.98 C 6.55833 km/h
2308 14-12-2013 17:00:00 4.76667 C 6.16 g/m*3 3.79 C 5.08333 km/h
2309 14-12-2013 18:00:00 3.075 C 5.7 g/m*3 3.08 C 3.33333 km/h
2310 14-12-2013 19:00:00 3.76667 C 5.96 g/m*3 1.78 C 7.65833 km/h
2311 14-12-2013 20:00:00 3.93333 C 5.89 g/m*3 2.64 C 5.60833 km/h
2312 14-12-2013 21:00:00 3.83333 C 5.83 g/m*3 2.19 C 6.56667 km/h
2313 14-12-2013 22:00:00 4.24167 C 5.9 g/m*3 1.8 C 9.80833 km/h
2314 14-12-2013 23:00:00 4.775 C 6.06 g/m*3 1.66 C 13.825 km/h
2315 15-12-2013 00:00:00 5.04167 C 6.07 g/m*3 3 C 8.71667 km/h
2316 15-12-2013 01:00:00 4.9 C 6.08 g/m*3 3.56 C 6.15 km/h
2317 15-12-2013 02:00:00 5.04167 C 6.12 g/m*3 4 C 5.35833 km/h
2318 15-12-2013 03:00:00 5.16667 C 6.15 g/m*3 5.17 C 4.825 km/h
2319 15-12-2013 04:00:00 5.075 C 6.1 g/m*3 5.08 C 3.2 km/h
2320 15-12-2013 05:00:00 4.90833 C 6.08 g/m*3 3.2 C 7.375 km/h
2321 15-12-2013 06:00:00 5.55833 C 6 g/m*3 4.11 C 6.83333 km/h
2322 15-12-2013 07:00:00 5.11667 C 5.91 g/m*3 5.12 C 2.80833 km/h
2323 15-12-2013 08:00:00 4.84167 C 5.97 g/m*3 4.84 C 1.06667 km/h
2324 15-12-2013 09:00:00 5.45 C 5.92 g/m*3 3.83 C 7.38333 km/h
2325 15-12-2013 10:00:00 6.65833 C 5.82 g/m*3 4.79 C 9.25833 km/h
Sensor: Nr:Datum:Temp:Abs-Feuchte:Windchill:Wind:
Aussen-T/F 2326 15-12-2013 11:00:00 6.95 C 5.82 g/m*3 4.39 C 13.43333 km/h
2327 15-12-2013 12:00:00 7.69167 C 5.87 g/m*3 4.97 C 15.7 km/h
2328 15-12-2013 13:00:00 8.21667 C 5.88 g/m*3 5.73 C 14.9 km/h
2329 15-12-2013 14:00:00 7.91667 C 6.04 g/m*3 6.74 C 7.25833 km/h
2330 15-12-2013 15:00:00 6.39167 C 6.11 g/m*3 6.39 C 3.74167 km/h
2331 15-12-2013 16:00:00 5.075 C 5.93 g/m*3 5.08 C 3.33333 km/h
2332 15-12-2013 17:00:00 4.43333 C 5.76 g/m*3 4.43 C 2.53333 km/h
2333 15-12-2013 18:00:00 4.51667 C 5.91 g/m*3 4.52 C 0.93333 km/h
2334 15-12-2013 19:00:00 3.54167 C 5.58 g/m*3 3.54 C 0.8 km/h
2335 15-12-2013 20:00:00 2.64167 C 5.37 g/m*3 2.64 C 0.26667 km/h
2336 15-12-2013 21:00:00 2.09167 C 5.22 g/m*3 2.09 C 0.26667 km/h
2337 15-12-2013 22:00:00 1.48333 C 5.03 g/m*3 1.48 C 0.53333 km/h
2338 15-12-2013 23:00:00 1.21667 C 4.99 g/m*3 1.22 C 0.13333 km/h
2339 16-12-2013 00:00:00 1.05 C 4.95 g/m*3 1.05 C 0.66667 km/h
2340 16-12-2013 01:00:00 0.78333 C 4.86 g/m*3 0.78 C 0 km/h
2341 16-12-2013 02:00:00 0.475 C 4.76 g/m*3 0.48 C 0.66667 km/h
2342 16-12-2013 03:00:00 0.325 C 4.71 g/m*3 0.33 C 0.66667 km/h
2343 16-12-2013 04:00:00 -0.03333 C 4.6 g/m*3 -0.03 C 0.13333 km/h
2344 16-12-2013 05:00:00 0.29167 C 4.74 g/m*3 0.29 C 0.26667 km/h
2345 16-12-2013 06:00:00 0 C 4.63 g/m*3 0 C 0.43636 km/h
2346 16-12-2013 07:00:00 -0.3 C 4.56 g/m*3 -0.3 C 0 km/h
2347 16-12-2013 08:00:00 -0.30833 C 4.55 g/m*3 -0.31 C 0.8 km/h
2348 16-12-2013 09:00:00 -0.3 C 4.56 g/m*3 -0.3 C 0.26667 km/h
2349 16-12-2013 10:00:00 0.31667 C 4.75 g/m*3 0.32 C 0.4 km/h
2350 16-12-2013 11:00:00 1.24167 C 5.03 g/m*3 1.24 C 0.13333 km/h
Sensor: Nr:Datum:Temp:Abs-Feuchte:Windchill:Wind:
Aussen-T/F 2351 16-12-2013 12:00:00 2.31667 C 5.37 g/m*3 2.32 C 1.46667 km/h
2352 16-12-2013 13:00:00 3.33333 C 5.66 g/m*3 3.33 C 2.8 km/h
2353 16-12-2013 14:00:00 4.175 C 5.92 g/m*3 4.18 C 3.73333 km/h
2354 16-12-2013 15:00:00 4.49167 C 6.02 g/m*3 4.49 C 3.06667 km/h
2355 16-12-2013 16:00:00 4.09167 C 5.84 g/m*3 4.09 C 2.66667 km/h
2356 16-12-2013 17:00:00 3.225 C 5.62 g/m*3 3.23 C 1.6 km/h
2357 16-12-2013 18:00:00 2.575 C 5.4 g/m*3 2.58 C 0.66667 km/h
2358 16-12-2013 19:00:00 2.29167 C 5.38 g/m*3 2.29 C 0.13333 km/h
2359 16-12-2013 20:00:00 1.78333 C 5.19 g/m*3 1.78 C 0.93333 km/h
2360 16-12-2013 21:00:00 1.1 C 4.97 g/m*3 1.1 C 0 km/h
2361 16-12-2013 22:00:00 0.88333 C 4.94 g/m*3 0.88 C 0.8 km/h
2362 16-12-2013 23:00:00 0.64167 C 4.87 g/m*3 0.64 C 0.26667 km/h
2363 17-12-2013 00:00:00 0.15 C 4.7 g/m*3 0.15 C 0.26667 km/h
2364 17-12-2013 01:00:00 -0.175 C 4.62 g/m*3 -0.18 C 0 km/h
2365 17-12-2013 02:00:00 -0.325 C 4.6 g/m*3 -0.33 C 0 km/h
2366 17-12-2013 03:00:00 -0.575 C 4.52 g/m*3 -0.57 C 0 km/h
2367 17-12-2013 04:00:00 -0.86667 C 4.43 g/m*3 -0.87 C 0.13333 km/h
2368 17-12-2013 05:00:00 -1.175 C 4.33 g/m*3 -1.18 C 0 km/h
2369 17-12-2013 06:00:00 -1.15 C 4.34 g/m*3 -1.15 C 0.66667 km/h
2370 17-12-2013 07:00:00 -1.34167 C 4.28 g/m*3 -1.34 C 0.8 km/h
2371 17-12-2013 08:00:00 -1.5 C 4.23 g/m*3 -1.5 C 0 km/h
2372 17-12-2013 09:00:00 -0.94167 C 4.41 g/m*3 -0.94 C 0.93333 km/h
2373 17-12-2013 10:00:00 -0.50833 C 4.55 g/m*3 -0.51 C 0 km/h
2374 17-12-2013 11:00:00 1.175 C 5.15 g/m*3 1.18 C 1.6 km/h
2375 17-12-2013 12:00:00 3.04167 C 5.84 g/m*3 3.04 C 0.66667 km/h
Sensor: Nr:Datum:Temp:Abs-Feuchte:Windchill:Wind:
Aussen-T/F 2376 17-12-2013 13:00:00 4.44167 C 6.26 g/m*3 4.44 C 2.8 km/h
2377 17-12-2013 14:00:00 5.31667 C 6.34 g/m*3 5.32 C 2.93333 km/h
2378 17-12-2013 15:00:00 5.86667 C 6.4 g/m*3 5.87 C 4.53333 km/h
2379 17-12-2013 16:00:00 5.10833 C 6.07 g/m*3 5.11 C 2.66667 km/h
2380 17-12-2013 17:00:00 3.84167 C 5.8 g/m*3 3.84 C 1.06667 km/h
2381 17-12-2013 18:00:00 3.00833 C 5.54 g/m*3 3.01 C 0.4 km/h
2382 17-12-2013 19:00:00 2.35833 C 5.37 g/m*3 2.36 C 0 km/h
2383 17-12-2013 20:00:00 1.66667 C 5.15 g/m*3 1.67 C 0.26667 km/h
2384 17-12-2013 21:00:00 1.08333 C 5 g/m*3 1.08 C 0 km/h
2385 17-12-2013 22:00:00 0.99167 C 4.99 g/m*3 0.99 C 0.53333 km/h
2386 17-12-2013 23:00:00 0.61667 C 4.87 g/m*3 0.62 C 0 km/h
2387 18-12-2013 00:00:00 0.35833 C 4.82 g/m*3 0.36 C 0.13333 km/h
2388 18-12-2013 01:00:00 0.4 C 4.83 g/m*3 0.4 C 0 km/h
2389 18-12-2013 02:00:00 0.75833 C 4.95 g/m*3 0.76 C 0.26667 km/h
2390 18-12-2013 03:00:00 1.04167 C 5.05 g/m*3 1.04 C 0.13333 km/h
2391 18-12-2013 04:00:00 1.2 C 5.1 g/m*3 1.2 C 0 km/h
2392 18-12-2013 05:00:00 1.49167 C 5.22 g/m*3 1.49 C 0.13333 km/h
2393 18-12-2013 06:00:00 1.70833 C 5.29 g/m*3 1.71 C 0.93333 km/h
2394 18-12-2013 07:00:00 1.775 C 5.31 g/m*3 1.78 C 1.06667 km/h
2395 18-12-2013 08:00:00 1.93333 C 5.37 g/m*3 1.93 C 0.93333 km/h
2396 18-12-2013 09:00:00 2.66667 C 5.64 g/m*3 2.67 C 2 km/h
2397 18-12-2013 10:00:00 3.29167 C 5.83 g/m*3 3.29 C 2.4 km/h
2398 18-12-2013 11:00:00 3.98333 C 6.01 g/m*3 3.98 C 1.86667 km/h
2399 18-12-2013 12:00:00 4.475 C 6.15 g/m*3 4.47 C 0 km/h
2400 18-12-2013 13:00:00 6.85833 C 7.1 g/m*3 5.54 C 7.11667 km/h
Sensor: Nr:Datum:Temp:Abs-Feuchte:Windchill:Wind:
Aussen-T/F 2401 18-12-2013 14:00:00 8.98333 C 7.6 g/m*3 8.15 C 6.56667 km/h
2402 18-12-2013 15:00:00 8.75 C 7.61 g/m*3 8.75 C 4.68333 km/h
2403 18-12-2013 16:00:00 8.20833 C 7.46 g/m*3 8.21 C 2.13333 km/h
2404 18-12-2013 17:00:00 7.35 C 7.26 g/m*3 7.35 C 2 km/h
2405 18-12-2013 18:00:00 7.11667 C 7.07 g/m*3 7.12 C 3.2 km/h
2406 18-12-2013 19:00:00 5.9 C 6.66 g/m*3 5.9 C 2.8 km/h
2407 18-12-2013 20:00:00 5.23333 C 6.47 g/m*3 5.23 C 3.2 km/h
2408 18-12-2013 21:00:00 5.11667 C 6.49 g/m*3 5.12 C 3.06667 km/h
2409 18-12-2013 22:00:00 5.80833 C 6.77 g/m*3 5.81 C 4.13333 km/h
2410 18-12-2013 23:00:00 6.38333 C 6.94 g/m*3 6.38 C 2.93333 km/h
2411 19-12-2013 00:00:00 7.03333 C 7.09 g/m*3 7.03 C 4.40833 km/h
2412 19-12-2013 01:00:00 8.35833 C 7.24 g/m*3 7.54 C 6.16667 km/h
2413 19-12-2013 02:00:00 9.18333 C 7.31 g/m*3 8.53 C 6.025 km/h
2414 19-12-2013 03:00:00 9.3 C 7.4 g/m*3 8.42 C 6.975 km/h
2415 19-12-2013 04:00:00 9.38333 C 7.47 g/m*3 9.38 C 4.40833 km/h
2416 19-12-2013 05:00:00 9.01667 C 7.83 g/m*3 9.02 C 4.675 km/h
2417 19-12-2013 06:00:00 8.66667 C 7.99 g/m*3 8.67 C 4.94167 km/h
2418 19-12-2013 07:00:00 8.53333 C 8.04 g/m*3 8.53 C 4.95 km/h
2419 19-12-2013 08:00:00 8.45833 C 8.14 g/m*3 8.46 C 3.46667 km/h
2420 19-12-2013 09:00:00 8.925 C 8.37 g/m*3 8.93 C 4.69167 km/h
2421 19-12-2013 10:00:00 9.725 C 8.59 g/m*3 9.22 C 5.775 km/h
2422 19-12-2013 11:00:00 10.64167 C 8.36 g/m*3 8.77 C 14.48333 km/h
2423 19-12-2013 12:00:00 10.80833 C 7.93 g/m*3 9.03 C 13.96667 km/h
2424 19-12-2013 13:00:00 10.6 C 7.65 g/m*3 9.19 C 11.025 km/h
2425 19-12-2013 14:00:00 10.23333 C 7.41 g/m*3 8.57 C 12.21667 km/h
Sensor: Nr:Datum:Temp:Abs-Feuchte:Windchill:Wind:
Aussen-T/F 2426 19-12-2013 15:00:00 9.3 C 7.17 g/m*3 7.6 C 11.16667 km/h
2427 19-12-2013 16:00:00 8.6 C 7 g/m*3 7.1 C 9.275 km/h
2428 19-12-2013 17:00:00 7.6 C 7.02 g/m*3 7.6 C 2.4 km/h
2429 19-12-2013 18:00:00 6.58333 C 6.84 g/m*3 6.58 C 2.93333 km/h
2430 19-12-2013 19:00:00 6.25 C 6.94 g/m*3 6.25 C 2 km/h
2431 19-12-2013 20:00:00 5.425 C 6.61 g/m*3 5.43 C 2.13333 km/h
2432 19-12-2013 21:00:00 4.9 C 6.42 g/m*3 4.9 C 1.33333 km/h
2433 19-12-2013 22:00:00 4.19167 C 6.14 g/m*3 4.19 C 2 km/h
2434 19-12-2013 23:00:00 3.575 C 5.91 g/m*3 3.58 C 0.66667 km/h
2435 20-12-2013 00:00:00 2.98333 C 5.71 g/m*3 2.98 C 1.33333 km/h
2436 20-12-2013 01:00:00 2.61667 C 5.59 g/m*3 2.62 C 0.53333 km/h
2437 20-12-2013 02:00:00 2.99167 C 5.76 g/m*3 2.99 C 0.53333 km/h
2438 20-12-2013 03:00:00 2.96667 C 5.75 g/m*3 2.97 C 0.53333 km/h
2439 20-12-2013 04:00:00 2.98333 C 5.76 g/m*3 2.98 C 0 km/h
2440 20-12-2013 05:00:00 3.275 C 5.9 g/m*3 3.28 C 0.4 km/h
2441 20-12-2013 06:00:00 3.15833 C 5.83 g/m*3 3.16 C 0.53333 km/h
2442 20-12-2013 07:00:00 4.04167 C 6.24 g/m*3 4.04 C 2 km/h
2443 20-12-2013 08:00:00 4.05833 C 6.2 g/m*3 4.06 C 0.93333 km/h
2444 20-12-2013 09:00:00 4.65 C 6.41 g/m*3 4.65 C 4.14167 km/h
2445 20-12-2013 10:00:00 5.73333 C 6.57 g/m*3 5.73 C 4.53333 km/h
2446 20-12-2013 11:00:00 6.35833 C 6.64 g/m*3 5.11 C 6.575 km/h
2447 20-12-2013 12:00:00 6.35 C 6.54 g/m*3 5.53 C 5.23333 km/h
2448 20-12-2013 13:00:00 6.50833 C 6.38 g/m*3 5.03 C 7.51667 km/h
2449 20-12-2013 14:00:00 6.325 C 6.28 g/m*3 5.04 C 6.69167 km/h
2450 20-12-2013 15:00:00 5.9 C 6.24 g/m*3 4.88 C 5.61667 km/h
Sensor: Nr:Datum:Temp:Abs-Feuchte:Windchill:Wind:
Aussen-T/F 2451 20-12-2013 16:00:00 5.36667 C 6.09 g/m*3 5.37 C 4.26667 km/h
2452 20-12-2013 17:00:00 4.2 C 5.88 g/m*3 4.2 C 4.40833 km/h
2453 20-12-2013 18:00:00 4.05 C 5.84 g/m*3 4.05 C 4.66667 km/h
2454 20-12-2013 19:00:00 4.20833 C 5.77 g/m*3 3.1 C 5.20833 km/h
2455 20-12-2013 20:00:00 4.05 C 5.7 g/m*3 2.92 C 5.21667 km/h
2456 20-12-2013 21:00:00 3.45 C 5.62 g/m*3 3.45 C 3.2 km/h
2457 20-12-2013 22:00:00 3.675 C 5.72 g/m*3 3.68 C 4.675 km/h
2458 20-12-2013 23:00:00 5.31667 C 5.97 g/m*3 3.79 C 6.975 km/h
2459 21-12-2013 00:00:00 4.89167 C 5.84 g/m*3 3.38 C 6.7 km/h
2460 21-12-2013 01:00:00 5.125 C 5.88 g/m*3 3.86 C 6.01667 km/h
2461 21-12-2013 02:00:00 4.625 C 5.73 g/m*3 4.63 C 4.53333 km/h
2462 21-12-2013 03:00:00 3.28333 C 5.48 g/m*3 3.28 C 2.8 km/h
2463 21-12-2013 04:00:00 2.675 C 5.4 g/m*3 2.68 C 3.33333 km/h
2464 21-12-2013 05:00:00 2.76667 C 5.44 g/m*3 2.77 C 1.33333 km/h
2465 21-12-2013 06:00:00 3.28333 C 5.56 g/m*3 3.28 C 1.6 km/h
2466 21-12-2013 07:00:00 3.925 C 5.59 g/m*3 3.93 C 2.54167 km/h
2467 21-12-2013 08:00:00 3.45833 C 5.51 g/m*3 3.46 C 0.8 km/h
2468 21-12-2013 09:00:00 2.93333 C 5.46 g/m*3 2.93 C 0.8 km/h
2469 21-12-2013 10:00:00 4.5 C 5.71 g/m*3 4.5 C 1.2 km/h
2470 21-12-2013 11:00:00 6 C 5.81 g/m*3 6 C 3.33333 km/h
2471 21-12-2013 12:00:00 6.95 C 5.57 g/m*3 5.35 C 8.31667 km/h
2472 21-12-2013 13:00:00 7.21667 C 5.51 g/m*3 6.57 C 5.09167 km/h
2473 21-12-2013 14:00:00 6.9 C 5.59 g/m*3 6.9 C 1.86667 km/h
2474 21-12-2013 15:00:00 6.31667 C 5.45 g/m*3 6.32 C 2.13333 km/h
2475 21-12-2013 16:00:00 5.65833 C 5.32 g/m*3 5.66 C 2.13333 km/h
Sensor: Nr:Datum:Temp:Abs-Feuchte:Windchill:Wind:
Aussen-T/F 2476 21-12-2013 17:00:00 5.025 C 5.3 g/m*3 5.03 C 2 km/h
2477 21-12-2013 18:00:00 4.86667 C 5.15 g/m*3 4.87 C 2.13333 km/h
2478 21-12-2013 19:00:00 4.81667 C 5.2 g/m*3 4.82 C 2.66667 km/h
2479 21-12-2013 20:00:00 5.00833 C 5.25 g/m*3 5.01 C 4.01667 km/h
2480 21-12-2013 21:00:00 4.78333 C 5.31 g/m*3 4.78 C 2.8 km/h
2481 21-12-2013 22:00:00 4.79167 C 5.23 g/m*3 4.79 C 3.06667 km/h
2482 21-12-2013 23:00:00 5.725 C 4.99 g/m*3 5.73 C 4.40833 km/h
2483 22-12-2013 00:00:00 6.39167 C 4.57 g/m*3 5.12 C 6.69167 km/h
2484 22-12-2013 01:00:00 7.3 C 4.31 g/m*3 6.62 C 5.21667 km/h
2485 22-12-2013 02:00:00 7.425 C 4.9 g/m*3 6.31 C 6.7 km/h
2486 22-12-2013 03:00:00 8.35 C 5.78 g/m*3 5.47 C 18.375 km/h
2487 22-12-2013 04:00:00 8.01667 C 6.26 g/m*3 5.34 C 15.96667 km/h
2488 22-12-2013 05:00:00 7.28333 C 6.84 g/m*3 4.5 C 15.43333 km/h
2489 22-12-2013 06:00:00 7.34167 C 7.01 g/m*3 4.14 C 18.9 km/h
2490 22-12-2013 07:00:00 7.66667 C 7.3 g/m*3 5.5 C 11.94167 km/h
2491 22-12-2013 08:00:00 7.35833 C 7.46 g/m*3 7.36 C 2.13333 km/h
2492 22-12-2013 09:00:00 8.13333 C 7.78 g/m*3 7.48 C 5.49167 km/h
2493 22-12-2013 10:00:00 9.16667 C 7.91 g/m*3 7.88 C 8.71667 km/h
2494 22-12-2013 11:00:00 9.46667 C 7.94 g/m*3 8.65 C 6.83333 km/h
2495 22-12-2013 12:00:00 9.71667 C 8.04 g/m*3 9.33 C 5.35833 km/h
2496 22-12-2013 13:00:00 10.16667 C 8.01 g/m*3 8.69 C 10.88333 km/h
2497 22-12-2013 14:00:00 10.21667 C 7.99 g/m*3 8.34 C 13.7 km/h
2498 22-12-2013 15:00:00 9.96667 C 8.05 g/m*3 8.06 C 13.56667 km/h
2499 22-12-2013 16:00:00 10.09167 C 7.95 g/m*3 8.12 C 14.23333 km/h
2500 22-12-2013 17:00:00 10 C 7.92 g/m*3 7.93 C 14.9 km/h
Sensor: Nr:Datum:Temp:Abs-Feuchte:Windchill:Wind:
Aussen-T/F 2501 22-12-2013 18:00:00 9.925 C 7.93 g/m*3 7.51 C 17.7 km/h
2502 22-12-2013 19:00:00 9.9 C 7.95 g/m*3 7.19 C 20.65 km/h
2503 22-12-2013 20:00:00 9.93333 C 7.94 g/m*3 7.23 C 20.63333 km/h
2504 22-12-2013 21:00:00 9.725 C 8 g/m*3 7.67 C 14.23333 km/h
2505 22-12-2013 22:00:00 9.38333 C 8.15 g/m*3 8.08 C 9.00833 km/h
2506 22-12-2013 23:00:00 8.63333 C 8.06 g/m*3 8.63 C 3.60833 km/h
2507 23-12-2013 00:00:00 8.025 C 7.84 g/m*3 8.03 C 4.26667 km/h
2508 23-12-2013 01:00:00 7.83333 C 7.39 g/m*3 5.43 C 13.675 km/h
2509 23-12-2013 02:00:00 5.83333 C 6.77 g/m*3 5.83 C 4.14167 km/h
2510 23-12-2013 03:00:00 5.975 C 6.82 g/m*3 5.11 C 5.20833 km/h
2511 23-12-2013 04:00:00 5.9 C 6.82 g/m*3 5.9 C 4.13333 km/h
2512 23-12-2013 05:00:00 7.15833 C 6.88 g/m*3 5.19 C 10.21667 km/h
2513 23-12-2013 06:00:00 6.43333 C 6.73 g/m*3 5.4 C 5.9 km/h
2514 23-12-2013 07:00:00 5.95 C 6.74 g/m*3 5.95 C 3.46667 km/h
2515 23-12-2013 08:00:00 5.51667 C 6.58 g/m*3 5.52 C 2 km/h
2516 23-12-2013 09:00:00 5.175 C 6.53 g/m*3 5.18 C 0.8 km/h
2517 23-12-2013 10:00:00 6.825 C 7.14 g/m*3 5.17 C 8.4625 km/h
2518 23-12-2013 11:00:00 8.99167 C 7.38 g/m*3 7.67 C 8.73333 km/h
2519 23-12-2013 12:00:00 9.54167 C 7.54 g/m*3 8.54 C 7.65833 km/h
2520 23-12-2013 13:00:00 10.1125 C 7.52 g/m*3 9.7 C 5.625 km/h
2521 23-12-2013 14:00:00 10.69167 C 7.61 g/m*3 9.76 C 8.325 km/h
2522 23-12-2013 15:00:00 10.9 C 7.6 g/m*3 9.88 C 9 km/h
2523 23-12-2013 16:00:00 10.1 C 7.61 g/m*3 9.48 C 6.4 km/h
2524 23-12-2013 17:00:00 10.58333 C 7.78 g/m*3 9.82 C 7.4 km/h
2525 23-12-2013 18:00:00 10.55833 C 7.8 g/m*3 10.21 C 5.625 km/h
Sensor: Nr:Datum:Temp:Abs-Feuchte:Windchill:Wind:
Aussen-T/F 2526 23-12-2013 19:00:00 9.97778 C 7.59 g/m*3 9.43 C 6.07778 km/h
2527 23-12-2013 20:00:00 10.26667 C 7.46 g/m*3 9.2 C 8.58333 km/h
2528 23-12-2013 21:00:00 10.21667 C 7.42 g/m*3 9.19 C 8.34167 km/h
2529 23-12-2013 22:00:00 10.43333 C 7.42 g/m*3 9.23 C 9.54167 km/h
2530 23-12-2013 23:00:00 10.25833 C 7.26 g/m*3 8.99 C 9.69167 km/h
2531 24-12-2013 00:00:00 9.9 C 6.99 g/m*3 8.72 C 8.86667 km/h
2532 24-12-2013 01:00:00 9.575 C 6.84 g/m*3 8.62 C 7.5 km/h
2533 24-12-2013 02:00:00 8.85833 C 6.65 g/m*3 7.9 C 6.98333 km/h
2534 24-12-2013 03:00:00 8.51667 C 6.66 g/m*3 7.88 C 5.61667 km/h
2535 24-12-2013 04:00:00 8.625 C 6.75 g/m*3 7.96 C 5.75833 km/h
2536 24-12-2013 05:00:00 9.61667 C 6.84 g/m*3 8.88 C 6.575 km/h
2537 24-12-2013 06:00:00 9.81667 C 6.97 g/m*3 9.26 C 6.01667 km/h
2538 24-12-2013 07:00:00 9.95833 C 7.05 g/m*3 9.12 C 7.25 km/h
2539 24-12-2013 08:00:00 11.84167 C 7.24 g/m*3 11.84 C 8.05833 km/h
2540 24-12-2013 09:00:00 12.26667 C 7.36 g/m*3 12.27 C 8.18333 km/h
2541 24-12-2013 10:00:00 12.8 C 7.57 g/m*3 12.8 C 8.73333 km/h
2542 24-12-2013 11:00:00 13.88333 C 7.48 g/m*3 13.88 C 16.10833 km/h
2543 24-12-2013 12:00:00 13.96667 C 7.71 g/m*3 13.97 C 9.94167 km/h
2544 24-12-2013 13:00:00 13.85833 C 7.8 g/m*3 13.86 C 10.71667 km/h
2545 24-12-2013 14:00:00 13.90833 C 7.92 g/m*3 13.91 C 10.225 km/h
2546 24-12-2013 15:00:00 13.08333 C 8.39 g/m*3 13.08 C 8.45833 km/h
2547 24-12-2013 16:00:00 12.75 C 8.32 g/m*3 12.75 C 8.6 km/h
2548 24-12-2013 17:00:00 12.74167 C 8.3 g/m*3 12.74 C 9.26667 km/h
2549 24-12-2013 18:00:00 12.78333 C 8.22 g/m*3 12.78 C 6.70833 km/h
2550 24-12-2013 19:00:00 12.73333 C 8.25 g/m*3 12.73 C 8.05 km/h
Sensor: Nr:Datum:Temp:Abs-Feuchte:Windchill:Wind:
Aussen-T/F 2551 24-12-2013 20:00:00 12.58333 C 8.27 g/m*3 12.58 C 8.6 km/h
2552 24-12-2013 21:00:00 11.98182 C 8.58 g/m*3 11.98 C 9.82727 km/h
2553 24-12-2013 22:00:00 11.16 C 8.77 g/m*3 11.16 C 5.3 km/h
2554 24-12-2013 23:00:00 10.575 C 8.62 g/m*3 10.58 C 4.81667 km/h
2555 25-12-2013 00:00:00 10.85833 C 8.53 g/m*3 10 C 8.05833 km/h
2556 25-12-2013 01:00:00 10.64167 C 8.6 g/m*3 10.14 C 6.29167 km/h
2557 25-12-2013 02:00:00 10.675 C 8.56 g/m*3 9.9 C 7.50833 km/h
2558 25-12-2013 03:00:00 10.8 C 8.7 g/m*3 10.22 C 6.70833 km/h
2559 25-12-2013 04:00:00 10.775 C 8.85 g/m*3 10.25 C 6.44167 km/h
2560 25-12-2013 05:00:00 10.53333 C 8.86 g/m*3 9.52 C 8.6 km/h
2561 25-12-2013 06:00:00 10.025 C 8.58 g/m*3 9.32 C 6.71667 km/h
2562 25-12-2013 07:00:00 9.425 C 8.27 g/m*3 7.91 C 10.2 km/h
2563 25-12-2013 08:00:00 8.275 C 7.57 g/m*3 7.44 C 6.16667 km/h
2564 25-12-2013 09:00:00 7.55 C 7.47 g/m*3 7.55 C 2.93333 km/h
2565 25-12-2013 11:00:00 8.16667 C 8.08 g/m*3 8.17 C 0 km/h
2566 25-12-2013 16:00:00 7.775 C 7.82 g/m*3 7.78 C 0.26667 km/h
2567 25-12-2013 17:00:00 7.40833 C 7.59 g/m*3 7.41 C 0.93333 km/h
2568 25-12-2013 18:00:00 6.28333 C 7.06 g/m*3 6.28 C 2.66667 km/h
2569 25-12-2013 19:00:00 5.85 C 6.94 g/m*3 5.85 C 1.46667 km/h
2570 25-12-2013 20:00:00 6.275 C 7.11 g/m*3 6.28 C 0.8 km/h
2571 25-12-2013 21:00:00 5.65 C 6.78 g/m*3 5.65 C 1.73333 km/h
2572 25-12-2013 22:00:00 6.06667 C 7.01 g/m*3 6.07 C 1.74167 km/h
2573 25-12-2013 23:00:00 6.375 C 7.09 g/m*3 6.38 C 1.33333 km/h
2574 26-12-2013 00:00:00 5.80833 C 6.8 g/m*3 5.81 C 2.13333 km/h
2575 26-12-2013 01:00:00 5.41667 C 6.69 g/m*3 5.42 C 0.26667 km/h
Sensor: Nr:Datum:Temp:Abs-Feuchte:Windchill:Wind:
Aussen-T/F 2576 26-12-2013 02:00:00 5.30833 C 6.66 g/m*3 5.31 C 0.13333 km/h
2577 26-12-2013 03:00:00 5.50833 C 6.76 g/m*3 5.51 C 0.13333 km/h
2578 26-12-2013 04:00:00 5.79167 C 6.87 g/m*3 5.79 C 0 km/h
2579 26-12-2013 05:00:00 5.74167 C 6.85 g/m*3 5.74 C 0 km/h
2580 26-12-2013 06:00:00 5.65833 C 6.81 g/m*3 5.66 C 0 km/h
2581 26-12-2013 07:00:00 5.7 C 6.83 g/m*3 5.7 C 0.4 km/h
2582 26-12-2013 08:00:00 5.79167 C 6.91 g/m*3 5.79 C 0 km/h
2583 26-12-2013 09:00:00 5.975 C 7.03 g/m*3 5.98 C 0 km/h
2584 26-12-2013 10:00:00 6.15833 C 7.11 g/m*3 6.16 C 0 km/h
2585 26-12-2013 11:00:00 6.39167 C 7.2 g/m*3 6.39 C 3.33333 km/h
2586 26-12-2013 12:00:00 6.5 C 7.2 g/m*3 5.58 C 5.6 km/h
2587 26-12-2013 13:00:00 7.42857 C 7.33 g/m*3 7.43 C 0.68571 km/h
2588 26-12-2013 14:00:00 7.65 C 7.37 g/m*3 7.65 C 0.53333 km/h
2589 26-12-2013 15:00:00 7.68 C 7.36 g/m*3 7.68 C 0.16 km/h
2590 26-12-2013 16:00:00 7.21818 C 7.38 g/m*3 7.22 C 0 km/h
2591 26-12-2013 17:00:00 7.05833 C 7.29 g/m*3 7.06 C 1.6 km/h
2592 26-12-2013 18:00:00 6.65 C 7.19 g/m*3 6.65 C 2.53333 km/h
2593 26-12-2013 19:00:00 6.11667 C 6.98 g/m*3 6.12 C 2.93333 km/h
2594 26-12-2013 20:00:00 5.71667 C 6.84 g/m*3 5.72 C 2.66667 km/h
2595 26-12-2013 21:00:00 4.83333 C 6.36 g/m*3 4.83 C 4.40833 km/h
2596 26-12-2013 22:00:00 5.18333 C 6.41 g/m*3 4.11 C 5.49167 km/h
2597 26-12-2013 23:00:00 5.55833 C 6.28 g/m*3 3.96 C 7.36667 km/h
2598 27-12-2013 00:00:00 4.73333 C 6.05 g/m*3 3.32 C 6.29167 km/h
2599 27-12-2013 01:00:00 4.975 C 6 g/m*3 3.35 C 7.1 km/h
2600 27-12-2013 02:00:00 3.525 C 5.69 g/m*3 3.53 C 3.46667 km/h
Sensor: Nr:Datum:Temp:Abs-Feuchte:Windchill:Wind:
Aussen-T/F 2601 27-12-2013 03:00:00 2.50833 C 5.46 g/m*3 2.51 C 2.53333 km/h
2602 27-12-2013 04:00:00 3.53333 C 5.84 g/m*3 3.53 C 3.73333 km/h
2603 27-12-2013 05:00:00 5.075 C 6.02 g/m*3 3.94 C 5.625 km/h
2604 27-12-2013 06:00:00 4.95833 C 5.87 g/m*3 4.96 C 3.875 km/h
2605 27-12-2013 07:00:00 4.25833 C 5.84 g/m*3 4.26 C 2.13333 km/h
2606 27-12-2013 08:00:00 3.90833 C 5.78 g/m*3 3.91 C 3.46667 km/h
2607 27-12-2013 09:00:00 5.175 C 5.95 g/m*3 4.15 C 5.35833 km/h
2608 27-12-2013 10:00:00 6.55833 C 5.82 g/m*3 4.25 C 11.40833 km/h
2609 27-12-2013 11:00:00 7.125 C 5.85 g/m*3 5.59 C 8.18333 km/h
2610 27-12-2013 12:00:00 7.71111 C 6 g/m*3 5.96 C 9.68889 km/h
2611 27-12-2013 13:00:00 8.35 C 6.26 g/m*3 6.43 C 11.275 km/h
2612 27-12-2013 14:00:00 8.8 C 6.44 g/m*3 7.59 C 8.05 km/h
2613 27-12-2013 16:00:00 9.2 C 6.71 g/m*3 8.05 C 8.0625 km/h
2614 27-12-2013 17:00:00 8.85 C 6.96 g/m*3 8.45 C 5.0125 km/h
2615 27-12-2013 18:00:00 8.9 C 7.1 g/m*3 7.82 C 7.525 km/h
2616 27-12-2013 19:00:00 9.25 C 7.29 g/m*3 8.71 C 5.625 km/h
2617 27-12-2013 20:00:00 9.66667 C 7.64 g/m*3 9.35 C 5.08333 km/h
2618 27-12-2013 21:00:00 9.925 C 7.85 g/m*3 9.93 C 4.28333 km/h
2619 27-12-2013 22:00:00 10.03333 C 8.25 g/m*3 9.3 C 6.84167 km/h
2620 27-12-2013 23:00:00 9.675 C 8.39 g/m*3 9.09 C 6.025 km/h
2621 28-12-2013 00:00:00 9.71667 C 8.38 g/m*3 9.72 C 4.675 km/h
2622 28-12-2013 01:00:00 9.94167 C 8.27 g/m*3 9.94 C 3.2 km/h
2623 28-12-2013 02:00:00 10.85 C 8.06 g/m*3 10.37 C 6.3 km/h
2624 28-12-2013 03:00:00 10.79167 C 7.87 g/m*3 10.45 C 5.74167 km/h
2625 28-12-2013 04:00:00 10.54167 C 7.77 g/m*3 10.54 C 4.8 km/h
Sensor: Nr:Datum:Temp:Abs-Feuchte:Windchill:Wind:
Aussen-T/F 2626 28-12-2013 05:00:00 9.9 C 7.99 g/m*3 9.9 C 4.275 km/h
2627 28-12-2013 06:00:00 9.20833 C 7.94 g/m*3 9.21 C 4.53333 km/h
2628 28-12-2013 07:00:00 9.35 C 7.86 g/m*3 9.35 C 4.95 km/h
2629 28-12-2013 08:00:00 10.06667 C 7.96 g/m*3 9.16 C 7.64167 km/h
2630 28-12-2013 09:00:00 9.95833 C 7.92 g/m*3 8.95 C 8.05833 km/h
2631 28-12-2013 10:00:00 10.25 C 8.07 g/m*3 8.87 C 10.34167 km/h
2632 28-12-2013 11:00:00 10.48333 C 8.19 g/m*3 9.95 C 6.30833 km/h
2633 28-12-2013 12:00:00 9.84167 C 8.47 g/m*3 9.84 C 2.54167 km/h
2634 28-12-2013 13:00:00 9.45 C 8.51 g/m*3 9.45 C 0.4 km/h
2635 28-12-2013 14:00:00 9.36667 C 8.57 g/m*3 9.37 C 0.13333 km/h
2636 28-12-2013 15:00:00 9.24167 C 8.58 g/m*3 9.24 C 0 km/h
2637 28-12-2013 16:00:00 8.86667 C 8.4 g/m*3 8.87 C 0 km/h
2638 28-12-2013 17:00:00 8.51667 C 8.28 g/m*3 8.52 C 0.13333 km/h
2639 28-12-2013 18:00:00 8.24167 C 8.15 g/m*3 8.24 C 0 km/h
2640 28-12-2013 19:00:00 7.93333 C 7.98 g/m*3 7.93 C 0.4 km/h
2641 28-12-2013 20:00:00 7.73333 C 7.9 g/m*3 7.73 C 0.13333 km/h
2642 28-12-2013 21:00:00 7.29167 C 7.67 g/m*3 7.29 C 4.28333 km/h
2643 28-12-2013 22:00:00 6.58333 C 7.08 g/m*3 5.58 C 5.89167 km/h
2644 28-12-2013 23:00:00 5.34167 C 6.43 g/m*3 2.65 C 12.09167 km/h
2645 29-12-2013 00:00:00 4.66667 C 6.21 g/m*3 3.19 C 6.45 km/h
2646 29-12-2013 01:00:00 4.4 C 6.2 g/m*3 4.4 C 2.13333 km/h
2647 29-12-2013 02:00:00 5.075 C 6.29 g/m*3 2.3 C 12.23333 km/h
2648 29-12-2013 03:00:00 5.3 C 6.27 g/m*3 3.65 C 7.375 km/h
2649 29-12-2013 04:00:00 5.60833 C 6.45 g/m*3 5.61 C 4.95 km/h
2650 29-12-2013 05:00:00 5.46667 C 6.59 g/m*3 5.47 C 1.6 km/h
Sensor: Nr:Datum:Temp:Abs-Feuchte:Windchill:Wind:
Aussen-T/F 2651 29-12-2013 06:00:00 5.51667 C 6.66 g/m*3 5.52 C 3.475 km/h
2652 29-12-2013 07:00:00 5.025 C 6.48 g/m*3 5.03 C 2.93333 km/h
2653 29-12-2013 08:00:00 5.10833 C 6.57 g/m*3 5.11 C 3.75 km/h
2654 29-12-2013 09:00:00 4.925 C 6.46 g/m*3 4.93 C 3.86667 km/h
2655 29-12-2013 10:00:00 5.05 C 6.47 g/m*3 5.05 C 4.97 km/h
2656 29-12-2013 13:00:00 7.16667 C 6.66 g/m*3 5.1 C 10.76667 km/h
2657 29-12-2013 18:00:00 3.62 C 6.2 g/m*3 3.62 C 3.84 km/h
2658 29-12-2013 21:00:00 2.95 C 5.57 g/m*3 2.95 C 4.8 km/h
2659 29-12-2013 22:00:00 3.375 C 5.74 g/m*3 3.38 C 4.95833 km/h
2660 29-12-2013 23:00:00 2.65 C 5.51 g/m*3 2.65 C 2.54167 km/h
2661 30-12-2013 00:00:00 3.13333 C 5.66 g/m*3 3.13 C 3.48333 km/h
2662 30-12-2013 01:00:00 3.69167 C 5.82 g/m*3 3.69 C 2.80833 km/h
2663 30-12-2013 02:00:00 4.26667 C 5.86 g/m*3 4.27 C 3.6 km/h
2664 30-12-2013 03:00:00 3.89167 C 5.75 g/m*3 3.89 C 3.73333 km/h
2665 30-12-2013 04:00:00 4.35 C 5.8 g/m*3 4.35 C 3.60833 km/h
2666 30-12-2013 05:00:00 4.66667 C 5.76 g/m*3 4.67 C 3.075 km/h
2667 30-12-2013 06:00:00 4.82 C 5.68 g/m*3 4.82 C 3.2 km/h
2668 30-12-2013 07:00:00 4.8 C 5.63 g/m*3 4.8 C 3.2 km/h
2669 30-12-2013 13:00:00 6 C 5.81 g/m*3 4.73 C 6.45 km/h
2670 30-12-2013 14:00:00 5.77143 C 5.81 g/m*3 5.77 C 3.2 km/h
2671 30-12-2013 15:00:00 4.7 C 5.86 g/m*3 4.7 C 2.4 km/h
2672 30-12-2013 16:00:00 4.2 C 5.8 g/m*3 4.2 C 1.6 km/h
2673 30-12-2013 18:00:00 4.16667 C 5.79 g/m*3 4.17 C 2.66667 km/h
2674 30-12-2013 20:00:00 3.7 C 5.73 g/m*3 3.7 C 0 km/h
2675 30-12-2013 21:00:00 3.70833 C 5.74 g/m*3 3.71 C 0 km/h
Sensor: Nr:Datum:Temp:Abs-Feuchte:Windchill:Wind:
Aussen-T/F 2676 30-12-2013 22:00:00 3.8 C 5.77 g/m*3 3.8 C 0.53333 km/h
2677 31-12-2013 01:00:00 3.33333 C 5.53 g/m*3 3.33 C 3.2 km/h
2678 31-12-2013 02:00:00 3.2 C 5.48 g/m*3 3.2 C 3.2 km/h
2679 31-12-2013 07:00:00 1.02727 C 4.96 g/m*3 1.03 C 2.03636 km/h
2680 31-12-2013 08:00:00 1.075 C 4.96 g/m*3 1.08 C 0.4 km/h
2681 31-12-2013 09:00:00 1.15 C 5 g/m*3 1.15 C 0.13333 km/h
2682 31-12-2013 10:00:00 1.78333 C 5.26 g/m*3 1.78 C 0.26667 km/h
2683 31-12-2013 11:00:00 2.7 C 5.56 g/m*3 2.7 C 0.64 km/h
2684 31-12-2013 12:00:00 3.1 C 5.78 g/m*3 3.1 C 2.4 km/h
2685 31-12-2013 13:00:00 4.35 C 5.92 g/m*3 4.35 C 1.2 km/h
2686 31-12-2013 18:00:00 4.14444 C 5.4 g/m*3 1.93 C 8.76667 km/h
2687 31-12-2013 19:00:00 4.60833 C 5.38 g/m*3 2.59 C 8.325 km/h
2688 31-12-2013 20:00:00 4.35833 C 5.39 g/m*3 3.11 C 5.63333 km/h
2689 31-12-2013 21:00:00 3.925 C 5.39 g/m*3 3.93 C 3.20833 km/h
2690 31-12-2013 22:00:00 3.8 C 5.29 g/m*3 3.8 C 4.55 km/h
2691 31-12-2013 23:00:00 2.775 C 5.23 g/m*3 2.78 C 2.13333 km/h
2692 01-01-2014 00:00:00 2.65 C 5.19 g/m*3 2.65 C 1.46667 km/h
2693 01-01-2014 01:00:00 3 C 5.35 g/m*3 3 C 1.2 km/h
2694 01-01-2014 02:00:00 3.675 C 5.46 g/m*3 3.68 C 2.80833 km/h
2695 01-01-2014 03:00:00 4.36667 C 5.71 g/m*3 4.37 C 2 km/h
2696 01-01-2014 04:00:00 4.60833 C 5.98 g/m*3 4.61 C 1.46667 km/h
2697 01-01-2014 05:00:00 5.16667 C 6.13 g/m*3 5.17 C 1.86667 km/h
2698 01-01-2014 06:00:00 5.48333 C 6.37 g/m*3 5.48 C 0.66667 km/h
2699 01-01-2014 07:00:00 5.575 C 6.53 g/m*3 5.58 C 0.53333 km/h
2700 01-01-2014 08:00:00 5.025 C 6.34 g/m*3 5.03 C 2.26667 km/h
Sensor: Nr:Datum:Temp:Abs-Feuchte:Windchill:Wind:
Aussen-T/F 2701 01-01-2014 09:00:00 5.1 C 6.48 g/m*3 5.1 C 1.24444 km/h
2702 01-01-2014 10:00:00 6.325 C 6.68 g/m*3 6.33 C 1.6 km/h
2703 01-01-2014 11:00:00 7.025 C 6.8 g/m*3 7.03 C 2.54167 km/h
2704 01-01-2014 12:00:00 6.95833 C 6.82 g/m*3 6.96 C 2.93333 km/h
2705 01-01-2014 13:00:00 8.69167 C 6.7 g/m*3 8.69 C 4.14167 km/h
2706 01-01-2014 14:00:00 8.78333 C 6.79 g/m*3 8.78 C 4.68333 km/h
2707 01-01-2014 15:00:00 8.39167 C 6.83 g/m*3 8.39 C 2.8 km/h
2708 01-01-2014 16:00:00 7.6 C 6.76 g/m*3 7.6 C 4.55 km/h
2709 01-01-2014 17:00:00 7.8 C 6.87 g/m*3 7.01 C 5.76667 km/h
2710 01-01-2014 18:00:00 7.95 C 6.98 g/m*3 6.75 C 7.38333 km/h
2711 01-01-2014 19:00:00 8.15 C 6.91 g/m*3 7.29 C 6.175 km/h
2712 01-01-2014 20:00:00 7.91667 C 6.93 g/m*3 7.92 C 4.81667 km/h
2713 01-01-2014 21:00:00 8.5 C 6.97 g/m*3 7.59 C 6.575 km/h
2714 01-01-2014 22:00:00 8.13333 C 6.98 g/m*3 7.57 C 5.21667 km/h
2715 01-01-2014 23:00:00 8.04167 C 7.02 g/m*3 7.42 C 5.35 km/h
2716 02-01-2014 00:00:00 8.63333 C 7.11 g/m*3 8.09 C 5.35833 km/h
2717 02-01-2014 01:00:00 8.89167 C 7.19 g/m*3 8.34 C 5.49167 km/h
2718 02-01-2014 02:00:00 9.375 C 7.42 g/m*3 8.51 C 6.96667 km/h
2719 02-01-2014 03:00:00 8.95833 C 7.53 g/m*3 8.96 C 4.95 km/h
2720 02-01-2014 04:00:00 8.1 C 7.57 g/m*3 8.1 C 4.8 km/h
2721 02-01-2014 05:00:00 7.69167 C 7.57 g/m*3 7.69 C 3.46667 km/h
2722 02-01-2014 06:00:00 7.7 C 7.66 g/m*3 7.7 C 3.2 km/h
2723 02-01-2014 07:00:00 7.84545 C 7.78 g/m*3 7.85 C 3.64545 km/h
2724 02-01-2014 08:00:00 8.8 C 8.18 g/m*3 7.47 C 8.6 km/h
2725 02-01-2014 09:00:00 9.08 C 8.05 g/m*3 9.08 C 3.52 km/h
Sensor: Nr:Datum:Temp:Abs-Feuchte:Windchill:Wind:
Aussen-T/F 2726 02-01-2014 10:00:00 9.53333 C 8.18 g/m*3 9.53 C 4.68333 km/h
2727 02-01-2014 11:00:00 10.38333 C 8.52 g/m*3 10.38 C 4.66667 km/h
2728 02-01-2014 12:00:00 11.01667 C 8.3 g/m*3 11.02 C 9.79167 km/h
2729 02-01-2014 13:00:00 10.89167 C 7.94 g/m*3 8.96 C 15.43333 km/h
2730 02-01-2014 14:00:00 10.54167 C 7.84 g/m*3 8.63 C 14.63333 km/h
2731 02-01-2014 15:00:00 9.29167 C 7.74 g/m*3 8.13 C 8.2 km/h
2732 02-01-2014 16:00:00 8.70833 C 7.31 g/m*3 7.23 C 9.275 km/h
2733 02-01-2014 17:00:00 7.71111 C 7.08 g/m*3 7.71 C 4.45556 km/h
2734 02-01-2014 18:00:00 6.81667 C 7.02 g/m*3 6.82 C 2.8 km/h
2735 02-01-2014 19:00:00 6.80833 C 7.14 g/m*3 6.81 C 3.2 km/h
2736 02-01-2014 20:00:00 6.31667 C 7.01 g/m*3 6.32 C 2.93333 km/h
2737 02-01-2014 21:00:00 6.06667 C 6.88 g/m*3 6.07 C 2.66667 km/h
2738 02-01-2014 22:00:00 5.85 C 6.8 g/m*3 5.85 C 2.13333 km/h
2739 02-01-2014 23:00:00 4.95833 C 6.43 g/m*3 4.96 C 0.13333 km/h
2740 03-01-2014 00:00:00 4.025 C 6.1 g/m*3 4.03 C 0.26667 km/h
2741 03-01-2014 01:00:00 3.80833 C 6.06 g/m*3 3.81 C 0.26667 km/h
2742 03-01-2014 02:00:00 4.39167 C 6.33 g/m*3 4.39 C 1.73333 km/h
2743 03-01-2014 03:00:00 5.03333 C 6.63 g/m*3 5.03 C 2.26667 km/h
2744 03-01-2014 04:00:00 6.08333 C 7.02 g/m*3 6.08 C 3.46667 km/h
2745 03-01-2014 05:00:00 5.925 C 6.8 g/m*3 5.93 C 3.48333 km/h
2746 03-01-2014 06:00:00 5.71667 C 6.81 g/m*3 5.72 C 3.33333 km/h
2747 03-01-2014 07:00:00 5.91667 C 6.9 g/m*3 5.92 C 2.8 km/h
2748 03-01-2014 08:00:00 6.175 C 7.05 g/m*3 6.18 C 1.2 km/h
2749 03-01-2014 09:00:00 7.31667 C 7.34 g/m*3 7.32 C 4.94167 km/h
2750 03-01-2014 10:00:00 9.15 C 7.83 g/m*3 8.38 C 6.43333 km/h
Sensor: Nr:Datum:Temp:Abs-Feuchte:Windchill:Wind:
Aussen-T/F 2751 03-01-2014 11:00:00 9.28333 C 8.08 g/m*3 8.83 C 5.36667 km/h
2752 03-01-2014 12:00:00 10.55 C 8.46 g/m*3 8.95 C 12.225 km/h
2753 03-01-2014 13:00:00 11.08333 C 8.48 g/m*3 11.08 C 8.18333 km/h
2754 03-01-2014 14:00:00 12.00833 C 8.41 g/m*3 12.01 C 8.59167 km/h
2755 03-01-2014 15:00:00 11.86667 C 8.37 g/m*3 11.87 C 4.68333 km/h
2756 03-01-2014 16:00:00 11.06667 C 8.28 g/m*3 11.07 C 4.68333 km/h
2757 03-01-2014 17:00:00 10.85 C 8.18 g/m*3 10.41 C 6.16667 km/h
2758 03-01-2014 18:00:00 10.96667 C 8.17 g/m*3 10.08 C 8.33333 km/h
2759 03-01-2014 19:00:00 11.86667 C 8.16 g/m*3 11.87 C 11.01667 km/h
2760 03-01-2014 20:00:00 12.36667 C 8.05 g/m*3 12.37 C 20.78333 km/h
2761 03-01-2014 21:00:00 12.08333 C 7.84 g/m*3 12.08 C 20.375 km/h
2762 03-01-2014 22:00:00 11.55 C 7.49 g/m*3 11.55 C 16.63333 km/h
2763 03-01-2014 23:00:00 10.88333 C 6.91 g/m*3 8.92 C 15.7 km/h
2764 04-01-2014 00:00:00 9.73333 C 6.63 g/m*3 8.23 C 10.475 km/h
2765 04-01-2014 01:00:00 8.58333 C 6.7 g/m*3 8.04 C 5.35 km/h
2766 04-01-2014 02:00:00 7.55833 C 6.71 g/m*3 7.56 C 4.80833 km/h
2767 04-01-2014 03:00:00 7.925 C 6.75 g/m*3 7.93 C 4.54167 km/h
2768 04-01-2014 04:00:00 7.38333 C 6.81 g/m*3 7.38 C 2.66667 km/h
2769 04-01-2014 05:00:00 6.20833 C 6.56 g/m*3 6.21 C 3.2 km/h
2770 04-01-2014 06:00:00 5.3 C 6.37 g/m*3 5.3 C 3.6 km/h
2771 04-01-2014 07:00:00 6.10833 C 6.59 g/m*3 5.17 C 5.48333 km/h
2772 04-01-2014 08:00:00 7.01667 C 6.74 g/m*3 5.8 C 6.85 km/h
2773 04-01-2014 09:00:00 7.20833 C 6.81 g/m*3 6.1 C 6.55 km/h
2774 04-01-2014 10:00:00 7.91667 C 7.07 g/m*3 6.84 C 6.85 km/h
2775 04-01-2014 11:00:00 8.275 C 7.14 g/m*3 7.09 C 7.51667 km/h
Sensor: Nr:Datum:Temp:Abs-Feuchte:Windchill:Wind:
Aussen-T/F 2776 04-01-2014 12:00:00 9.04167 C 7.23 g/m*3 8.64 C 5.075 km/h
2777 04-01-2014 13:00:00 9.41667 C 7.28 g/m*3 8.46 C 7.375 km/h
2778 04-01-2014 14:00:00 9.04167 C 7.31 g/m*3 9.04 C 2.40833 km/h
2779 04-01-2014 15:00:00 7.9 C 7.63 g/m*3 7.9 C 0.13333 km/h
2780 04-01-2014 16:00:00 7.28333 C 7.53 g/m*3 7.28 C 0 km/h
2781 04-01-2014 17:00:00 6.71667 C 7.3 g/m*3 6.72 C 0.26667 km/h
2782 04-01-2014 18:00:00 6.66667 C 7.32 g/m*3 6.67 C 1.475 km/h
2783 04-01-2014 19:00:00 6.59167 C 7.31 g/m*3 6.59 C 2 km/h
2784 04-01-2014 20:00:00 6.575 C 7.31 g/m*3 6.58 C 0.4 km/h
2785 04-01-2014 21:00:00 7.04167 C 7.54 g/m*3 7.04 C 2.4 km/h
2786 04-01-2014 22:00:00 6.89167 C 7.39 g/m*3 6.89 C 2.8 km/h
2787 04-01-2014 23:00:00 6.90833 C 7.45 g/m*3 6.91 C 3.73333 km/h
2788 05-01-2014 00:00:00 6.85833 C 7.45 g/m*3 6.86 C 3.06667 km/h
2789 05-01-2014 01:00:00 7.225 C 7.63 g/m*3 7.23 C 2.66667 km/h
2790 05-01-2014 02:00:00 7.45 C 7.68 g/m*3 7.45 C 1.33333 km/h
2791 05-01-2014 03:00:00 7.74167 C 7.68 g/m*3 6.75 C 6.425 km/h
2792 05-01-2014 04:00:00 7.39167 C 7.46 g/m*3 7.39 C 3.86667 km/h
2793 05-01-2014 05:00:00 7.10833 C 7.45 g/m*3 7.11 C 4.01667 km/h
2794 05-01-2014 06:00:00 6.94167 C 7.33 g/m*3 6.94 C 4.4 km/h
2795 05-01-2014 07:00:00 6.85833 C 7.1 g/m*3 5.65 C 6.70833 km/h
2796 05-01-2014 08:00:00 6.00833 C 6.62 g/m*3 5.01 C 5.61667 km/h
2797 05-01-2014 09:00:00 6 C 6.52 g/m*3 5.14 C 5.20833 km/h
2798 05-01-2014 10:00:00 6.15833 C 6.48 g/m*3 4.92 C 6.43333 km/h
2799 05-01-2014 11:00:00 6.5875 C 6.37 g/m*3 4.8 C 8.8625 km/h
2800 05-01-2014 13:00:00 6.46667 C 6.24 g/m*3 4.07 C 11.8 km/h
Sensor: Nr:Datum:Temp:Abs-Feuchte:Windchill:Wind:
Aussen-T/F 2801 05-01-2014 16:00:00 5.76667 C 6.12 g/m*3 4.82 C 5.36667 km/h
2802 05-01-2014 17:00:00 5.6 C 6.23 g/m*3 5.6 C 2.74286 km/h
2803 05-01-2014 18:00:00 5.79167 C 6.17 g/m*3 5.79 C 1.86667 km/h
2804 05-01-2014 19:00:00 5.875 C 6.13 g/m*3 5.88 C 2.53333 km/h
2805 05-01-2014 20:00:00 4.34167 C 5.83 g/m*3 4.34 C 2.26667 km/h
2806 05-01-2014 21:00:00 3.85 C 5.76 g/m*3 3.85 C 2.8 km/h
2807 05-01-2014 22:00:00 4.71667 C 6.01 g/m*3 4.72 C 2.13333 km/h
2808 05-01-2014 23:00:00 3.925 C 5.78 g/m*3 3.93 C 2.93333 km/h
2809 06-01-2014 00:00:00 3.31667 C 5.65 g/m*3 3.32 C 2.4 km/h
2810 06-01-2014 01:00:00 3.59167 C 5.76 g/m*3 3.59 C 2.40833 km/h
2811 06-01-2014 02:00:00 3.8 C 5.87 g/m*3 3.8 C 2.8 km/h
2812 06-01-2014 03:00:00 5.075 C 6.28 g/m*3 5.08 C 3.06667 km/h
2813 06-01-2014 04:00:00 5.69167 C 6.44 g/m*3 5.69 C 2.4 km/h
2814 06-01-2014 05:00:00 5.95 C 6.44 g/m*3 5.95 C 1.73333 km/h
2815 06-01-2014 06:00:00 6.25833 C 6.57 g/m*3 6.26 C 1.2 km/h
2816 06-01-2014 07:00:00 6.51667 C 6.78 g/m*3 6.52 C 1.6 km/h
2817 06-01-2014 08:00:00 7.2 C 7.2 g/m*3 7.2 C 1.46667 km/h
2818 06-01-2014 09:00:00 8.21667 C 7.64 g/m*3 8.22 C 1.46667 km/h
2819 06-01-2014 10:00:00 8.8 C 7.88 g/m*3 8.8 C 3.06667 km/h
2820 06-01-2014 11:00:00 9.80833 C 8.22 g/m*3 9.81 C 3.475 km/h
2821 06-01-2014 12:00:00 11.475 C 8.68 g/m*3 11.48 C 4.66667 km/h
2822 06-01-2014 13:00:00 12.00833 C 8.73 g/m*3 12.01 C 3.475 km/h
2823 06-01-2014 14:00:00 11.71667 C 8.42 g/m*3 11.72 C 4.00833 km/h
2824 06-01-2014 15:00:00 10.71667 C 8.23 g/m*3 10.72 C 2.26667 km/h
2825 06-01-2014 16:00:00 10.475 C 7.95 g/m*3 10.48 C 4.54167 km/h
Sensor: Nr:Datum:Temp:Abs-Feuchte:Windchill:Wind:
Aussen-T/F 2826 06-01-2014 17:00:00 9.81667 C 7.97 g/m*3 9.82 C 2.94167 km/h
2827 06-01-2014 18:00:00 10.275 C 8.08 g/m*3 10.28 C 4.80833 km/h
2828 06-01-2014 19:00:00 10.65 C 8.52 g/m*3 10.47 C 5.08333 km/h
2829 06-01-2014 20:00:00 9.79167 C 8.72 g/m*3 9.79 C 4.13333 km/h
2830 06-01-2014 21:00:00 9.74167 C 8.78 g/m*3 9.74 C 3.33333 km/h
2831 06-01-2014 22:00:00 9.61667 C 8.68 g/m*3 9.62 C 2.66667 km/h
2832 06-01-2014 23:00:00 9.60833 C 8.65 g/m*3 8.68 C 7.38333 km/h
2833 07-01-2014 00:00:00 10.76667 C 9.04 g/m*3 8.7 C 16.375 km/h
2834 07-01-2014 01:00:00 10.70833 C 8.68 g/m*3 9.49 C 9.94167 km/h
2835 07-01-2014 02:00:00 10.325 C 8.74 g/m*3 9.38 C 8.05833 km/h
2836 07-01-2014 03:00:00 9.91667 C 8.47 g/m*3 9.45 C 5.74167 km/h
2837 07-01-2014 04:00:00 9.28333 C 8.36 g/m*3 9.28 C 3.74167 km/h
2838 07-01-2014 05:00:00 10.30833 C 8.25 g/m*3 9.44 C 7.64167 km/h
2839 07-01-2014 06:00:00 10.31667 C 8.07 g/m*3 9.83 C 6.03333 km/h
2840 07-01-2014 07:00:00 9.64167 C 7.91 g/m*3 9.64 C 4.8 km/h
2841 07-01-2014 08:00:00 9.66667 C 7.87 g/m*3 9.27 C 5.35 km/h
2842 07-01-2014 09:00:00 10.69167 C 7.91 g/m*3 9.65 C 8.86667 km/h
2843 07-01-2014 10:00:00 11.35833 C 8.12 g/m*3 11.36 C 10.46667 km/h
2844 07-01-2014 11:00:00 11.81667 C 8.24 g/m*3 11.82 C 8.59167 km/h
2845 07-01-2014 12:00:00 11.84167 C 8.39 g/m*3 11.84 C 6.84167 km/h
2846 07-01-2014 13:00:00 11.55 C 8.66 g/m*3 11.55 C 3.34167 km/h
2847 07-01-2014 14:00:00 12.93333 C 8.39 g/m*3 12.93 C 6.975 km/h
2848 07-01-2014 15:00:00 13.25 C 8.11 g/m*3 13.25 C 6.7 km/h
2849 07-01-2014 16:00:00 11.85833 C 8.34 g/m*3 11.86 C 3.06667 km/h
2850 07-01-2014 17:00:00 10.63333 C 8.39 g/m*3 10.63 C 2 km/h
Sensor: Nr:Datum:Temp:Abs-Feuchte:Windchill:Wind:
Aussen-T/F 2851 07-01-2014 18:00:00 10.25 C 8.35 g/m*3 10.25 C 3.06667 km/h
2852 07-01-2014 19:00:00 10.4 C 8.66 g/m*3 10.4 C 2.13333 km/h
2853 07-01-2014 20:00:00 9.63333 C 8.6 g/m*3 9.63 C 1.86667 km/h
2854 07-01-2014 21:00:00 9.79167 C 8.78 g/m*3 9.79 C 2.66667 km/h
2855 07-01-2014 22:00:00 10.14167 C 8.8 g/m*3 10.14 C 2.26667 km/h
2856 07-01-2014 23:00:00 10.40833 C 8.92 g/m*3 10.41 C 2.93333 km/h
2857 08-01-2014 00:00:00 11.3 C 9.06 g/m*3 11.3 C 5.48333 km/h
2858 08-01-2014 01:00:00 11.525 C 9.06 g/m*3 11.53 C 7.38333 km/h
2859 08-01-2014 02:00:00 11.525 C 9.09 g/m*3 11.53 C 5.35 km/h
2860 08-01-2014 03:00:00 11.08333 C 9.06 g/m*3 11.08 C 4.28333 km/h
2861 08-01-2014 04:00:00 10.84167 C 9.09 g/m*3 10.84 C 3.34167 km/h
2862 08-01-2014 05:00:00 11.51667 C 9.12 g/m*3 11.52 C 10.06667 km/h
2863 08-01-2014 06:00:00 12.175 C 9.02 g/m*3 12.18 C 13.56667 km/h
2864 08-01-2014 07:00:00 11.95833 C 8.82 g/m*3 11.96 C 10.9 km/h
2865 08-01-2014 08:00:00 11.45 C 8.61 g/m*3 11.45 C 9.28333 km/h
2866 08-01-2014 09:00:00 11.33333 C 8.48 g/m*3 11.33 C 8.06667 km/h
2867 08-01-2014 10:00:00 11.52 C 8.46 g/m*3 11.52 C 9.68 km/h
2868 08-01-2014 11:00:00 11.175 C 8.35 g/m*3 11.18 C 7.375 km/h
2869 08-01-2014 12:00:00 11.25833 C 8.27 g/m*3 11.26 C 6.43333 km/h
2870 08-01-2014 13:00:00 12.45833 C 8.34 g/m*3 12.46 C 10.06667 km/h
2871 08-01-2014 14:00:00 12.03333 C 8.38 g/m*3 12.03 C 8.04167 km/h
2872 08-01-2014 15:00:00 11.49167 C 8.25 g/m*3 11.49 C 8.45833 km/h
2873 08-01-2014 16:00:00 10.38333 C 8.09 g/m*3 10.13 C 5.20833 km/h
2874 08-01-2014 17:00:00 9.00833 C 7.92 g/m*3 9.01 C 2.66667 km/h
2875 08-01-2014 18:00:00 8.2 C 7.7 g/m*3 8.2 C 1.33333 km/h
Sensor: Nr:Datum:Temp:Abs-Feuchte:Windchill:Wind:
Aussen-T/F 2876 08-01-2014 19:00:00 7.325 C 7.47 g/m*3 7.33 C 0.26667 km/h
2877 08-01-2014 20:00:00 6.98333 C 7.37 g/m*3 6.98 C 0.13333 km/h
2878 08-01-2014 21:00:00 6.63333 C 7.26 g/m*3 6.63 C 0 km/h
2879 08-01-2014 22:00:00 6.26667 C 7.09 g/m*3 6.27 C 0 km/h
2880 09-01-2014 01:00:00 6.5 C 7.27 g/m*3 6.5 C 0.26667 km/h
2881 09-01-2014 02:00:00 6.7 C 7.37 g/m*3 6.7 C 0.26667 km/h
2882 09-01-2014 03:00:00 6.68333 C 7.36 g/m*3 6.68 C 0.4 km/h
2883 09-01-2014 04:00:00 6.75833 C 7.4 g/m*3 6.76 C 0.8 km/h
2884 09-01-2014 05:00:00 7 C 7.59 g/m*3 7 C 1.30909 km/h
2885 09-01-2014 07:00:00 9.425 C 8.45 g/m*3 9.1 C 5 km/h
2886 09-01-2014 08:00:00 9.53333 C 8.16 g/m*3 9.53 C 2.54167 km/h
2887 09-01-2014 09:00:00 9.33333 C 8.2 g/m*3 9.33 C 2.53333 km/h
2888 09-01-2014 10:00:00 10.01667 C 8.42 g/m*3 10.02 C 2.53333 km/h
2889 09-01-2014 11:00:00 11.28333 C 8.54 g/m*3 11.28 C 8.19167 km/h
2890 09-01-2014 12:00:00 12.46667 C 8.55 g/m*3 12.47 C 12.23333 km/h
2891 09-01-2014 13:00:00 12.7 C 8.57 g/m*3 12.7 C 13.96667 km/h
2892 09-01-2014 14:00:00 12.71667 C 8.6 g/m*3 12.72 C 18.64167 km/h
2893 09-01-2014 15:00:00 11.45833 C 8.59 g/m*3 11.46 C 16.1 km/h
2894 09-01-2014 16:00:00 10.44167 C 8.17 g/m*3 8.19 C 17.43333 km/h
2895 09-01-2014 17:00:00 9.94167 C 8.04 g/m*3 7.79 C 15.43333 km/h
2896 09-01-2014 18:00:00 9.91667 C 7.84 g/m*3 7.49 C 17.83333 km/h
2897 09-01-2014 19:00:00 9.71667 C 7.78 g/m*3 7.27 C 17.575 km/h
2898 09-01-2014 20:00:00 9.53333 C 7.25 g/m*3 7.35 C 14.9 km/h
2899 09-01-2014 21:00:00 8.49167 C 6.36 g/m*3 6.14 C 14.35833 km/h
2900 09-01-2014 22:00:00 6.95 C 5.84 g/m*3 5.48 C 7.79167 km/h
Sensor: Nr:Datum:Temp:Abs-Feuchte:Windchill:Wind:
Aussen-T/F 2901 09-01-2014 23:00:00 6.425 C 5.86 g/m*3 6.43 C 4.275 km/h
2902 10-01-2014 00:00:00 5.925 C 6.16 g/m*3 5.93 C 0 km/h
2903 10-01-2014 01:00:00 5.7 C 6.3 g/m*3 5.7 C 1.33333 km/h
2904 10-01-2014 02:00:00 6.2 C 6.35 g/m*3 6.2 C 3.86667 km/h
2905 10-01-2014 03:00:00 5.88333 C 6.22 g/m*3 5.88 C 4.68333 km/h
2906 10-01-2014 04:00:00 4.79167 C 5.95 g/m*3 4.79 C 4.80833 km/h
2907 10-01-2014 05:00:00 5 C 5.95 g/m*3 3.02 C 8.45 km/h
2908 10-01-2014 06:00:00 4.74167 C 5.91 g/m*3 3.76 C 5.075 km/h
2909 10-01-2014 07:00:00 5.05833 C 6.02 g/m*3 3.05 C 8.61667 km/h
2910 10-01-2014 08:00:00 5.41667 C 6.04 g/m*3 3 C 10.74167 km/h
2911 10-01-2014 09:00:00 5.34167 C 6.1 g/m*3 3.7 C 7.38333 km/h
2912 10-01-2014 10:00:00 5.69167 C 6.26 g/m*3 4.08 C 7.50833 km/h
2913 10-01-2014 11:00:00 6.675 C 6.35 g/m*3 4.14 C 12.88333 km/h
2914 10-01-2014 12:00:00 7.5 C 6.5 g/m*3 5.36 C 11.55 km/h
2915 10-01-2014 13:00:00 7.71667 C 6.53 g/m*3 5.43 C 12.76667 km/h
2916 10-01-2014 14:00:00 7.74167 C 6.59 g/m*3 5.89 C 10.20833 km/h
2917 10-01-2014 15:00:00 7.85833 C 6.64 g/m*3 6.57 C 7.65 km/h
2918 10-01-2014 16:00:00 6.5 C 6.37 g/m*3 6.5 C 4.26667 km/h
2919 10-01-2014 17:00:00 5.1 C 6.12 g/m*3 5.1 C 3.6 km/h
2920 10-01-2014 18:00:00 5.08333 C 6.06 g/m*3 4.15 C 5.06667 km/h
2921 10-01-2014 19:00:00 5.36667 C 6.08 g/m*3 4.32 C 5.475 km/h
2922 10-01-2014 20:00:00 4.7 C 5.91 g/m*3 4.7 C 4 km/h
2923 10-01-2014 21:00:00 4.075 C 5.81 g/m*3 4.08 C 1.46667 km/h
2924 10-01-2014 22:00:00 3.25 C 5.64 g/m*3 3.25 C 0.4 km/h
2925 10-01-2014 23:00:00 3.05833 C 5.64 g/m*3 3.06 C 0 km/h
Sensor: Nr:Datum:Temp:Abs-Feuchte:Windchill:Wind:
Aussen-T/F 2926 11-01-2014 00:00:00 2.525 C 5.47 g/m*3 2.53 C 0 km/h
2927 11-01-2014 01:00:00 2.08333 C 5.31 g/m*3 2.08 C 0.13333 km/h
2928 11-01-2014 02:00:00 1.78333 C 5.25 g/m*3 1.78 C 0.4 km/h
2929 11-01-2014 03:00:00 1.54167 C 5.17 g/m*3 1.54 C 0.26667 km/h
2930 11-01-2014 04:00:00 1.35 C 5.11 g/m*3 1.35 C 0.4 km/h
2931 11-01-2014 05:00:00 0.89167 C 4.97 g/m*3 0.89 C 0 km/h
2932 11-01-2014 06:00:00 1.10833 C 5.07 g/m*3 1.11 C 0.66667 km/h
2933 11-01-2014 07:00:00 1.4 C 5.17 g/m*3 1.4 C 1.73333 km/h
2934 11-01-2014 08:00:00 1.86667 C 5.34 g/m*3 1.87 C 1.2 km/h
2935 11-01-2014 09:00:00 2.25833 C 5.49 g/m*3 2.26 C 0 km/h
2936 11-01-2014 10:00:00 2.6 C 5.61 g/m*3 2.6 C 0.26667 km/h
2937 11-01-2014 11:00:00 3.79167 C 6.12 g/m*3 3.79 C 2.81667 km/h
2938 11-01-2014 12:00:00 5.975 C 6.68 g/m*3 3.92 C 9.55833 km/h
2939 11-01-2014 13:00:00 6.85 C 6.71 g/m*3 5.14 C 8.73333 km/h
2940 11-01-2014 14:00:00 7.66667 C 6.81 g/m*3 5.41 C 12.48333 km/h
2941 11-01-2014 15:00:00 7.13333 C 6.79 g/m*3 5.5 C 8.59167 km/h
2942 11-01-2014 16:00:00 7.36667 C 6.99 g/m*3 5.47 C 10.09167 km/h
2943 11-01-2014 17:00:00 6.41667 C 7.01 g/m*3 5.56 C 5.36667 km/h
2944 11-01-2014 18:00:00 6.24167 C 6.59 g/m*3 5.02 C 6.43333 km/h
2945 11-01-2014 19:00:00 5.69167 C 6.31 g/m*3 5.69 C 4.43333 km/h
2946 11-01-2014 20:00:00 4.46667 C 6.04 g/m*3 4.47 C 3.06667 km/h
2947 11-01-2014 21:00:00 4.33333 C 5.92 g/m*3 4.33 C 4.66667 km/h
2948 11-01-2014 22:00:00 3.45833 C 5.63 g/m*3 3.46 C 2.8 km/h
2949 11-01-2014 23:00:00 2.49167 C 5.41 g/m*3 2.49 C 2 km/h
2950 12-01-2014 00:00:00 2 C 5.28 g/m*3 2 C 3.06667 km/h
Sensor: Nr:Datum:Temp:Abs-Feuchte:Windchill:Wind:
Aussen-T/F 2951 12-01-2014 01:00:00 1.575 C 5.13 g/m*3 1.58 C 3.74167 km/h
2952 12-01-2014 02:00:00 1.1 C 4.97 g/m*3 -1.12 C 6.99167 km/h
2953 12-01-2014 03:00:00 0.96667 C 4.97 g/m*3 -1.86 C 8.86667 km/h
2954 12-01-2014 04:00:00 1.24167 C 5.07 g/m*3 -1.54 C 8.88333 km/h
2955 12-01-2014 05:00:00 1.19167 C 5.05 g/m*3 -1.01 C 6.96667 km/h
2956 12-01-2014 06:00:00 0.69167 C 4.88 g/m*3 0.69 C 2.4 km/h
2957 12-01-2014 07:00:00 0.54167 C 4.87 g/m*3 0.54 C 3.86667 km/h
2958 12-01-2014 08:00:00 0.11667 C 4.74 g/m*3 0.12 C 3.75 km/h
2959 12-01-2014 09:00:00 -0.00833 C 4.7 g/m*3 -0.01 C 2 km/h
2960 12-01-2014 10:00:00 0.15 C 4.75 g/m*3 0.15 C 4.95 km/h
2961 12-01-2014 11:00:00 0.25833 C 4.81 g/m*3 -1.57 C 5.625 km/h
2962 12-01-2014 12:00:00 0.46667 C 4.9 g/m*3 0.47 C 2.26667 km/h
2963 12-01-2014 13:00:00 0.84167 C 5.03 g/m*3 0.84 C 2.26667 km/h
2964 12-01-2014 14:00:00 1.35 C 5.21 g/m*3 1.35 C 2 km/h
2965 12-01-2014 15:00:00 1.28571 C 5.19 g/m*3 1.29 C 2.74286 km/h
2966 12-01-2014 16:00:00 1 C 5.09 g/m*3 1 C 1.2 km/h
2967 12-01-2014 17:00:00 0.1875 C 4.81 g/m*3 0.19 C 0.6 km/h
2968 12-01-2014 18:00:00 -0.26667 C 4.66 g/m*3 -0.27 C 0.8 km/h
2969 12-01-2014 19:00:00 -0.55833 C 4.57 g/m*3 -0.56 C 0.4 km/h
2970 12-01-2014 20:00:00 -0.80833 C 4.49 g/m*3 -0.81 C 1.2 km/h
2971 12-01-2014 21:00:00 -1.225 C 4.36 g/m*3 -1.23 C 2.53333 km/h
2972 12-01-2014 22:00:00 -1.55 C 4.26 g/m*3 -1.55 C 2.66667 km/h
2973 12-01-2014 23:00:00 -1.7 C 4.22 g/m*3 -1.7 C 2 km/h
2974 13-01-2014 00:00:00 -1.7 C 4.22 g/m*3 -1.7 C 0.26667 km/h
2975 13-01-2014 01:00:00 -1.68333 C 4.22 g/m*3 -1.68 C 0.26667 km/h
Sensor: Nr:Datum:Temp:Abs-Feuchte:Windchill:Wind:
Aussen-T/F 2976 13-01-2014 02:00:00 -1.08333 C 4.4 g/m*3 -1.08 C 0.66667 km/h
2977 13-01-2014 03:00:00 -0.20833 C 4.68 g/m*3 -0.21 C 2.13333 km/h
2978 13-01-2014 04:00:00 0.24167 C 4.83 g/m*3 0.24 C 2.13333 km/h
2979 13-01-2014 05:00:00 1.05833 C 5.11 g/m*3 1.06 C 0.53333 km/h
2980 13-01-2014 06:00:00 1.825 C 5.38 g/m*3 1.83 C 1.2 km/h
2981 13-01-2014 07:00:00 2.33333 C 5.57 g/m*3 2.33 C 0.4 km/h
2982 13-01-2014 08:00:00 2.65833 C 5.69 g/m*3 2.66 C 0.53333 km/h
2983 13-01-2014 09:00:00 3.18333 C 5.9 g/m*3 3.18 C 0 km/h
2984 13-01-2014 10:00:00 3.83333 C 6.19 g/m*3 3.83 C 0.53333 km/h
2985 13-01-2014 11:00:00 5.125 C 6.77 g/m*3 5.13 C 2.26667 km/h
2986 13-01-2014 12:00:00 6.38333 C 7.31 g/m*3 4.78 C 7.91667 km/h
2987 13-01-2014 13:00:00 7.875 C 7.34 g/m*3 6.8 C 6.84167 km/h
2988 13-01-2014 14:00:00 8.025 C 7.13 g/m*3 6.87 C 7.24167 km/h
2989 13-01-2014 15:00:00 7.38333 C 7.12 g/m*3 7.38 C 1.2 km/h
2990 13-01-2014 16:00:00 6.675 C 7.05 g/m*3 6.68 C 2 km/h
2991 13-01-2014 17:00:00 6.20833 C 6.97 g/m*3 6.21 C 0.26667 km/h
2992 13-01-2014 18:00:00 6.14167 C 6.99 g/m*3 6.14 C 0 km/h
2993 13-01-2014 19:00:00 6.025 C 6.98 g/m*3 6.03 C 0 km/h
2994 13-01-2014 20:00:00 5.73333 C 6.85 g/m*3 5.73 C 0.26667 km/h
2995 13-01-2014 21:00:00 5.3 C 6.63 g/m*3 5.3 C 0 km/h
2996 13-01-2014 22:00:00 4.29167 C 6.22 g/m*3 4.29 C 0.13333 km/h
2997 13-01-2014 23:00:00 3.94167 C 6.12 g/m*3 3.94 C 1.2 km/h
2998 14-01-2014 00:00:00 3.875 C 6.08 g/m*3 3.88 C 2.13333 km/h
2999 14-01-2014 01:00:00 3.5 C 5.96 g/m*3 3.5 C 2 km/h
3000 14-01-2014 02:00:00 3.3 C 5.88 g/m*3 3.3 C 1.46667 km/h
Sensor: Nr:Datum:Temp:Abs-Feuchte:Windchill:Wind:
Aussen-T/F 3001 14-01-2014 03:00:00 4.01667 C 6.2 g/m*3 4.02 C 0.26667 km/h
3002 14-01-2014 04:00:00 4.325 C 6.32 g/m*3 4.33 C 1.06667 km/h
3003 14-01-2014 05:00:00 5.35 C 6.65 g/m*3 3.99 C 6.41667 km/h
3004 14-01-2014 06:00:00 5.18333 C 6.47 g/m*3 5.18 C 4.54167 km/h
3005 14-01-2014 07:00:00 4.65 C 6.31 g/m*3 4.65 C 2.54167 km/h
3006 14-01-2014 08:00:00 4.275 C 6.22 g/m*3 4.28 C 2.54167 km/h
3007 14-01-2014 09:00:00 4.975 C 6.56 g/m*3 4.97 C 2.53333 km/h
3008 14-01-2014 10:00:00 5.8 C 6.71 g/m*3 5.8 C 2.93333 km/h
3009 14-01-2014 11:00:00 5.88 C 6.77 g/m*3 5.88 C 2.88 km/h
3010 14-01-2014 12:00:00 6.9 C 7 g/m*3 6.9 C 2.62727 km/h
3011 14-01-2014 13:00:00 7.55833 C 7.16 g/m*3 7.56 C 3.33333 km/h
3012 14-01-2014 14:00:00 7.975 C 7.18 g/m*3 7.98 C 2.93333 km/h
3013 14-01-2014 15:00:00 7.38333 C 7.13 g/m*3 7.38 C 1.73333 km/h
3014 14-01-2014 16:00:00 7.23333 C 6.93 g/m*3 7.23 C 3.2 km/h
3015 14-01-2014 17:00:00 6.34167 C 6.82 g/m*3 6.34 C 2.26667 km/h
3016 14-01-2014 18:00:00 5.20833 C 6.54 g/m*3 5.21 C 1.33333 km/h
3017 14-01-2014 19:00:00 3.575 C 5.93 g/m*3 3.58 C 1.73333 km/h
3018 14-01-2014 20:00:00 3.21667 C 5.84 g/m*3 3.22 C 0 km/h
3019 14-01-2014 21:00:00 3.36667 C 5.91 g/m*3 3.37 C 0.53333 km/h
3020 14-01-2014 22:00:00 3.81667 C 6.12 g/m*3 3.82 C 0.26667 km/h
3021 14-01-2014 23:00:00 4.375 C 6.35 g/m*3 4.38 C 2.13333 km/h
3022 15-01-2014 00:00:00 4.8 C 6.48 g/m*3 4.8 C 2.26667 km/h
3023 15-01-2014 01:00:00 4.9 C 6.45 g/m*3 4.9 C 2.53333 km/h
3024 15-01-2014 02:00:00 4.8 C 6.31 g/m*3 4.8 C 2.53333 km/h
3025 15-01-2014 03:00:00 4.75833 C 6.1 g/m*3 3.62 C 5.49167 km/h
Sensor: Nr:Datum:Temp:Abs-Feuchte:Windchill:Wind:
Aussen-T/F 3026 15-01-2014 04:00:00 4.04167 C 5.61 g/m*3 2.91 C 5.225 km/h
3027 15-01-2014 05:00:00 3.16667 C 5.48 g/m*3 3.17 C 2.66667 km/h
3028 15-01-2014 06:00:00 2.10833 C 5.22 g/m*3 2.11 C 1.46667 km/h
3029 15-01-2014 07:00:00 1.56667 C 5.11 g/m*3 1.57 C 2.53333 km/h
3030 15-01-2014 08:00:00 1.74167 C 5.2 g/m*3 1.74 C 0.4 km/h
3031 15-01-2014 09:00:00 2.275 C 5.42 g/m*3 2.28 C 0 km/h
3032 15-01-2014 10:00:00 3.45833 C 5.67 g/m*3 3.46 C 1.2 km/h
3033 15-01-2014 11:00:00 4.61667 C 5.77 g/m*3 4.62 C 1.86667 km/h
3034 15-01-2014 12:00:00 5.55 C 5.91 g/m*3 5.55 C 4.40833 km/h
3035 15-01-2014 13:00:00 5.89167 C 5.94 g/m*3 4.1 C 8.31667 km/h
3036 15-01-2014 14:00:00 5.35833 C 6.01 g/m*3 4.26 C 5.625 km/h
3037 15-01-2014 15:00:00 4.81667 C 6.12 g/m*3 4.82 C 1.86667 km/h
3038 15-01-2014 16:00:00 4.46667 C 6.08 g/m*3 4.47 C 1.06667 km/h
3039 15-01-2014 17:00:00 4.44167 C 6.09 g/m*3 4.44 C 1.86667 km/h
3040 15-01-2014 18:00:00 4.725 C 6.04 g/m*3 4.72 C 2 km/h
3041 15-01-2014 19:00:00 4.81667 C 6.11 g/m*3 4.82 C 1.6 km/h
3042 15-01-2014 20:00:00 4.775 C 6.21 g/m*3 4.78 C 0.53333 km/h
3043 15-01-2014 21:00:00 4.65 C 6.29 g/m*3 4.65 C 0.66667 km/h
3044 15-01-2014 22:00:00 4.45833 C 6.29 g/m*3 4.46 C 0 km/h
3045 15-01-2014 23:00:00 4.45833 C 6.36 g/m*3 4.46 C 0 km/h
3046 16-01-2014 00:00:00 4.5 C 6.38 g/m*3 4.5 C 0 km/h
3047 16-01-2014 01:00:00 4.65 C 6.44 g/m*3 4.65 C 0 km/h
3048 16-01-2014 02:00:00 4.9 C 6.55 g/m*3 4.9 C 0 km/h
3049 16-01-2014 03:00:00 5.11667 C 6.71 g/m*3 5.12 C 0.13333 km/h
3050 16-01-2014 04:00:00 5.275 C 6.78 g/m*3 5.28 C 0 km/h
Sensor: Nr:Datum:Temp:Abs-Feuchte:Windchill:Wind:
Aussen-T/F 3051 16-01-2014 05:00:00 5.4 C 6.84 g/m*3 5.4 C 0.13333 km/h
3052 16-01-2014 06:00:00 5.54167 C 6.9 g/m*3 5.54 C 0 km/h
3053 16-01-2014 07:00:00 5.64167 C 6.95 g/m*3 5.64 C 0.13333 km/h
3054 16-01-2014 08:00:00 5.44167 C 6.86 g/m*3 5.44 C 0.53333 km/h
3055 16-01-2014 09:00:00 5.63333 C 6.94 g/m*3 5.63 C 0.53333 km/h
3056 16-01-2014 10:00:00 6.10833 C 7.16 g/m*3 6.11 C 0.26667 km/h
3057 16-01-2014 11:00:00 6.46667 C 7.13 g/m*3 6.47 C 2.8 km/h
3058 16-01-2014 12:00:00 7.55 C 7.36 g/m*3 7.55 C 0.93333 km/h
3059 16-01-2014 13:00:00 8.31667 C 7.28 g/m*3 8.32 C 2.26667 km/h
3060 16-01-2014 14:00:00 8.075 C 7.41 g/m*3 8.07 C 1.2 km/h
3061 16-01-2014 15:00:00 7.94167 C 7.25 g/m*3 7.94 C 3.2 km/h
3062 16-01-2014 16:00:00 8.38333 C 7.23 g/m*3 8.38 C 4.825 km/h
3063 16-01-2014 17:00:00 8.19167 C 7.28 g/m*3 8.19 C 3.06667 km/h
3064 16-01-2014 18:00:00 8.10833 C 7.3 g/m*3 8.11 C 4.95 km/h
3065 16-01-2014 19:00:00 8.7 C 7.35 g/m*3 7.97 C 6.01667 km/h
3066 16-01-2014 20:00:00 7.54167 C 7.22 g/m*3 7.54 C 2.53333 km/h
3067 16-01-2014 21:00:00 7.01667 C 7.19 g/m*3 7.02 C 2 km/h
3068 16-01-2014 22:00:00 6.79167 C 7.11 g/m*3 6.79 C 1.33333 km/h
3069 16-01-2014 23:00:00 5.60833 C 6.61 g/m*3 5.61 C 3.2 km/h
3070 17-01-2014 00:00:00 5.76667 C 6.8 g/m*3 5.77 C 2.66667 km/h
3071 17-01-2014 01:00:00 6.59167 C 7.05 g/m*3 6.59 C 1.46667 km/h
3072 17-01-2014 02:00:00 6.875 C 7.1 g/m*3 6.88 C 0.8 km/h
3073 17-01-2014 03:00:00 6.8 C 7.22 g/m*3 6.8 C 1.46667 km/h
3074 17-01-2014 04:00:00 6.725 C 7.33 g/m*3 6.73 C 0.66667 km/h
3075 17-01-2014 05:00:00 6.51667 C 7.28 g/m*3 6.52 C 1.06667 km/h
Sensor: Nr:Datum:Temp:Abs-Feuchte:Windchill:Wind:
Aussen-T/F 3076 17-01-2014 06:00:00 6.41667 C 7.24 g/m*3 6.42 C 1.46667 km/h
3077 17-01-2014 07:00:00 6.1 C 7.07 g/m*3 6.1 C 2.26667 km/h
3078 17-01-2014 08:00:00 5.48333 C 6.81 g/m*3 5.48 C 2.8 km/h
3079 17-01-2014 09:00:00 6.00833 C 7.04 g/m*3 6.01 C 1.86667 km/h
3080 17-01-2014 10:00:00 6.625 C 7.29 g/m*3 6.63 C 2 km/h
3081 17-01-2014 11:00:00 8.075 C 7.62 g/m*3 8.07 C 2.66667 km/h
3082 17-01-2014 12:00:00 9.18333 C 7.63 g/m*3 9.18 C 4.41667 km/h
3083 17-01-2014 13:00:00 9.93333 C 7.76 g/m*3 9.93 C 0.8 km/h
3084 17-01-2014 14:00:00 10.025 C 7.94 g/m*3 10.03 C 1.2 km/h
3085 17-01-2014 15:00:00 9.28333 C 8.02 g/m*3 9.28 C 2 km/h
3086 17-01-2014 16:00:00 8.51667 C 7.54 g/m*3 8.52 C 3.2 km/h
3087 17-01-2014 17:00:00 6.68333 C 6.89 g/m*3 6.68 C 3.46667 km/h
3088 17-01-2014 18:00:00 6.01667 C 6.76 g/m*3 6.02 C 2.93333 km/h
3089 17-01-2014 19:00:00 5.55833 C 6.6 g/m*3 5.56 C 3.06667 km/h
3090 17-01-2014 20:00:00 5.21667 C 6.44 g/m*3 5.22 C 3.33333 km/h
3091 17-01-2014 21:00:00 4.85833 C 6.28 g/m*3 4.86 C 3.6 km/h
3092 17-01-2014 22:00:00 4.54167 C 6.2 g/m*3 4.54 C 3.33333 km/h
3093 17-01-2014 23:00:00 4.2 C 6.08 g/m*3 4.2 C 2.66667 km/h
3094 18-01-2014 00:00:00 3.775 C 5.93 g/m*3 3.78 C 2.53333 km/h
3095 18-01-2014 01:00:00 3.525 C 5.85 g/m*3 3.53 C 1.73333 km/h
3096 18-01-2014 02:00:00 3.00833 C 5.65 g/m*3 3.01 C 0.66667 km/h
3097 18-01-2014 03:00:00 2.825 C 5.64 g/m*3 2.83 C 0.13333 km/h
3098 18-01-2014 04:00:00 2.60833 C 5.56 g/m*3 2.61 C 0.53333 km/h
3099 18-01-2014 05:00:00 1.90833 C 5.3 g/m*3 1.91 C 0.4 km/h
3100 18-01-2014 06:00:00 1.93333 C 5.36 g/m*3 1.93 C 1.74167 km/h
Sensor: Nr:Datum:Temp:Abs-Feuchte:Windchill:Wind:
Aussen-T/F 3101 18-01-2014 07:00:00 2.675 C 5.62 g/m*3 2.68 C 1.06667 km/h
3102 18-01-2014 08:00:00 4.2 C 6 g/m*3 2.07 C 8.46667 km/h
3103 18-01-2014 09:00:00 4.78333 C 5.96 g/m*3 3.46 C 6.03333 km/h
3104 18-01-2014 10:00:00 4.98333 C 6.02 g/m*3 3.6 C 6.30833 km/h
3105 18-01-2014 11:00:00 5.91667 C 6.79 g/m*3 4.72 C 6.16667 km/h
3106 18-01-2014 12:00:00 6.9 C 6.54 g/m*3 6.9 C 2.4 km/h
3107 18-01-2014 13:00:00 7.56667 C 6.59 g/m*3 7.57 C 3.33333 km/h
3108 18-01-2014 14:00:00 7.95556 C 6.64 g/m*3 7.96 C 4.44444 km/h
3109 18-01-2014 15:00:00 7.825 C 6.72 g/m*3 7.83 C 2.14167 km/h
3110 18-01-2014 16:00:00 6.875 C 6.53 g/m*3 6.88 C 2 km/h
3111 18-01-2014 17:00:00 5.79167 C 6.18 g/m*3 5.79 C 3.06667 km/h
3112 18-01-2014 18:00:00 5.80833 C 6.04 g/m*3 5.81 C 3.46667 km/h
3113 18-01-2014 19:00:00 6.04167 C 6.03 g/m*3 5.19 C 5.2 km/h
3114 18-01-2014 20:00:00 5.04167 C 5.96 g/m*3 5.04 C 2.93333 km/h
3115 18-01-2014 21:00:00 3.34167 C 5.58 g/m*3 3.34 C 1.2 km/h
3116 18-01-2014 22:00:00 2.9 C 5.57 g/m*3 2.9 C 1.46667 km/h
3117 18-01-2014 23:00:00 3.70833 C 5.88 g/m*3 3.71 C 0.13333 km/h
3118 19-01-2014 00:00:00 4.18333 C 6.05 g/m*3 4.18 C 0.26667 km/h
3119 19-01-2014 01:00:00 4.41667 C 6.13 g/m*3 4.42 C 0 km/h
3120 19-01-2014 02:00:00 4.65833 C 6.13 g/m*3 4.66 C 1.2 km/h
3121 19-01-2014 03:00:00 4.46667 C 5.99 g/m*3 4.47 C 1.86667 km/h
3122 19-01-2014 04:00:00 4.2 C 5.94 g/m*3 4.2 C 0.13333 km/h
3123 19-01-2014 05:00:00 4.15 C 5.97 g/m*3 4.15 C 0 km/h
3124 19-01-2014 06:00:00 4.125 C 5.96 g/m*3 4.13 C 0.4 km/h
3125 19-01-2014 07:00:00 3.99167 C 5.9 g/m*3 3.99 C 0.13333 km/h
Sensor: Nr:Datum:Temp:Abs-Feuchte:Windchill:Wind:
Aussen-T/F 3126 19-01-2014 08:00:00 3.68333 C 5.82 g/m*3 3.68 C 0 km/h
3127 19-01-2014 09:00:00 4.06667 C 6 g/m*3 4.07 C 0.53333 km/h
3128 19-01-2014 10:00:00 5.025 C 6.18 g/m*3 3.61 C 6.43333 km/h
3129 19-01-2014 11:00:00 5.625 C 6.31 g/m*3 4.39 C 6.16667 km/h
3130 19-01-2014 12:00:00 6.2 C 6.4 g/m*3 6.2 C 3.46667 km/h
3131 19-01-2014 13:00:00 6.775 C 6.59 g/m*3 6.78 C 0.93333 km/h
3132 19-01-2014 14:00:00 7.1 C 6.65 g/m*3 5.93 C 6.7 km/h
3133 19-01-2014 15:00:00 7.24167 C 6.64 g/m*3 7.24 C 4.40833 km/h
3134 19-01-2014 16:00:00 5.74 C 6.92 g/m*3 5.74 C 0.32 km/h
3135 19-01-2014 17:00:00 4.20833 C 6 g/m*3 4.21 C 0.8 km/h
3136 19-01-2014 18:00:00 3.81667 C 5.93 g/m*3 3.82 C 0.13333 km/h
3137 19-01-2014 19:00:00 3.68333 C 5.91 g/m*3 3.68 C 0.13333 km/h
3138 19-01-2014 20:00:00 3.41667 C 5.81 g/m*3 3.42 C 1.06667 km/h
3139 19-01-2014 21:00:00 3.38333 C 5.8 g/m*3 3.38 C 0 km/h
3140 19-01-2014 22:00:00 3.60833 C 5.88 g/m*3 3.61 C 0 km/h
3141 19-01-2014 23:00:00 3.79167 C 5.96 g/m*3 3.79 C 0 km/h
3142 20-01-2014 00:00:00 4.06667 C 6.07 g/m*3 4.07 C 0 km/h
3143 20-01-2014 01:00:00 4.2 C 6.12 g/m*3 4.2 C 0.26667 km/h
3144 20-01-2014 02:00:00 4.2 C 6.06 g/m*3 4.2 C 0.4 km/h
3145 20-01-2014 03:00:00 4.2 C 6.06 g/m*3 4.2 C 0 km/h
3146 20-01-2014 04:00:00 4.275 C 6.14 g/m*3 4.28 C 0 km/h
3147 20-01-2014 05:00:00 4.3 C 6.1 g/m*3 4.3 C 0 km/h
3148 20-01-2014 06:00:00 4.3 C 6.1 g/m*3 4.3 C 0 km/h
3149 20-01-2014 07:00:00 4.29167 C 6.15 g/m*3 4.29 C 0 km/h
3150 20-01-2014 08:00:00 4.2 C 6.12 g/m*3 4.2 C 0 km/h
Sensor: Nr:Datum:Temp:Abs-Feuchte:Windchill:Wind:
Aussen-T/F 3151 20-01-2014 09:00:00 4.2625 C 6.21 g/m*3 4.26 C 0 km/h
3152 20-01-2014 10:00:00 4.36667 C 6.3 g/m*3 4.37 C 0 km/h
3153 20-01-2014 11:00:00 4.61 C 6.42 g/m*3 4.61 C 0.48 km/h
3154 20-01-2014 12:00:00 4.8 C 6.44 g/m*3 4.8 C